/BCO-DMO/OA_Stress_in_Mya_arenaria/cruise_underway --date eq 20080610-- Level 1

      Directory  DocumentationDownload and Other Operations...

        Level 0 - At last level -       Flat list

# Underway Carbon Dioxide
# PI: Mark Green (St. Joseph's College of Maine)
# Co-PI: Joe Salisbury (UNHrs: Joe Salisbura, Doug rs: Joe Salisbura, Doug Vandemark, Ru Morrison, Chris Hunt
# ContersioShawn Shellito (UNH)
# Version 26 February 2015
# 
#  See headeeers from original data files for processing dates and temperature offsets.
=========================
date      month  day  year  day_of_year  
-------------------------
20080610  06     10   2008  162          
=========================
time        secDay  lat      lon       heading  speed  temp       sal        pressure_atm  xCO2_w        fCO2_w        xCO2_a        fCO2_a        air_temp      ISO_DateTime_UTC  
-------------------------
1104.6838   39881   43.0721  -70.7111  242.0    0.0    13.175     30.218     1011.7        471.388368    447.785468    nd            nd            16.500000     2008-06-10T11:04:41.03Z  
1105.0165   39901   43.0721  -70.7111  229.0    0.0    13.178     30.326     1011.7        470.919669    447.333143    nd            nd            16.500000     2008-06-10T11:05:00.99Z  
1105.3506   39921   43.0721  -70.7111  177.0    0.1    13.169     30.388     1011.7        469.965064    446.429326    nd            nd            16.500000     2008-06-10T11:05:21.04Z  
1105.6832   39941   43.0721  -70.7111  322.0    0.0    13.137     30.129     1011.7        468.716628    445.252102    nd            nd            16.500000     2008-06-10T11:05:40.99Z  
1106.0173   39961   43.0721  -70.7111  222.0    0.0    13.133     30.365     1011.7        467.395414    443.997405    nd            nd            16.500000     2008-06-10T11:06:01.04Z  
1106.3499   39981   43.0721  -70.7110  139.0    0.2    13.057     30.522     1011.7        465.945683    442.653903    nd            nd            16.500000     2008-06-10T11:06:20.99Z  
1106.6840   40001   43.0720  -70.7110  184.0    0.5    12.858     30.650     1011.7        464.402960    441.273155    nd            nd            16.500000     2008-06-10T11:06:41.04Z  
1107.0166   40021   43.0721  -70.7108  63.0     2.2    12.805     30.432     1011.6        464.121884    441.017419    nd            nd            16.500000     2008-06-10T11:07:01.00Z  
1107.3507   40041   43.0723  -70.7102  58.0     2.9    12.906     30.473     1011.6        464.149052    441.007051    nd            nd            16.500000     2008-06-10T11:07:21.04Z  
1107.6834   40061   43.0726  -70.7096  57.0     3.3    12.900     30.495     1011.6        463.140569    440.045400    nd            nd            16.500000     2008-06-10T11:07:41.00Z  
1108.0160   40081   43.0729  -70.7087  76.0     4.3    13.103     30.307     1011.6        461.413137    438.322330    nd            nd            16.500000     2008-06-10T11:08:00.96Z  
1108.3501   40101   43.0728  -70.7076  104.0    4.5    13.150     30.396     1011.7        460.245828    437.197389    nd            nd            16.500000     2008-06-10T11:08:21.01Z  
1108.6827   40121   43.0723  -70.7067  146.0    5.0    12.954     30.615     1011.6        459.070372    436.161624    nd            nd            16.500000     2008-06-10T11:08:40.96Z  
1109.0168   40141   43.0714  -70.7064  169.0    5.4    12.771     30.702     1011.6        458.253461    435.459581    nd            nd            16.500000     2008-06-10T11:09:01.01Z  
1109.3494   40161   43.0704  -70.7062  171.0    5.8    12.731     30.662     1011.7        456.591622    433.898897    nd            nd            16.500000     2008-06-10T11:09:20.96Z  
1109.6835   40181   43.0693  -70.7060  171.0    5.8    12.807     30.593     1011.6        453.090255    430.535651    nd            nd            16.500000     2008-06-10T11:09:41.01Z  
1110.0162   40201   43.0682  -70.7057  168.0    6.3    12.867     30.680     1011.6        447.919136    425.596231    nd            nd            16.500000     2008-06-10T11:10:00.97Z  
1110.3502   40221   43.0671  -70.7054  168.0    6.3    13.053     30.715     1011.6        443.341970    421.172115    nd            nd            16.500000     2008-06-10T11:10:21.01Z  
1110.6829   40241   43.0660  -70.7051  174.0    6.6    13.227     30.710     1011.6        439.444475    417.397142    nd            nd            16.500000     2008-06-10T11:10:40.97Z  
1111.0170   40261   43.0647  -70.7050  175.0    7.0    13.330     30.709     1011.6        434.169038    412.336317    nd            nd            16.500000     2008-06-10T11:11:01.02Z  
1111.3496   40281   43.0634  -70.7048  174.0    7.6    13.365     30.712     1011.6        427.998245    406.455622    nd            nd            16.500000     2008-06-10T11:11:20.98Z  
1111.6837   40301   43.0620  -70.7046  170.0    7.9    13.256     30.726     1011.6        421.960274    400.762969    nd            nd            16.500000     2008-06-10T11:11:41.02Z  
1112.0163   40321   43.0606  -70.7041  163.0    8.1    13.107     30.741     1011.6        416.348890    395.481027    nd            nd            16.500000     2008-06-10T11:12:00.98Z  
1112.3504   40341   43.0592  -70.7034  158.0    8.1    13.119     30.734     1011.6        411.054447    390.445204    nd            nd            16.500000     2008-06-10T11:12:21.02Z  
1112.6830   40361   43.0579  -70.7027  158.0    8.1    13.293     30.711     1011.6        406.351225    385.910479    nd            nd            16.500000     2008-06-10T11:12:40.98Z  
1113.0171   40381   43.0565  -70.7019  157.0    8.1    13.378     30.706     1011.5        402.282636    382.011516    nd            nd            16.500000     2008-06-10T11:13:01.03Z  
1113.3498   40401   43.0551  -70.7012  159.0    8.1    13.498     30.693     1011.5        398.448069    378.324618    nd            nd            16.500000     2008-06-10T11:13:20.99Z  
1113.6838   40421   43.0538  -70.7004  154.0    8.1    13.644     30.684     1011.5        394.723659    374.728416    nd            nd            16.500000     2008-06-10T11:13:41.03Z  
1114.0165   40441   43.0525  -70.6995  153.0    8.1    13.609     30.696     1011.5        391.488182    371.669876    nd            nd            16.500000     2008-06-10T11:14:00.99Z  
1114.3506   40461   43.0512  -70.6986  153.0    8.1    13.539     30.705     1011.5        388.722046    369.066032    nd            nd            16.500000     2008-06-10T11:14:21.04Z  
1114.6832   40481   43.0499  -70.6978  155.0    8.1    13.507     30.707     1011.5        386.310271    366.785286    nd            nd            16.500000     2008-06-10T11:14:40.99Z  
1115.0173   40501   43.0485  -70.6969  156.0    8.1    13.494     30.709     1011.5        384.065901    364.657347    nd            nd            16.500000     2008-06-10T11:15:01.04Z  
1115.3499   40521   43.0472  -70.6961  155.0    8.1    13.491     30.722     1011.5        381.901805    362.603756    nd            nd            16.500000     2008-06-10T11:15:20.99Z  
1115.6840   40541   43.0459  -70.6952  153.0    8.1    13.537     30.726     1011.5        380.013913    360.793182    nd            nd            16.500000     2008-06-10T11:15:41.04Z  
1116.0166   40561   43.0446  -70.6943  154.0    8.2    13.618     30.729     1011.5        378.249560    359.089225    nd            nd            16.500000     2008-06-10T11:16:01.00Z  
1116.3493   40581   43.0432  -70.6934  153.0    8.1    13.713     30.720     1011.5        376.857813    357.734389    nd            nd            16.500000     2008-06-10T11:16:20.96Z  
1116.6834   40601   43.0420  -70.6924  141.0    8.1    13.730     30.714     1011.5        375.633990    356.562984    nd            nd            16.500000     2008-06-10T11:16:41.00Z  
1117.0160   40621   43.0410  -70.6909  125.0    8.1    13.745     30.703     1011.5        374.853709    355.821248    nd            nd            16.500000     2008-06-10T11:17:00.96Z  
1117.3501   40641   43.0403  -70.6892  113.0    8.0    13.737     30.697     1011.5        374.412003    355.405872    nd            nd            16.500000     2008-06-10T11:17:21.01Z  
1117.6827   40661   43.0400  -70.6873  98.0     8.0    13.745     30.696     1011.5        373.873158    354.894364    nd            nd            16.500000     2008-06-10T11:17:40.96Z  
1118.0168   40681   43.0400  -70.6853  83.0     8.0    13.742     30.694     1011.5        373.310303    354.362862    nd            nd            16.500000     2008-06-10T11:18:01.01Z  
1118.3494   40701   43.0403  -70.6834  80.0     7.9    13.749     30.689     1011.5        372.852013    353.927022    nd            nd            16.500000     2008-06-10T11:18:20.96Z  
1118.6835   40721   43.0405  -70.6815  79.0     8.0    13.796     30.692     1011.5        372.360960    353.446063    nd            nd            16.500000     2008-06-10T11:18:41.01Z  
1119.0162   40741   43.0408  -70.6796  78.0     7.9    13.835     30.694     1011.5        371.917977    353.015187    nd            nd            16.500000     2008-06-10T11:19:00.97Z  
1119.3502   40761   43.0411  -70.6777  75.0     7.9    13.848     30.694     1011.5        371.511662    352.624291    nd            nd            16.500000     2008-06-10T11:19:21.01Z  
1119.6829   40781   43.0415  -70.6758  74.0     7.9    13.748     30.699     1011.6        371.193136    352.364234    nd            nd            16.500000     2008-06-10T11:19:40.97Z  
1120.0170   40801   43.0419  -70.6739  73.0     8.0    13.684     30.702     1011.6        370.828367    352.041698    nd            nd            16.500000     2008-06-10T11:20:01.02Z  
1120.3496   40821   43.0423  -70.6720  74.0     8.0    13.623     30.705     1011.6        370.577001    351.827760    nd            nd            16.500000     2008-06-10T11:20:20.98Z  
1120.6837   40841   43.0427  -70.6701  74.0     8.0    13.596     30.709     1011.6        370.323804    351.601397    nd            nd            16.500000     2008-06-10T11:20:41.02Z  
1121.0163   40861   43.0431  -70.6682  74.0     8.0    13.557     30.710     1011.6        369.899371    351.213432    nd            nd            16.500000     2008-06-10T11:21:00.98Z  
1121.3504   40881   43.0435  -70.6663  74.0     8.0    13.526     30.712     1011.6        369.508031    350.854136    nd            nd            16.500000     2008-06-10T11:21:21.02Z  
1121.6830   40901   43.0439  -70.6644  74.0     8.0    13.552     30.711     1011.6        368.969465    350.333648    nd            nd            16.500000     2008-06-10T11:21:40.98Z  
1122.0171   40921   43.0442  -70.6625  75.0     8.0    13.577     30.710     1011.6        368.421771    349.808399    nd            nd            16.500000     2008-06-10T11:22:01.03Z  
1122.3498   40941   43.0446  -70.6606  76.0     8.0    13.616     30.707     1011.6        367.903262    349.302956    nd            nd            16.500000     2008-06-10T11:22:20.99Z  
1122.6838   40961   43.0449  -70.6587  75.0     8.0    13.679     30.700     1011.6        367.347181    348.755138    nd            nd            16.500000     2008-06-10T11:22:41.03Z  
1123.0165   40981   43.0453  -70.6568  75.0     8.0    13.767     30.692     1011.6        366.930029    348.330492    nd            nd            16.500000     2008-06-10T11:23:00.99Z  
1123.3506   41001   43.0457  -70.6549  74.0     8.0    13.845     30.687     1011.6        366.527264    347.921896    nd            nd            16.500000     2008-06-10T11:23:21.04Z  
1123.6832   41021   43.0460  -70.6530  74.0     8.0    13.891     30.686     1011.6        366.247586    347.642736    nd            nd            16.500000     2008-06-10T11:23:40.99Z  
1124.0173   41041   43.0464  -70.6511  75.0     8.0    13.927     30.683     1011.6        366.169739    347.559347    nd            nd            16.500000     2008-06-10T11:24:01.04Z  
1124.3499   41061   43.0468  -70.6492  74.0     8.0    13.950     30.679     1011.6        366.225187    347.609481    nd            nd            16.500000     2008-06-10T11:24:20.99Z  
1124.6840   41081   43.0472  -70.6473  75.0     8.0    13.972     30.677     1011.7        366.299711    347.674396    nd            nd            16.500000     2008-06-10T11:24:41.04Z  
1125.0166   41101   43.0476  -70.6454  69.0     8.0    13.984     30.676     1011.7        366.475707    347.840128    nd            nd            16.500000     2008-06-10T11:25:01.00Z  
1125.3507   41121   43.0482  -70.6436  67.0     8.0    14.023     30.666     1011.7        366.724609    348.060100    nd            nd            16.500000     2008-06-10T11:25:21.04Z  
1125.6834   41141   43.0487  -70.6418  66.0     8.0    14.070     30.664     1011.6        366.914890    348.222458    nd            nd            16.500000     2008-06-10T11:25:41.00Z  
1126.0160   41161   43.0493  -70.6399  67.0     8.0    14.099     30.660     1011.6        367.217129    348.495967    nd            nd            16.500000     2008-06-10T11:26:00.96Z  
1126.3501   41181   43.0499  -70.6381  67.0     8.0    14.029     30.670     1011.6        367.639761    348.925152    nd            nd            16.500000     2008-06-10T11:26:21.01Z  
1126.6827   41201   43.0504  -70.6363  68.0     7.9    13.942     30.678     1011.6        368.001164    349.292414    nd            nd            16.500000     2008-06-10T11:26:40.96Z  
1127.0168   41221   43.0509  -70.6345  68.0     8.0    13.845     30.684     1011.6        368.441907    349.744973    nd            nd            16.500000     2008-06-10T11:27:01.01Z  
1127.3494   41241   43.0515  -70.6327  67.0     8.0    13.720     30.692     1011.6        368.871852    350.195985    nd            nd            16.500000     2008-06-10T11:27:20.96Z  
1127.6835   41261   43.0520  -70.6309  67.0     7.9    13.600     30.700     1011.6        369.052701    350.409716    nd            nd            16.500000     2008-06-10T11:27:41.01Z  
1128.0162   41281   43.0526  -70.6291  67.0     7.9    13.553     30.703     1011.6        369.064502    350.437142    nd            nd            16.500000     2008-06-10T11:28:00.97Z  
1128.3502   41301   43.0531  -70.6273  66.0     7.9    13.623     30.716     1011.6        368.992619    350.345869    nd            nd            16.500000     2008-06-10T11:28:21.01Z  
1128.6829   41321   43.0537  -70.6255  66.0     7.9    13.814     30.754     1011.6        368.784391    350.084175    nd            nd            16.500000     2008-06-10T11:28:40.97Z  
1129.0170   41341   43.0543  -70.6238  67.0     7.9    14.112     30.784     1011.7        368.538276    349.749260    nd            nd            16.500000     2008-06-10T11:29:01.02Z  
1129.3496   41361   43.0548  -70.6219  69.0     7.9    14.272     30.788     1011.6        368.407008    349.567279    nd            nd            16.500000     2008-06-10T11:29:20.98Z  
1129.6837   41381   43.0553  -70.6201  68.0     8.0    14.394     30.788     1011.7        370.282259    351.308655    nd            nd            16.500000     2008-06-10T11:29:41.02Z  
1130.0163   41401   43.0558  -70.6183  69.0     8.0    14.451     30.788     1011.7        373.886482    354.707698    nd            nd            16.500000     2008-06-10T11:30:00.98Z  
1130.3504   41421   43.0564  -70.6165  69.0     8.0    14.481     30.785     1011.7        376.963656    357.624506    nd            nd            16.500000     2008-06-10T11:30:21.02Z  
1130.6830   41441   43.0569  -70.6146  69.0     8.0    14.489     30.783     1011.7        379.823965    360.339577    nd            nd            16.500000     2008-06-10T11:30:40.98Z  
1131.0171   41461   43.0574  -70.6128  69.0     8.0    14.483     30.783     1011.7        381.646669    362.074173    nd            nd            16.500000     2008-06-10T11:31:01.03Z  
1131.3498   41481   43.0578  -70.6109  72.0     8.0    14.552     30.779     1011.7        383.081802    363.410845    nd            nd            16.500000     2008-06-10T11:31:20.99Z  
1131.6838   41501   43.0583  -70.6091  70.0     8.0    14.575     30.777     1011.7        384.540884    364.792830    nd            nd            16.500000     2008-06-10T11:31:41.03Z  
1132.0165   41521   43.0588  -70.6072  67.0     8.0    14.529     30.776     1011.7        386.055964    366.250016    nd            nd            16.500000     2008-06-10T11:32:00.99Z  
1132.3506   41541   43.0594  -70.6054  70.0     7.9    14.406     30.779     1011.8        387.043802    367.237410    nd            nd            16.500000     2008-06-10T11:32:21.04Z  
1132.6832   41561   43.0598  -70.6035  75.0     8.0    14.411     30.775     1011.8        386.766037    366.976172    nd            nd            16.500000     2008-06-10T11:32:40.99Z  
1133.0173   41581   43.0601  -70.6016  78.0     7.9    14.408     30.773     1011.8        386.440623    366.671173    nd            nd            16.500000     2008-06-10T11:33:01.04Z  
1133.3499   41601   43.0603  -70.5997  81.0     8.0    14.314     30.771     1011.8        386.688529    366.942007    nd            nd            16.500000     2008-06-10T11:33:20.99Z  
1133.6840   41621   43.0606  -70.5978  75.0     8.0    14.241     30.773     1011.8        386.220257    366.532204    nd            nd            16.500000     2008-06-10T11:33:41.04Z  
1134.0166   41641   43.0611  -70.5959  66.0     8.0    14.181     30.767     1011.8        385.184515    365.573040    nd            nd            16.500000     2008-06-10T11:34:01.00Z  
1134.3493   41661   43.0617  -70.5942  62.0     8.0    14.094     30.769     1011.8        383.619564    364.118686    nd            nd            16.500000     2008-06-10T11:34:20.96Z  
1134.6834   41681   43.0624  -70.5925  58.0     8.0    14.014     30.770     1011.8        381.656609    362.293316    nd            nd            16.500000     2008-06-10T11:34:41.00Z  
1135.0160   41701   43.0632  -70.5908  59.0     8.1    13.973     30.774     1011.8        379.390073    360.152909    nd            nd            16.500000     2008-06-10T11:35:00.96Z  
1135.3501   41721   43.0639  -70.5891  58.0     8.1    13.982     30.773     1011.8        377.423935    358.288300    nd            nd            16.500000     2008-06-10T11:35:21.01Z  
1135.6827   41741   43.0647  -70.5874  57.0     8.0    14.020     30.770     1011.8        376.230761    357.141475    nd            nd            16.500000     2008-06-10T11:35:40.96Z  
1136.0168   41761   43.0655  -70.5857  59.0     8.1    14.064     30.764     1011.8        375.837759    356.751186    nd            nd            16.500000     2008-06-10T11:36:01.01Z  
1136.3494   41781   43.0662  -70.5840  59.0     8.0    14.114     30.761     1011.8        376.399451    357.267159    nd            nd            16.500000     2008-06-10T11:36:20.96Z  
1136.6835   41801   43.0670  -70.5823  58.0     8.0    14.248     30.757     1011.8        377.382236    358.148901    nd            nd            16.500000     2008-06-10T11:36:41.01Z  
1137.0162   41821   43.0678  -70.5807  56.0     8.0    14.222     30.757     1011.8        378.948951    359.646582    nd            nd            16.500000     2008-06-10T11:37:00.97Z  
1137.3502   41841   43.0686  -70.5790  56.0     7.9    14.123     30.747     1011.8        379.965762    360.651367    nd            nd            16.500000     2008-06-10T11:37:21.01Z  
1137.6829   41861   43.0694  -70.5774  55.0     7.9    14.067     30.736     1011.8        379.336202    360.075055    nd            nd            16.500000     2008-06-10T11:37:40.97Z  
1138.0170   41881   43.0702  -70.5758  55.0     8.0    14.098     30.733     1011.8        377.867585    358.669736    nd            nd            16.500000     2008-06-10T11:38:01.02Z  
1138.3496   41901   43.0710  -70.5742  50.0     8.0    14.304     30.744     1011.8        376.724787    357.511440    nd            nd            16.500000     2008-06-10T11:38:20.98Z  
1138.6837   41921   43.0720  -70.5728  41.0     7.9    14.417     30.735     1011.8        377.530616    358.238498    nd            nd            16.500000     2008-06-10T11:38:41.02Z  
1139.0163   41941   43.0731  -70.5715  41.0     8.0    14.470     30.729     1011.8        379.266180    359.863323    nd            nd            16.500000     2008-06-10T11:39:00.98Z  
1139.3504   41961   43.0742  -70.5702  44.0     8.2    14.524     30.724     1011.8        380.652292    361.155692    nd            nd            16.500000     2008-06-10T11:39:21.02Z  
1139.6830   41981   43.0753  -70.5688  43.0     8.2    14.584     30.721     1011.8        381.834766    362.254379    nd            nd            16.500000     2008-06-10T11:39:40.98Z  
1140.0171   42001   43.0764  -70.5674  43.0     8.2    14.615     30.719     1011.8        382.805845    363.163353    nd            nd            16.500000     2008-06-10T11:40:01.03Z  
1140.3498   42021   43.0774  -70.5660  43.0     8.2    14.583     30.720     1011.8        383.767010    364.086917    nd            nd            16.500000     2008-06-10T11:40:20.99Z  
1140.6838   42041   43.0785  -70.5646  43.0     8.2    14.525     30.716     1011.8        384.324894    364.636018    nd            nd            16.500000     2008-06-10T11:40:41.03Z  
1141.0165   42061   43.0796  -70.5632  42.0     8.2    14.477     30.716     1011.8        384.096371    364.438001    nd            nd            16.500000     2008-06-10T11:41:00.99Z  
1141.3506   42081   43.0807  -70.5619  43.0     8.0    14.537     30.715     1011.8        383.519773    363.862087    nd            nd            16.500000     2008-06-10T11:41:21.04Z  
1141.6832   42101   43.0817  -70.5605  43.0     8.0    14.513     30.710     1011.8        383.387677    363.744668    nd            nd            16.500000     2008-06-10T11:41:40.99Z  
1142.0173   42121   43.0828  -70.5591  43.0     8.0    14.530     30.704     1011.8        383.349538    363.698249    nd            nd            16.500000     2008-06-10T11:42:01.04Z  
1142.3499   42141   43.0838  -70.5578  43.0     8.0    14.551     30.698     1011.8        383.262216    363.603104    nd            nd            16.500000     2008-06-10T11:42:20.99Z  
1142.6840   42161   43.0849  -70.5564  42.0     8.0    14.603     30.698     1011.8        383.085313    363.413035    nd            nd            16.500000     2008-06-10T11:42:41.04Z  
1143.0166   42181   43.0859  -70.5551  45.0     8.1    14.642     30.698     1011.8        383.118232    363.423313    nd            nd            16.500000     2008-06-10T11:43:01.00Z  
1143.3507   42201   43.0870  -70.5537  43.0     8.1    14.613     30.695     1011.7        383.673152    363.958932    nd            nd            16.500000     2008-06-10T11:43:21.04Z  
1143.6834   42221   43.0881  -70.5523  43.0     8.1    14.543     30.693     1011.7        383.812924    364.117687    nd            nd            16.500000     2008-06-10T11:43:41.00Z  
1144.0160   42241   43.0891  -70.5509  44.0     8.1    14.490     30.691     1011.7        383.234165    363.589330    nd            nd            16.500000     2008-06-10T11:44:00.96Z  
1144.3501   42261   43.0902  -70.5496  45.0     8.0    14.503     30.709     1011.8        382.279366    362.680013    nd            nd            16.500000     2008-06-10T11:44:21.01Z  
1144.6827   42281   43.0912  -70.5482  44.0     8.1    14.524     30.718     1011.8        381.884627    362.299193    nd            nd            16.500000     2008-06-10T11:44:40.96Z  
1145.0168   42301   43.0922  -70.5468  43.0     8.1    14.531     30.709     1011.8        382.385564    362.773234    nd            nd            16.500000     2008-06-10T11:45:01.01Z  
1145.3494   42321   43.0933  -70.5454  43.0     8.0    14.544     30.707     1011.8        382.574088    362.949939    nd            nd            16.500000     2008-06-10T11:45:20.96Z  
1145.6835   42341   43.0943  -70.5441  44.0     8.1    14.567     30.707     1011.8        382.673151    363.030116    nd            nd            16.500000     2008-06-10T11:45:41.01Z  
1146.0162   42361   43.0954  -70.5427  44.0     8.1    14.614     30.704     1011.8        382.891500    363.220189    nd            nd            16.500000     2008-06-10T11:46:00.97Z  
1146.3502   42381   43.0964  -70.5413  43.0     8.2    14.661     30.699     1011.8        383.376050    363.662612    nd            nd            16.500000     2008-06-10T11:46:21.01Z  
1146.6829   42401   43.0975  -70.5399  44.0     8.2    14.682     30.694     1011.8        384.056894    364.304352    nd            nd            16.500000     2008-06-10T11:46:40.97Z  
1147.0170   42421   43.0986  -70.5385  44.0     8.1    14.697     30.687     1011.8        384.586528    364.801132    nd            nd            16.500000     2008-06-10T11:47:01.02Z  
1147.3496   42441   43.0996  -70.5371  44.0     8.1    14.639     30.691     1011.8        384.926560    365.148411    nd            nd            16.500000     2008-06-10T11:47:20.98Z  
1147.6837   42461   43.1007  -70.5357  43.0     8.1    14.565     30.709     1011.8        384.757332    365.024429    nd            nd            16.500000     2008-06-10T11:47:41.02Z  
1148.0163   42481   43.1017  -70.5343  43.0     8.1    14.571     30.721     1011.8        384.014908    364.314488    nd            nd            16.500000     2008-06-10T11:48:00.98Z  
1148.3504   42501   43.1028  -70.5329  44.0     8.1    14.640     30.725     1011.8        383.943251    364.223124    nd            nd            16.500000     2008-06-10T11:48:21.02Z  
1148.6830   42521   43.1038  -70.5315  45.0     8.1    14.766     30.714     1011.8        384.444262    364.652591    nd            nd            16.500000     2008-06-10T11:48:40.98Z  
1149.0171   42541   43.1049  -70.5302  42.0     8.0    14.880     30.705     1011.8        385.631834    365.738700    nd            nd            16.500000     2008-06-10T11:49:01.03Z  
1149.3498   42561   43.1059  -70.5288  42.0     8.1    14.855     30.725     1011.8        387.352216    367.384146    nd            nd            16.500000     2008-06-10T11:49:20.99Z  
1149.6838   42581   43.1070  -70.5274  44.0     8.2    14.904     30.719     1011.8        388.563289    368.512673    nd            nd            16.500000     2008-06-10T11:49:41.03Z  
1150.0165   42601   43.1081  -70.5260  44.0     8.1    14.989     30.665     1011.8        389.535379    369.403577    nd            nd            16.500000     2008-06-10T11:50:00.99Z  
1150.3506   42621   43.1091  -70.5247  42.0     8.1    15.023     30.595     1011.8        390.184961    370.005542    nd            nd            16.500000     2008-06-10T11:50:21.04Z  
1150.6832   42641   43.1102  -70.5233  43.0     8.1    15.095     30.554     1011.8        390.150968    369.944389    nd            nd            16.500000     2008-06-10T11:50:40.99Z  
1151.0173   42661   43.1113  -70.5219  42.0     8.1    15.166     30.515     1011.8        390.090935    369.860870    nd            nd            16.500000     2008-06-10T11:51:01.04Z  
1151.3499   42681   43.1123  -70.5206  44.0     8.0    15.124     30.514     1011.8        390.313952    370.086908    nd            nd            16.500000     2008-06-10T11:51:20.99Z  
1151.6840   42701   43.1134  -70.5192  45.0     8.1    15.013     30.509     1011.8        390.310035    370.127762    nd            nd            16.500000     2008-06-10T11:51:41.04Z  
1152.0166   42721   43.1144  -70.5178  43.0     8.0    14.942     30.536     1011.8        389.989983    369.854118    nd            nd            16.500000     2008-06-10T11:52:01.00Z  
1152.3507   42741   43.1155  -70.5164  43.0     8.1    14.928     30.555     1011.8        389.628555    369.513036    nd            nd            16.500000     2008-06-10T11:52:21.04Z  
1152.6834   42761   43.1165  -70.5150  45.0     8.1    14.956     30.556     1011.8        389.325089    369.214949    nd            nd            16.500000     2008-06-10T11:52:41.00Z  
1153.0160   42781   43.1175  -70.5136  44.0     8.1    14.980     30.546     1011.8        389.268839    369.153429    nd            nd            16.500000     2008-06-10T11:53:00.96Z  
1153.3501   42801   43.1186  -70.5122  46.0     8.1    14.973     30.537     1011.8        389.456122    369.331874    nd            nd            16.500000     2008-06-10T11:53:21.01Z  
1153.6827   42821   43.1196  -70.5108  45.0     8.0    15.014     30.540     1011.8        389.452749    369.310449    nd            nd            16.500000     2008-06-10T11:53:40.96Z  
1154.0168   42841   43.1206  -70.5094  46.0     8.0    15.062     30.563     1011.8        389.626249    369.456177    nd            nd            16.500000     2008-06-10T11:54:01.01Z  
1154.3494   42861   43.1216  -70.5080  45.0     8.0    15.008     30.580     1011.8        390.232944    370.052148    nd            nd            16.500000     2008-06-10T11:54:20.96Z  
1154.6835   42881   43.1226  -70.5066  46.0     8.0    14.926     30.566     1011.8        390.399142    370.243682    nd            nd            16.500000     2008-06-10T11:54:41.01Z  
1155.0162   42901   43.1236  -70.5052  44.0     8.0    14.926     30.553     1011.8        389.799840    369.675961    nd            nd            16.500000     2008-06-10T11:55:00.97Z  
1155.3502   42921   43.1247  -70.5038  45.0     8.0    14.885     30.515     1011.8        389.081030    369.008637    nd            nd            16.500000     2008-06-10T11:55:21.01Z  
1155.6829   42941   43.1257  -70.5024  45.0     8.0    14.881     30.497     1011.8        388.357344    368.322432    nd            nd            16.500000     2008-06-10T11:55:40.97Z  
1156.0170   42961   43.1267  -70.5010  45.0     8.0    14.819     30.508     1011.8        387.903753    367.915278    nd            nd            16.500000     2008-06-10T11:56:01.02Z  
1156.3496   42981   43.1277  -70.4996  45.0     8.1    14.839     30.521     1011.8        387.128237    367.166514    nd            nd            16.500000     2008-06-10T11:56:20.98Z  
1156.6837   43001   43.1287  -70.4981  45.0     8.0    14.876     30.505     1011.8        386.659205    366.703335    nd            nd            16.500000     2008-06-10T11:56:41.02Z  
1157.0163   43021   43.1297  -70.4968  44.0     8.0    14.922     30.508     1011.8        386.545927    366.573237    nd            nd            16.500000     2008-06-10T11:57:00.98Z  
1157.3504   43041   43.1308  -70.4954  45.0     8.0    14.901     30.527     1011.8        386.859213    366.873970    nd            nd            16.500000     2008-06-10T11:57:21.02Z  
1157.6830   43061   43.1318  -70.4939  46.0     8.0    14.863     30.538     1011.8        387.041018    367.057314    nd            nd            16.500000     2008-06-10T11:57:40.98Z  
1158.0171   43081   43.1328  -70.4925  45.0     8.0    14.767     30.545     1011.7        386.776576    366.841851    nd            nd            16.500000     2008-06-10T11:58:01.03Z  
1158.3498   43101   43.1338  -70.4911  45.0     8.1    14.619     30.620     1011.7        386.046228    366.202158    nd            nd            16.500000     2008-06-10T11:58:20.99Z  
1158.6838   43121   43.1348  -70.4897  45.0     8.0    14.512     30.633     1011.7        384.645593    364.916965    nd            nd            16.500000     2008-06-10T11:58:41.03Z  
1159.0165   43141   43.1359  -70.4883  44.0     8.1    14.457     30.631     1011.7        382.989833    363.368580    nd            nd            16.500000     2008-06-10T11:59:00.99Z  
1159.3506   43161   43.1369  -70.4869  45.0     8.1    14.447     30.642     1011.7        381.638913    362.091815    nd            nd            16.500000     2008-06-10T11:59:21.04Z  
1159.6832   43181   43.1379  -70.4854  46.0     8.1    14.483     30.642     1011.8        380.715654    361.204188    nd            nd            16.500000     2008-06-10T11:59:40.99Z  
1200.0173   43201   43.1389  -70.4840  45.0     8.1    14.484     30.636     1011.8        380.207405    360.723671    nd            nd            16.316667     2008-06-10T12:00:01.04Z  
1200.3499   43221   43.1400  -70.4826  45.0     8.1    14.422     30.637     1011.8        379.985671    360.538277    nd            nd            16.200000     2008-06-10T12:00:20.99Z  
1200.6840   43241   43.1410  -70.4812  46.0     8.1    14.402     30.636     1011.8        379.186118    359.783802    nd            nd            16.200000     2008-06-10T12:00:41.04Z  
1201.0166   43261   43.1420  -70.4797  46.0     8.1    14.430     30.635     1011.8        378.327899    358.960687    nd            nd            16.200000     2008-06-10T12:01:01.00Z  
1201.3507   43281   43.1430  -70.4783  44.0     8.1    14.472     30.636     1011.8        377.951606    358.592349    nd            nd            16.200000     2008-06-10T12:01:21.04Z  
1201.6834   43301   43.1441  -70.4769  45.0     8.2    14.481     30.636     1011.8        377.888895    358.526462    nd            nd            16.200000     2008-06-10T12:01:41.00Z  
1202.0160   43321   43.1451  -70.4755  45.0     8.2    14.479     30.635     1011.8        378.016662    358.651922    nd            nd            16.200000     2008-06-10T12:02:00.96Z  
1202.3501   43341   43.1461  -70.4740  46.0     8.2    14.472     30.630     1011.8        378.042974    358.677598    nd            nd            16.200000     2008-06-10T12:02:21.01Z  
1202.6827   43361   43.1472  -70.4726  46.0     8.1    14.477     30.628     1011.8        377.956178    358.595049    nd            nd            16.200000     2008-06-10T12:02:40.96Z  
1203.0168   43381   43.1482  -70.4711  45.0     8.1    14.494     30.632     1011.8        377.993967    358.626815    nd            nd            16.200000     2008-06-10T12:03:01.01Z  
1203.3494   43401   43.1492  -70.4697  45.0     8.1    14.516     30.642     1011.8        378.036938    358.661404    nd            nd            16.200000     2008-06-10T12:03:20.96Z  
1203.6835   43421   43.1502  -70.4682  46.0     8.2    14.517     30.645     1011.8        378.099863    358.718917    nd            nd            16.200000     2008-06-10T12:03:41.01Z  
1204.0162   43441   43.1513  -70.4668  46.0     8.2    14.526     30.636     1011.8        377.976000    358.596673    nd            nd            16.200000     2008-06-10T12:04:00.97Z  
1204.3502   43461   43.1523  -70.4653  46.0     8.2    14.564     30.631     1011.8        378.097094    358.697263    nd            nd            16.200000     2008-06-10T12:04:21.01Z  
1204.6829   43481   43.1533  -70.4639  45.0     8.2    14.611     30.631     1011.8        378.422862    358.985334    nd            nd            16.200000     2008-06-10T12:04:40.97Z  
1205.0170   43501   43.1544  -70.4624  45.0     8.2    14.638     30.637     1011.8        378.982442    359.510015    nd            nd            16.200000     2008-06-10T12:05:01.02Z  
1205.3496   43521   43.1554  -70.4610  45.0     8.1    14.649     30.665     1011.8        379.655843    360.145870    nd            nd            16.200000     2008-06-10T12:05:20.98Z  
1205.6837   43541   43.1564  -70.4596  45.0     8.2    14.720     30.708     1011.8        380.358168    360.787896    nd            nd            16.200000     2008-06-10T12:05:41.02Z  
1206.0163   43561   43.1574  -70.4581  46.0     8.2    14.845     30.745     1011.8        381.076972    361.426410    nd            nd            16.200000     2008-06-10T12:06:00.98Z  
1206.3504   43581   43.1585  -70.4567  46.0     8.2    14.887     30.764     1011.8        382.396491    362.659862    nd            nd            16.200000     2008-06-10T12:06:21.02Z  
1206.6830   43601   43.1595  -70.4552  45.0     8.2    14.880     30.770     1011.8        383.392128    363.612229    nd            nd            16.200000     2008-06-10T12:06:40.98Z  
1207.0171   43621   43.1605  -70.4537  46.0     8.2    14.821     30.764     1011.8        383.439648    363.679554    nd            nd            16.200000     2008-06-10T12:07:01.03Z  
1207.3498   43641   43.1615  -70.4523  46.0     8.2    14.700     30.765     1011.8        382.787502    363.110185    nd            nd            16.200000     2008-06-10T12:07:20.99Z  
1207.6838   43661   43.1625  -70.4508  46.0     8.2    14.642     30.769     1011.8        381.171378    361.599472    nd            nd            16.200000     2008-06-10T12:07:41.03Z  
1208.0165   43681   43.1636  -70.4494  45.0     8.2    14.592     30.771     1011.8        379.368524    359.908773    nd            nd            16.200000     2008-06-10T12:08:00.99Z  
1208.3506   43701   43.1646  -70.4479  45.0     8.2    14.515     30.773     1011.8        378.033549    358.673209    nd            nd            16.200000     2008-06-10T12:08:21.04Z  
1208.6832   43721   43.1657  -70.4465  47.0     8.2    14.461     30.774     1011.8        376.628964    357.357885    nd            nd            16.200000     2008-06-10T12:08:40.99Z  
1209.0173   43741   43.1667  -70.4450  47.0     8.2    14.443     30.778     1011.8        375.211038    356.018893    nd            nd            16.200000     2008-06-10T12:09:01.04Z  
1209.3499   43761   43.1677  -70.4435  45.0     8.2    14.498     30.780     1011.8        374.072447    354.919705    nd            nd            16.200000     2008-06-10T12:09:20.99Z  
1209.6840   43781   43.1687  -70.4421  46.0     8.2    14.573     30.783     1011.8        373.486468    354.338259    nd            nd            16.200000     2008-06-10T12:09:41.04Z  
1210.0166   43801   43.1697  -70.4406  46.0     8.2    14.640     30.788     1011.8        373.726524    354.545226    nd            nd            16.200000     2008-06-10T12:10:01.00Z  
1210.3507   43821   43.1708  -70.4392  42.0     8.2    14.685     30.788     1011.8        374.322662    355.097647    nd            nd            16.200000     2008-06-10T12:10:21.04Z  
1210.6834   43841   43.1719  -70.4378  41.0     8.1    14.668     30.790     1011.9        374.890906    355.648334    nd            nd            16.200000     2008-06-10T12:10:41.00Z  
1211.0160   43861   43.1730  -70.4365  42.0     8.2    14.595     30.798     1011.9        375.307912    356.082346    nd            nd            16.200000     2008-06-10T12:11:00.96Z  
1211.3501   43881   43.1741  -70.4351  42.0     8.2    14.552     30.803     1011.9        375.055826    355.866490    nd            nd            16.200000     2008-06-10T12:11:21.01Z  
1211.6827   43901   43.1752  -70.4338  43.0     8.2    14.560     30.803     1011.9        374.546775    355.387812    nd            nd            16.200000     2008-06-10T12:11:40.96Z  
1212.0168   43921   43.1762  -70.4324  43.0     8.2    14.559     30.804     1011.9        374.078866    354.943360    nd            nd            16.200000     2008-06-10T12:12:01.01Z  
1212.3494   43941   43.1771  -70.4313  39.0     4.9    14.532     30.805     1012.0        373.805079    354.714550    nd            nd            16.200000     2008-06-10T12:12:20.96Z  
1212.6835   43961   43.1777  -70.4305  45.0     4.8    14.607     30.651     1012.0        373.404444    354.301485    nd            nd            16.200000     2008-06-10T12:12:41.01Z  
1213.0162   43981   43.1784  -70.4297  39.0     4.9    14.660     30.725     1012.0        375.566086    356.332228    nd            nd            16.200000     2008-06-10T12:13:00.97Z  
1213.3502   44001   43.1791  -70.4289  38.0     4.9    14.688     30.784     1012.0        378.383773    358.992843    nd            nd            16.200000     2008-06-10T12:13:21.01Z  
1213.6829   44021   43.1797  -70.4283  34.0     3.8    14.734     30.779     1012.0        377.453518    358.097723    nd            nd            16.200000     2008-06-10T12:13:40.97Z  
1214.0170   44041   43.1802  -70.4279  58.0     2.5    14.658     30.770     1012.0        376.705001    357.421430    nd            nd            16.200000     2008-06-10T12:14:01.02Z  
1214.3496   44061   43.1805  -70.4280  312.0    1.7    14.613     30.761     1012.0        376.146683    356.907247    nd            nd            16.200000     2008-06-10T12:14:20.98Z  
1214.6837   44081   43.1806  -70.4282  233.0    0.5    14.710     30.784     1012.0        375.585485    356.345357    nd            nd            16.200000     2008-06-10T12:14:41.02Z  
1215.0163   44101   43.1805  -70.4282  187.0    0.3    14.783     30.782     1012.0        375.216538    355.964169    nd            nd            16.200000     2008-06-10T12:15:00.98Z  
1215.3504   44121   43.1805  -70.4282  165.0    0.3    14.781     30.780     1012.0        375.332290    356.079810    nd            nd            16.200000     2008-06-10T12:15:21.02Z  
1215.6830   44141   43.1804  -70.4281  116.0    0.4    14.675     30.783     1012.0        375.576875    356.349113    nd            nd            16.200000     2008-06-10T12:15:40.98Z  
1216.0171   44161   43.1805  -70.4280  40.0     1.1    14.478     30.792     1012.0        375.191793    356.061842    nd            nd            16.200000     2008-06-10T12:16:01.03Z  
1216.3498   44181   43.1806  -70.4278  55.0     0.6    14.339     30.798     1012.0        373.592812    354.595491    nd            nd            16.200000     2008-06-10T12:16:20.99Z  
1216.6838   44201   43.1807  -70.4277  69.0     0.5    14.368     30.799     1012.0        371.709737    352.797854    nd            nd            16.200000     2008-06-10T12:16:41.03Z  
1217.0165   44221   43.1807  -70.4276  78.0     0.4    14.568     30.788     1012.0        370.295259    351.383622    nd            nd            16.200000     2008-06-10T12:17:00.99Z  
1217.3506   44241   43.1807  -70.4275  83.0     0.4    14.674     30.782     1012.0        370.629114    351.665404    nd            nd            16.200000     2008-06-10T12:17:21.04Z  
1217.6832   44261   43.1807  -70.4274  86.0     0.4    14.727     30.778     1012.0        371.935718    352.882028    nd            nd            16.200000     2008-06-10T12:17:40.99Z  
1218.0173   44281   43.1807  -70.4273  102.0    0.4    14.760     30.774     1012.0        372.828898    353.720770    nd            nd            16.200000     2008-06-10T12:18:01.04Z  
1218.3499   44301   43.1807  -70.4272  96.0     0.4    14.783     30.768     1012.1        373.727026    354.566801    nd            nd            16.200000     2008-06-10T12:18:20.99Z  
1218.6840   44321   43.1807  -70.4271  101.0    0.4    14.779     30.765     1012.0        374.569006    355.364606    nd            nd            16.200000     2008-06-10T12:18:41.04Z  
1219.0166   44341   43.1806  -70.4270  109.0    0.4    14.770     30.767     1012.1        374.968569    355.752708    nd            nd            16.200000     2008-06-10T12:19:01.00Z  
1219.3493   44361   43.1806  -70.4270  112.0    0.4    14.755     30.766     1012.1        375.416445    356.182519    nd            nd            16.200000     2008-06-10T12:19:20.96Z  
1219.6834   44381   43.1806  -70.4269  115.0    0.4    14.683     30.769     1012.1        375.442547    356.233977    nd            nd            16.200000     2008-06-10T12:19:41.00Z  
1220.0160   44401   43.1806  -70.4268  114.0    0.3    14.577     30.779     1012.1        375.284540    356.121899    nd            nd            16.200000     2008-06-10T12:20:00.96Z  
1220.3501   44421   43.1806  -70.4267  119.0    0.4    14.484     30.785     1012.1        374.458281    355.376762    nd            nd            16.200000     2008-06-10T12:20:21.01Z  
1220.6827   44441   43.1806  -70.4266  112.0    0.3    14.412     30.788     1012.1        373.296643    354.295997    nd            nd            16.200000     2008-06-10T12:20:40.96Z  
1221.0168   44461   43.1805  -70.4266  118.0    0.4    14.283     30.791     1012.1        371.983530    353.097403    nd            nd            16.200000     2008-06-10T12:21:01.01Z  
1221.3494   44481   43.1805  -70.4265  119.0    0.4    14.211     30.799     1012.1        370.553573    351.766930    nd            nd            16.200000     2008-06-10T12:21:20.96Z  
1221.6835   44501   43.1805  -70.4264  114.0    0.4    14.306     30.797     1012.1        368.607195    349.886031    nd            nd            16.200000     2008-06-10T12:21:41.01Z  
1222.0162   44521   43.1805  -70.4263  117.0    0.4    14.221     30.796     1012.1        367.785005    349.135992    nd            nd            16.200000     2008-06-10T12:22:00.97Z  
1222.3502   44541   43.1805  -70.4263  117.0    0.4    14.104     30.799     1012.1        367.010049    348.440804    nd            nd            16.200000     2008-06-10T12:22:21.01Z  
1222.6829   44561   43.1804  -70.4262  117.0    0.4    14.009     30.801     1012.1        365.927278    347.447287    nd            nd            16.200000     2008-06-10T12:22:40.97Z  
1223.0170   44581   43.1804  -70.4261  117.0    0.3    13.946     30.803     1012.1        364.632636    346.240642    nd            nd            16.200000     2008-06-10T12:23:01.02Z  
1223.3496   44601   43.1804  -70.4261  125.0    0.3    13.858     30.805     1012.0        363.309460    345.010910    nd            nd            16.200000     2008-06-10T12:23:20.98Z  
1223.6837   44621   43.1803  -70.4260  124.0    0.3    13.754     30.808     1012.0        362.261086    344.048737    nd            nd            16.200000     2008-06-10T12:23:41.02Z  
1224.0163   44641   43.1803  -70.4259  129.0    0.3    13.709     30.808     1012.0        360.707461    342.585016    nd            nd            16.200000     2008-06-10T12:24:00.98Z  
1224.3504   44661   43.1803  -70.4259  131.0    0.3    13.695     30.808     1012.0        359.479768    341.423227    nd            nd            16.200000     2008-06-10T12:24:21.02Z  
1224.6830   44681   43.1803  -70.4258  132.0    0.3    13.684     30.808     1012.0        358.473989    340.467326    nd            nd            16.200000     2008-06-10T12:24:40.98Z  
1225.0171   44701   43.1802  -70.4258  134.0    0.3    13.721     30.807     1012.0        357.657857    339.681082    nd            nd            16.200000     2008-06-10T12:25:01.03Z  
1225.3498   44721   43.1802  -70.4257  120.0    0.3    13.739     30.806     1012.0        357.203197    339.244706    nd            nd            16.200000     2008-06-10T12:25:20.99Z  
1225.6838   44741   43.1802  -70.4257  129.0    0.3    13.798     30.805     1012.0        357.075277    339.103282    nd            nd            16.200000     2008-06-10T12:25:41.03Z  
1226.0165   44761   43.1801  -70.4256  127.0    0.3    13.903     30.801     1012.0        357.244143    339.229212    nd            nd            16.200000     2008-06-10T12:26:00.99Z  
1226.3506   44781   43.1801  -70.4256  128.0    0.3    13.985     30.800     1012.0        358.087783    340.002837    nd            nd            16.200000     2008-06-10T12:26:21.04Z  
1226.6832   44801   43.1801  -70.4256  126.0    0.3    14.115     30.795     1012.0        359.246690    341.053655    nd            nd            16.200000     2008-06-10T12:26:40.99Z  
1227.0173   44821   43.1800  -70.4255  127.0    0.3    14.146     30.795     1012.0        360.712666    342.437456    nd            nd            16.200000     2008-06-10T12:27:01.04Z  
1227.3499   44841   43.1800  -70.4255  125.0    0.2    14.194     30.794     1012.0        361.784033    343.433361    nd            nd            16.200000     2008-06-10T12:27:20.99Z  
1227.6840   44861   43.1800  -70.4254  124.0    0.3    14.202     30.794     1012.0        362.876960    344.467600    nd            nd            16.200000     2008-06-10T12:27:41.04Z  
1228.0166   44881   43.1800  -70.4254  125.0    0.3    14.241     30.793     1012.0        363.526417    345.071003    nd            nd            16.200000     2008-06-10T12:28:01.00Z  
1228.3493   44901   43.1799  -70.4253  125.0    0.3    14.273     30.792     1012.0        364.074255    345.586289    nd            nd            16.200000     2008-06-10T12:28:20.96Z  
1228.6834   44921   43.1799  -70.4253  122.0    0.3    14.393     30.789     1012.0        364.756093    346.193491    nd            nd            16.200000     2008-06-10T12:28:41.00Z  
1229.0160   44941   43.1799  -70.4252  124.0    0.3    14.488     30.784     1012.1        365.520266    346.889163    nd            nd            16.200000     2008-06-10T12:29:00.96Z  
1229.3501   44961   43.1798  -70.4252  125.0    0.3    14.524     30.785     1012.1        366.971682    348.258442    nd            nd            16.200000     2008-06-10T12:29:21.01Z  
1229.6827   44981   43.1798  -70.4251  121.0    0.3    14.604     30.782     1012.1        368.046858    349.252934    nd            nd            16.200000     2008-06-10T12:29:40.96Z  
1230.0168   45001   43.1798  -70.4251  129.0    0.3    14.656     30.780     1012.1        369.278675    350.404685    nd            nd            16.200000     2008-06-10T12:30:01.01Z  
1230.3494   45021   43.1798  -70.4250  128.0    0.3    14.704     30.779     1012.1        370.450855    351.499181    nd            nd            16.200000     2008-06-10T12:30:20.96Z  
1230.6835   45041   43.1797  -70.4250  123.0    0.3    14.728     30.778     1012.1        371.481967    352.472595    nd            nd            16.200000     2008-06-10T12:30:41.01Z  
1231.0162   45061   43.1797  -70.4249  129.0    0.3    14.690     30.779     1012.1        372.459992    353.415887    nd            nd            16.200000     2008-06-10T12:31:00.97Z  
1231.3502   45081   43.1797  -70.4249  127.0    0.3    14.690     30.780     1012.1        372.793280    353.735002    nd            nd            16.200000     2008-06-10T12:31:21.01Z  
1231.6829   45101   43.1796  -70.4248  125.0    0.3    14.731     30.778     1012.1        372.977052    353.894103    nd            nd            16.200000     2008-06-10T12:31:40.97Z  
1232.0170   45121   43.1796  -70.4248  122.0    0.3    14.715     30.777     1012.1        373.445429    354.345908    nd            nd            16.200000     2008-06-10T12:32:01.02Z  
1232.3496   45141   43.1796  -70.4247  124.0    0.3    14.627     30.777     1012.1        373.769087    354.680122    nd            nd            16.200000     2008-06-10T12:32:20.98Z  
1232.6837   45161   43.1795  -70.4247  128.0    0.3    14.444     30.782     1012.1        373.420877    354.418561    nd            nd            16.200000     2008-06-10T12:32:41.02Z  
1233.0163   45181   43.1795  -70.4246  128.0    0.3    14.409     30.784     1012.1        372.384730    353.441985    nd            nd            16.200000     2008-06-10T12:33:00.98Z  
1233.3504   45201   43.1795  -70.4246  123.0    0.3    14.413     30.784     1012.1        370.911171    352.044135    nd            nd            16.200000     2008-06-10T12:33:21.02Z  
1233.6830   45221   43.1794  -70.4245  126.0    0.3    14.509     30.783     1012.1        370.130212    351.259583    nd            nd            16.200000     2008-06-10T12:33:40.98Z  
1234.0171   45241   43.1794  -70.4244  123.0    0.3    14.541     30.780     1012.1        369.971605    351.095054    nd            nd            16.200000     2008-06-10T12:34:01.03Z  
1234.3498   45261   43.1794  -70.4244  125.0    0.3    14.465     30.781     1012.0        370.239824    351.374351    nd            nd            16.200000     2008-06-10T12:34:20.99Z  
1234.6838   45281   43.1793  -70.4243  124.0    0.3    14.402     30.782     1012.1        369.973140    351.146114    nd            nd            16.200000     2008-06-10T12:34:41.03Z  
1235.0165   45301   43.1793  -70.4243  128.0    0.3    14.369     30.784     1012.0        369.406593    350.615652    nd            nd            16.200000     2008-06-10T12:35:00.99Z  
1235.3506   45321   43.1793  -70.4242  127.0    0.3    14.378     30.783     1012.0        368.837560    350.069370    nd            nd            16.200000     2008-06-10T12:35:21.04Z  
1235.6832   45341   43.1792  -70.4242  128.0    0.3    14.361     30.783     1012.0        368.332788    349.594724    nd            nd            16.200000     2008-06-10T12:35:40.99Z  
1236.0173   45361   43.1792  -70.4241  121.0    0.3    14.382     30.783     1012.0        367.907334    349.178397    nd            nd            16.200000     2008-06-10T12:36:01.04Z  
1236.3499   45381   43.1792  -70.4240  125.0    0.4    14.417     30.782     1012.0        367.830787    349.092318    nd            nd            16.200000     2008-06-10T12:36:20.99Z  
1236.6840   45401   43.1791  -70.4240  125.0    0.4    14.418     30.782     1012.0        367.986383    349.235368    nd            nd            16.200000     2008-06-10T12:36:41.04Z  
1237.0166   45421   43.1791  -70.4239  123.0    0.4    14.431     30.781     1012.0        368.266487    349.494210    nd            nd            16.200000     2008-06-10T12:37:01.00Z  
1237.3493   45441   43.1791  -70.4238  124.0    0.4    14.397     30.780     1012.0        368.364619    349.595303    nd            nd            16.200000     2008-06-10T12:37:20.96Z  
1237.6834   45461   43.1790  -70.4238  124.0    0.4    14.309     30.780     1012.0        368.331023    349.594544    nd            nd            16.200000     2008-06-10T12:37:41.00Z  
1238.0160   45481   43.1790  -70.4237  131.0    0.3    14.220     30.781     1012.0        367.645734    348.969730    nd            nd            16.200000     2008-06-10T12:38:00.96Z  
1238.3501   45501   43.1789  -70.4237  130.0    0.3    14.100     30.782     1012.0        366.793372    348.205134    nd            nd            16.200000     2008-06-10T12:38:21.01Z  
1238.6827   45521   43.1789  -70.4236  135.0    0.3    14.037     30.785     1011.9        365.411923    346.911516    nd            nd            16.200000     2008-06-10T12:38:40.96Z  
1239.0168   45541   43.1789  -70.4236  137.0    0.3    14.013     30.785     1012.0        364.050763    345.631596    nd            nd            16.200000     2008-06-10T12:39:01.01Z  
1239.3494   45561   43.1788  -70.4236  147.0    0.2    14.009     30.787     1012.0        363.073958    344.704377    nd            nd            16.200000     2008-06-10T12:39:20.96Z  
1239.6835   45581   43.1788  -70.4235  142.0    0.2    14.114     30.788     1012.0        362.270108    343.905415    nd            nd            16.200000     2008-06-10T12:39:41.01Z  
1240.0162   45601   43.1788  -70.4235  133.0    0.3    14.301     30.783     1012.0        362.163618    343.739519    nd            nd            16.200000     2008-06-10T12:40:00.97Z  
1240.3502   45621   43.1787  -70.4234  134.0    0.3    14.326     30.783     1012.0        363.487872    344.989150    nd            nd            16.200000     2008-06-10T12:40:21.01Z  
1240.6829   45641   43.1787  -70.4234  134.0    0.3    14.389     30.783     1012.0        364.584040    346.006359    nd            nd            16.200000     2008-06-10T12:40:40.97Z  
1241.0170   45661   43.1786  -70.4233  125.0    0.4    14.422     30.788     1012.0        365.519981    346.880144    nd            nd            16.200000     2008-06-10T12:41:01.02Z  
1241.3496   45681   43.1786  -70.4233  125.0    0.3    14.429     30.790     1012.0        366.369197    347.680816    nd            nd            16.200000     2008-06-10T12:41:20.98Z  
1241.6837   45701   43.1786  -70.4232  133.0    0.4    14.439     30.787     1012.0        367.002252    348.279360    nd            nd            16.200000     2008-06-10T12:41:41.02Z  
1242.0163   45721   43.1785  -70.4232  124.0    0.3    14.397     30.785     1012.0        367.448558    348.716617    nd            nd            16.200000     2008-06-10T12:42:00.98Z  
1242.3504   45741   43.1785  -70.4231  129.0    0.4    14.434     30.783     1012.0        367.620467    348.868559    nd            nd            16.200000     2008-06-10T12:42:21.02Z  
1242.6830   45761   43.1784  -70.4231  131.0    0.3    14.387     30.782     1012.0        367.891724    349.143178    nd            nd            16.200000     2008-06-10T12:42:40.98Z  
1243.0171   45781   43.1784  -70.4230  134.0    0.3    14.324     30.783     1012.0        367.977162    349.248215    nd            nd            16.200000     2008-06-10T12:43:01.03Z  
1243.3498   45801   43.1784  -70.4230  132.0    0.3    14.227     30.787     1012.0        367.498564    348.827165    nd            nd            16.200000     2008-06-10T12:43:20.99Z  
1243.6838   45821   43.1783  -70.4229  133.0    0.3    14.188     30.787     1012.0        366.695279    348.077467    nd            nd            16.200000     2008-06-10T12:43:41.03Z  
1244.0165   45841   43.1783  -70.4229  140.0    0.2    14.152     30.790     1011.9        365.903061    347.331844    nd            nd            16.200000     2008-06-10T12:44:00.99Z  
1244.3506   45861   43.1783  -70.4229  131.0    0.2    14.207     30.789     1011.9        365.070038    346.525547    nd            nd            16.200000     2008-06-10T12:44:21.04Z  
1244.6832   45881   43.1782  -70.4228  133.0    0.2    14.233     30.789     1011.9        364.867609    346.315851    nd            nd            16.200000     2008-06-10T12:44:40.99Z  
1245.0173   45901   43.1782  -70.4228  133.0    0.3    14.294     30.787     1011.9        365.109756    346.521365    nd            nd            16.200000     2008-06-10T12:45:01.04Z  
1245.3499   45921   43.1782  -70.4227  133.0    0.3    14.347     30.787     1011.9        365.575520    346.942590    nd            nd            16.200000     2008-06-10T12:45:20.99Z  
1245.6840   45941   43.1781  -70.4227  122.0    0.3    14.427     30.788     1011.9        366.061751    347.374924    nd            nd            16.200000     2008-06-10T12:45:41.04Z  
1246.0166   45961   43.1781  -70.4226  129.0    0.3    14.436     30.791     1011.9        366.911601    348.173579    nd            nd            16.200000     2008-06-10T12:46:01.00Z  
1246.3507   45981   43.1780  -70.4226  126.0    0.3    14.451     30.789     1011.9        367.681717    348.895123    nd            nd            16.200000     2008-06-10T12:46:21.04Z  
1246.6834   46001   43.1780  -70.4225  125.0    0.3    14.548     30.785     1011.9        368.087765    349.240520    nd            nd            16.200000     2008-06-10T12:46:41.00Z  
1247.0160   46021   43.1780  -70.4225  124.0    0.3    14.603     30.782     1011.9        368.964652    350.049611    nd            nd            16.200000     2008-06-10T12:47:00.96Z  
1247.3501   46041   43.1779  -70.4224  126.0    0.3    14.563     30.782     1011.8        369.917044    350.962559    nd            nd            16.200000     2008-06-10T12:47:21.01Z  
1247.6827   46061   43.1779  -70.4223  123.0    0.3    14.504     30.784     1011.8        370.519294    351.555940    nd            nd            16.200000     2008-06-10T12:47:40.96Z  
1248.0168   46081   43.1779  -70.4223  114.0    0.4    14.490     30.785     1011.9        370.464188    351.511984    nd            nd            16.200000     2008-06-10T12:48:01.01Z  
1248.3494   46101   43.1778  -70.4222  123.0    0.4    14.449     30.785     1011.9        370.262365    351.333844    nd            nd            16.200000     2008-06-10T12:48:20.96Z  
1248.6835   46121   43.1778  -70.4221  117.0    1.1    14.392     30.786     1011.8        370.007190    351.106781    nd            nd            16.200000     2008-06-10T12:48:41.01Z  
1249.0162   46141   43.1776  -70.4220  239.0    1.3    14.386     30.789     1011.8        369.340019    350.471843    nd            nd            16.200000     2008-06-10T12:49:00.97Z  
1249.3502   46161   43.1777  -70.4222  332.0    1.2    14.449     30.782     1011.8        368.755879    349.897544    nd            nd            16.200000     2008-06-10T12:49:21.01Z  
1249.6829   46181   43.1779  -70.4223  343.0    1.3    14.578     30.777     1011.8        368.597806    349.700632    nd            nd            16.200000     2008-06-10T12:49:40.97Z  
1250.0170   46201   43.1781  -70.4224  342.0    1.2    14.850     30.782     1011.8        369.437241    350.397997    nd            nd            16.200000     2008-06-10T12:50:01.02Z  
1250.3496   46221   43.1783  -70.4225  341.0    1.3    14.985     30.770     1011.8        371.846134    352.628020    nd            nd            16.200000     2008-06-10T12:50:20.98Z  
1250.6837   46241   43.1785  -70.4226  342.0    1.2    15.132     30.721     1011.8        374.398234    354.991925    nd            nd            16.200000     2008-06-10T12:50:41.02Z  
1251.0163   46261   43.1788  -70.4227  343.0    1.4    15.226     30.698     1011.8        377.026943    357.443144    nd            nd            16.200000     2008-06-10T12:51:00.98Z  
1251.3504   46281   43.1790  -70.4228  346.0    1.2    15.246     30.682     1011.8        379.353682    359.637056    nd            nd            16.200000     2008-06-10T12:51:21.02Z  
1251.6830   46301   43.1792  -70.4228  350.0    1.1    15.243     30.696     1011.8        380.980723    361.183543    nd            nd            16.200000     2008-06-10T12:51:40.98Z  
1252.0171   46321   43.1794  -70.4229  350.0    1.1    15.239     30.702     1011.8        382.076789    362.219128    nd            nd            16.200000     2008-06-10T12:52:01.03Z  
1252.3498   46341   43.1796  -70.4229  350.0    1.2    15.202     30.702     1011.8        382.977151    363.089321    nd            nd            16.200000     2008-06-10T12:52:20.99Z  
1252.6838   46361   43.1798  -70.4230  256.0    1.1    15.196     30.702     1011.8        383.532156    363.620674    nd            nd            16.200000     2008-06-10T12:52:41.03Z  
1253.0165   46381   43.1800  -70.4230  32.0     0.9    15.212     30.700     1011.8        383.874421    363.937272    nd            nd            16.200000     2008-06-10T12:53:00.99Z  
1253.3506   46401   43.1802  -70.4229  20.0     0.9    15.230     30.701     1011.8        384.061198    364.104237    nd            nd            16.200000     2008-06-10T12:53:21.04Z  
1253.6832   46421   43.1803  -70.4228  27.0     0.9    15.253     30.701     1011.8        384.540039    364.550299    nd            nd            16.200000     2008-06-10T12:53:40.99Z  
1254.0173   46441   43.1804  -70.4227  36.0     0.9    15.203     30.700     1011.8        384.921390    364.933518    nd            nd            16.200000     2008-06-10T12:54:01.04Z  
1254.3499   46461   43.1805  -70.4225  50.0     0.7    15.074     30.701     1011.8        385.065093    365.118887    nd            nd            16.200000     2008-06-10T12:54:20.99Z  
1254.6840   46481   43.1806  -70.4224  62.0     0.5    14.977     30.699     1011.8        385.070786    365.161117    nd            nd            16.200000     2008-06-10T12:54:41.04Z  
1255.0166   46501   43.1806  -70.4223  46.0     0.7    14.906     30.700     1011.8        384.515359    364.660108    nd            nd            16.200000     2008-06-10T12:55:01.00Z  
1255.3507   46521   43.1809  -70.4223  353.0    2.2    14.871     30.702     1011.8        383.930208    364.120155    nd            nd            16.200000     2008-06-10T12:55:21.04Z  
1255.6834   46541   43.1814  -70.4224  224.0    3.3    14.878     30.699     1011.8        383.426170    363.637829    nd            nd            16.200000     2008-06-10T12:55:41.00Z  
1256.0160   46561   43.1822  -70.4223  7.0      4.4    15.003     30.704     1011.8        382.825601    363.025445    nd            nd            16.200000     2008-06-10T12:56:00.96Z  
1256.3501   46581   43.1830  -70.4222  9.0      4.4    15.110     30.698     1011.8        382.501866    362.676319    nd            nd            16.200000     2008-06-10T12:56:21.01Z  
1256.6827   46601   43.1837  -70.4219  18.0     4.4    15.153     30.695     1011.8        383.112710    363.234791    nd            nd            16.200000     2008-06-10T12:56:40.96Z  
1257.0168   46621   43.1845  -70.4215  22.0     4.5    15.163     30.691     1011.8        383.881217    363.961169    nd            nd            16.200000     2008-06-10T12:57:01.01Z  
1257.3494   46641   43.1852  -70.4210  26.0     4.5    15.191     30.685     1011.8        384.443851    364.480659    nd            nd            16.200000     2008-06-10T12:57:20.96Z  
1257.6835   46661   43.1860  -70.4204  29.0     5.8    15.186     30.690     1011.8        384.791624    364.810579    nd            nd            16.200000     2008-06-10T12:57:41.01Z  
1258.0162   46681   43.1870  -70.4196  31.0     6.4    15.203     30.690     1011.8        385.141518    365.139899    nd            nd            16.200000     2008-06-10T12:58:00.97Z  
1258.3502   46701   43.1880  -70.4188  32.0     6.5    15.189     30.685     1011.8        385.501934    365.486048    nd            nd            16.200000     2008-06-10T12:58:21.01Z  
1258.6829   46721   43.1890  -70.4178  34.0     7.5    15.199     30.684     1011.8        385.657515    365.625119    nd            nd            16.200000     2008-06-10T12:58:40.97Z  
1259.0170   46741   43.1902  -70.4167  32.0     7.8    15.202     30.700     1011.8        385.883302    365.837831    nd            nd            16.200000     2008-06-10T12:59:01.02Z  
1259.3496   46761   43.1914  -70.4157  33.0     8.0    15.173     30.748     1011.8        386.479192    366.418551    nd            nd            16.200000     2008-06-10T12:59:20.98Z  
1259.6837   46781   43.1926  -70.4146  31.0     8.0    15.140     30.790     1011.8        387.102361    367.018120    nd            nd            16.200000     2008-06-10T12:59:41.02Z  
1300.0163   46801   43.1938  -70.4135  35.0     8.0    15.093     30.845     1011.8        387.690231    367.595923    nd            nd            16.505556     2008-06-10T13:00:00.98Z  
1300.3504   46821   43.1949  -70.4124  35.0     7.9    15.072     30.884     1011.8        387.895142    367.788766    nd            nd            16.700000     2008-06-10T13:00:21.02Z  
1300.6830   46841   43.1961  -70.4112  36.0     7.9    15.039     30.885     1011.7        388.414587    368.290234    nd            nd            16.700000     2008-06-10T13:00:40.98Z  
1301.0171   46861   43.1972  -70.4100  37.0     8.0    15.020     30.889     1011.8        389.072576    368.924069    nd            nd            16.700000     2008-06-10T13:01:01.03Z  
1301.3498   46881   43.1984  -70.4088  38.0     8.0    15.029     30.904     1011.7        389.900718    369.699094    nd            nd            16.700000     2008-06-10T13:01:20.99Z  
1301.6838   46901   43.1995  -70.4076  38.0     8.0    15.085     30.915     1011.7        390.650588    370.387860    nd            nd            16.700000     2008-06-10T13:01:41.03Z  
1302.0165   46921   43.2006  -70.4064  36.0     7.9    15.128     30.934     1011.7        391.395802    371.072889    nd            nd            16.700000     2008-06-10T13:02:00.99Z  
1302.3506   46941   43.2017  -70.4052  39.0     8.0    15.130     30.915     1011.7        391.969971    371.614247    nd            nd            16.700000     2008-06-10T13:02:21.04Z  
1302.6832   46961   43.2029  -70.4039  40.0     8.1    nd         nd         1011.7        nd            nd            nd            nd            16.700000     2008-06-10T13:02:40.99Z  
1303.0173   46981   43.2040  -70.4027  39.0     8.0    nd         nd         1011.7        nd            nd            nd            nd            16.700000     2008-06-10T13:03:01.04Z  
1303.3499   47001   43.2051  -70.4014  41.0     8.0    nd         nd         1011.7        nd            nd            nd            nd            16.700000     2008-06-10T13:03:20.99Z  
1303.6840   47021   43.2062  -70.4001  40.0     8.0    nd         nd         1011.7        nd            nd            nd            nd            16.700000     2008-06-10T13:03:41.04Z  
1304.0166   47041   43.2073  -70.3988  40.0     8.0    nd         nd         1011.7        nd            nd            nd            nd            16.700000     2008-06-10T13:04:01.00Z  
1304.3493   47061   43.2084  -70.3975  40.0     8.0    nd         nd         1011.7        nd            nd            nd            nd            16.700000     2008-06-10T13:04:20.96Z  
1304.6834   47081   43.2094  -70.3962  40.0     8.0    nd         nd         1011.7        nd            nd            nd            nd            16.700000     2008-06-10T13:04:41.00Z  
1305.0160   47101   43.2105  -70.3950  39.0     8.0    nd         nd         1011.8        nd            nd            nd            nd            16.700000     2008-06-10T13:05:00.96Z  
1305.3501   47121   43.2117  -70.3938  34.0     8.0    nd         nd         1011.8        nd            nd            nd            nd            16.700000     2008-06-10T13:05:21.01Z  
1305.6827   47141   43.2129  -70.3927  35.0     8.0    nd         nd         1011.7        nd            nd            nd            nd            16.700000     2008-06-10T13:05:40.96Z  
1306.0168   47161   43.2141  -70.3915  35.0     8.1    nd         nd         1011.7        nd            nd            nd            nd            16.700000     2008-06-10T13:06:01.01Z  
1306.3494   47181   43.2153  -70.3904  32.0     7.9    nd         nd         1011.7        nd            nd            nd            nd            16.700000     2008-06-10T13:06:20.96Z  
1306.6835   47201   43.2165  -70.3894  32.0     7.9    nd         nd         1011.7        nd            nd            nd            nd            16.700000     2008-06-10T13:06:41.01Z  
1307.0162   47221   43.2176  -70.3883  36.0     8.0    nd         nd         1011.7        nd            nd            nd            nd            16.700000     2008-06-10T13:07:00.97Z  
1307.3502   47241   43.2188  -70.3871  34.0     7.9    nd         nd         1011.7        nd            nd            nd            nd            16.700000     2008-06-10T13:07:21.01Z  
1307.6829   47261   43.2200  -70.3860  32.0     7.9    nd         nd         1011.7        nd            nd            nd            nd            16.700000     2008-06-10T13:07:40.97Z  
1308.0170   47281   43.2212  -70.3850  35.0     7.9    nd         nd         1011.7        nd            nd            nd            nd            16.700000     2008-06-10T13:08:01.02Z  
1308.3496   47301   43.2224  -70.3838  33.0     7.9    nd         nd         1011.7        nd            nd            nd            nd            16.700000     2008-06-10T13:08:20.98Z  
1308.6837   47321   43.2235  -70.3828  34.0     7.8    nd         nd         1011.7        nd            nd            nd            nd            16.700000     2008-06-10T13:08:41.02Z  
1309.0163   47341   43.2247  -70.3817  34.0     8.0    nd         nd         1011.7        nd            nd            nd            nd            16.700000     2008-06-10T13:09:00.98Z  
1309.3504   47361   43.2259  -70.3806  33.0     7.9    nd         nd         1011.7        nd            nd            nd            nd            16.700000     2008-06-10T13:09:21.02Z  
1309.6830   47381   43.2271  -70.3795  35.0     8.0    nd         nd         1011.7        nd            nd            nd            nd            16.700000     2008-06-10T13:09:40.98Z  
1310.0171   47401   43.2283  -70.3784  32.0     7.9    nd         nd         1011.7        nd            nd            nd            nd            16.700000     2008-06-10T13:10:01.03Z  
1310.3498   47421   43.2295  -70.3773  34.0     7.9    nd         nd         1011.7        nd            nd            nd            nd            16.700000     2008-06-10T13:10:20.99Z  
1310.6838   47441   43.2306  -70.3762  32.0     7.8    nd         nd         1011.7        nd            nd            nd            nd            16.700000     2008-06-10T13:10:41.03Z  
1311.0165   47461   43.2318  -70.3752  34.0     7.9    nd         nd         1011.7        nd            nd            nd            nd            16.700000     2008-06-10T13:11:00.99Z  
1311.3506   47481   43.2330  -70.3740  33.0     7.8    nd         nd         1011.7        nd            nd            nd            nd            16.700000     2008-06-10T13:11:21.04Z  
1311.6832   47501   43.2342  -70.3730  35.0     7.9    nd         nd         1011.7        nd            nd            nd            nd            16.700000     2008-06-10T13:11:40.99Z  
1312.0173   47521   43.2354  -70.3719  34.0     7.9    nd         nd         1011.6        nd            nd            nd            nd            16.700000     2008-06-10T13:12:01.04Z  
1312.3499   47541   43.2365  -70.3708  33.0     7.9    nd         nd         1011.6        nd            nd            nd            nd            16.700000     2008-06-10T13:12:20.99Z  
1312.6840   47561   43.2377  -70.3698  32.0     7.9    nd         nd         1011.6        nd            nd            nd            nd            16.700000     2008-06-10T13:12:41.04Z  
1313.0166   47581   43.2389  -70.3687  33.0     7.9    nd         nd         1011.6        nd            nd            nd            nd            16.700000     2008-06-10T13:13:01.00Z  
1313.3493   47601   43.2401  -70.3676  33.0     8.0    nd         nd         1011.6        nd            nd            nd            nd            16.700000     2008-06-10T13:13:20.96Z  
1313.6834   47621   43.2413  -70.3665  34.0     7.9    nd         nd         1011.6        nd            nd            nd            nd            16.700000     2008-06-10T13:13:41.00Z  
1314.0160   47641   43.2425  -70.3654  33.0     7.9    nd         nd         1011.6        nd            nd            nd            nd            16.700000     2008-06-10T13:14:00.96Z  
1314.3501   47661   43.2437  -70.3643  32.0     8.0    nd         nd         1011.6        nd            nd            nd            nd            16.700000     2008-06-10T13:14:21.01Z  
1314.6827   47681   43.2449  -70.3633  33.0     8.0    nd         nd         1011.6        nd            nd            nd            nd            16.700000     2008-06-10T13:14:40.96Z  
1315.0168   47701   43.2461  -70.3622  32.0     8.0    nd         nd         1011.6        nd            nd            nd            nd            16.700000     2008-06-10T13:15:01.01Z  
1315.3494   47721   43.2473  -70.3611  33.0     8.0    nd         nd         1011.6        nd            nd            nd            nd            16.700000     2008-06-10T13:15:20.96Z  
1315.6835   47741   43.2486  -70.3601  31.0     8.0    nd         nd         1011.6        nd            nd            nd            nd            16.700000     2008-06-10T13:15:41.01Z  
1316.0162   47761   43.2498  -70.3590  32.0     8.0    nd         nd         1011.6        nd            nd            nd            nd            16.700000     2008-06-10T13:16:00.97Z  
1316.3502   47781   43.2510  -70.3579  33.0     7.9    nd         nd         1011.6        nd            nd            nd            nd            16.700000     2008-06-10T13:16:21.01Z  
1316.6829   47801   43.2522  -70.3569  32.0     7.9    nd         nd         1011.6        nd            nd            nd            nd            16.700000     2008-06-10T13:16:40.97Z  
1317.0170   47821   43.2534  -70.3558  33.0     7.9    nd         nd         1011.6        nd            nd            nd            nd            16.700000     2008-06-10T13:17:01.02Z  
1317.3496   47841   43.2546  -70.3547  35.0     7.9    nd         nd         1011.6        nd            nd            nd            nd            16.700000     2008-06-10T13:17:20.98Z  
1317.6837   47861   43.2557  -70.3535  35.0     7.8    nd         nd         1011.6        nd            nd            nd            nd            16.700000     2008-06-10T13:17:41.02Z  
1318.0163   47881   43.2569  -70.3525  35.0     7.8    nd         nd         1011.6        nd            nd            nd            nd            16.700000     2008-06-10T13:18:00.98Z  
1318.3504   47901   43.2580  -70.3513  37.0     8.0    nd         nd         1011.6        nd            nd            nd            nd            16.700000     2008-06-10T13:18:21.02Z  
1318.6830   47921   43.2591  -70.3501  36.0     7.9    nd         nd         1011.6        nd            nd            nd            nd            16.700000     2008-06-10T13:18:40.98Z  
1319.0171   47941   43.2603  -70.3490  34.0     7.9    nd         nd         1011.6        nd            nd            nd            nd            16.700000     2008-06-10T13:19:01.03Z  
1319.3498   47961   43.2615  -70.3478  37.0     7.9    nd         nd         1011.7        nd            nd            nd            nd            16.700000     2008-06-10T13:19:20.99Z  
1319.6838   47981   43.2626  -70.3466  37.0     7.9    nd         nd         1011.6        nd            nd            nd            nd            16.700000     2008-06-10T13:19:41.03Z  
1320.0165   48001   43.2637  -70.3454  37.0     7.9    nd         nd         1011.6        nd            nd            nd            nd            16.700000     2008-06-10T13:20:00.99Z  
1320.3506   48021   43.2649  -70.3443  35.0     7.9    nd         nd         1011.6        nd            nd            nd            nd            16.700000     2008-06-10T13:20:21.04Z  
1320.6832   48041   43.2661  -70.3432  33.0     7.9    nd         nd         1011.6        nd            nd            nd            nd            16.700000     2008-06-10T13:20:40.99Z  
1321.0173   48061   43.2673  -70.3421  34.0     7.9    nd         nd         1011.7        nd            nd            nd            nd            16.700000     2008-06-10T13:21:01.04Z  
1321.3499   48081   43.2684  -70.3410  35.0     8.0    nd         nd         1011.7        nd            nd            nd            nd            16.700000     2008-06-10T13:21:20.99Z  
1321.6840   48101   43.2696  -70.3398  35.0     8.1    nd         nd         1011.7        nd            nd            nd            nd            16.700000     2008-06-10T13:21:41.04Z  
1322.0166   48121   43.2708  -70.3386  35.0     8.0    nd         nd         1011.7        nd            nd            nd            nd            16.700000     2008-06-10T13:22:01.00Z  
1322.3493   48141   43.2720  -70.3375  34.0     8.1    nd         nd         1011.7        nd            nd            nd            nd            16.700000     2008-06-10T13:22:20.96Z  
1322.6834   48161   43.2732  -70.3364  33.0     8.1    nd         nd         1011.7        nd            nd            nd            nd            16.700000     2008-06-10T13:22:41.00Z  
1323.0160   48181   43.2744  -70.3352  36.0     8.1    nd         nd         1011.7        nd            nd            nd            nd            16.700000     2008-06-10T13:23:00.96Z  
1323.3501   48201   43.2756  -70.3341  33.0     8.1    nd         nd         1011.7        nd            nd            nd            nd            16.700000     2008-06-10T13:23:21.01Z  
1323.6827   48221   43.2768  -70.3330  32.0     8.1    nd         nd         1011.7        nd            nd            nd            nd            16.700000     2008-06-10T13:23:40.96Z  
1324.0168   48241   43.2780  -70.3319  35.0     8.0    nd         nd         1011.7        nd            nd            nd            nd            16.700000     2008-06-10T13:24:01.01Z  
1324.3494   48261   43.2792  -70.3308  33.0     8.0    nd         nd         1011.7        nd            nd            nd            nd            16.700000     2008-06-10T13:24:20.96Z  
1324.6835   48281   43.2804  -70.3297  34.0     8.0    nd         nd         1011.7        nd            nd            nd            nd            16.700000     2008-06-10T13:24:41.01Z  
1325.0162   48301   43.2816  -70.3285  35.0     8.0    nd         nd         1011.7        nd            nd            nd            nd            16.700000     2008-06-10T13:25:00.97Z  
1325.3502   48321   43.2827  -70.3274  35.0     8.1    nd         nd         1011.7        nd            nd            nd            nd            16.700000     2008-06-10T13:25:21.01Z  
1325.6829   48341   43.2839  -70.3262  34.0     8.1    nd         nd         1011.7        nd            nd            nd            nd            16.700000     2008-06-10T13:25:40.97Z  
1326.0170   48361   43.2851  -70.3251  35.0     8.1    nd         nd         1011.7        nd            nd            nd            nd            16.700000     2008-06-10T13:26:01.02Z  
1326.3496   48381   43.2863  -70.3240  33.0     8.0    nd         nd         1011.7        nd            nd            nd            nd            16.700000     2008-06-10T13:26:20.98Z  
1326.6837   48401   43.2875  -70.3229  34.0     8.0    nd         nd         1011.7        nd            nd            nd            nd            16.700000     2008-06-10T13:26:41.02Z  
1327.0163   48421   43.2887  -70.3217  36.0     8.0    nd         nd         1011.7        nd            nd            nd            nd            16.700000     2008-06-10T13:27:00.98Z  
1327.3504   48441   43.2899  -70.3205  35.0     8.0    nd         nd         1011.7        nd            nd            nd            nd            16.700000     2008-06-10T13:27:21.02Z  
1327.6830   48461   43.2911  -70.3194  34.0     8.0    nd         nd         1011.7        nd            nd            nd            nd            16.700000     2008-06-10T13:27:40.98Z  
1328.0171   48481   43.2923  -70.3183  34.0     8.1    nd         nd         1011.7        nd            nd            nd            nd            16.700000     2008-06-10T13:28:01.03Z  
1328.3498   48501   43.2935  -70.3172  34.0     8.0    nd         nd         1011.7        nd            nd            nd            nd            16.700000     2008-06-10T13:28:20.99Z  
1328.6838   48521   43.2947  -70.3160  34.0     8.1    nd         nd         1011.7        nd            nd            nd            nd            16.700000     2008-06-10T13:28:41.03Z  
1329.0165   48541   43.2959  -70.3149  33.0     8.1    nd         nd         1011.7        nd            nd            nd            nd            16.700000     2008-06-10T13:29:00.99Z  
1329.3506   48561   43.2971  -70.3138  34.0     8.1    nd         nd         1011.7        nd            nd            nd            nd            16.700000     2008-06-10T13:29:21.04Z  
1329.6832   48581   43.2983  -70.3127  33.0     8.0    nd         nd         1011.7        nd            nd            nd            nd            16.700000     2008-06-10T13:29:40.99Z  
1330.0173   48601   43.2995  -70.3116  33.0     8.0    nd         nd         1011.7        nd            nd            nd            nd            16.700000     2008-06-10T13:30:01.04Z  
1330.3499   48621   43.3007  -70.3105  35.0     8.0    nd         nd         1011.7        nd            nd            nd            nd            16.700000     2008-06-10T13:30:20.99Z  
1330.6840   48641   43.3019  -70.3094  33.0     8.0    nd         nd         1011.7        nd            nd            nd            nd            16.700000     2008-06-10T13:30:41.04Z  
1331.0166   48661   43.3031  -70.3082  34.0     8.1    nd         nd         1011.7        nd            nd            nd            nd            16.700000     2008-06-10T13:31:01.00Z  
1331.3507   48681   43.3043  -70.3071  35.0     8.1    nd         nd         1011.7        nd            nd            nd            nd            16.700000     2008-06-10T13:31:21.04Z  
1331.6834   48701   43.3055  -70.3060  34.0     8.1    nd         nd         1011.7        nd            nd            nd            nd            16.700000     2008-06-10T13:31:41.00Z  
1332.0160   48721   43.3067  -70.3048  36.0     8.1    nd         nd         1011.7        nd            nd            nd            nd            16.700000     2008-06-10T13:32:00.96Z  
1332.3501   48741   43.3079  -70.3036  36.0     8.2    nd         nd         1011.7        nd            nd            nd            nd            16.700000     2008-06-10T13:32:21.01Z  
1332.6827   48761   43.3091  -70.3025  33.0     8.1    nd         nd         1011.7        nd            nd            nd            nd            16.700000     2008-06-10T13:32:40.96Z  
1333.0168   48781   43.3103  -70.3013  35.0     8.0    nd         nd         1011.7        nd            nd            nd            nd            16.700000     2008-06-10T13:33:01.01Z  
1333.3494   48801   43.3115  -70.3002  34.0     8.1    nd         nd         1011.7        nd            nd            nd            nd            16.700000     2008-06-10T13:33:20.96Z  
1333.6835   48821   43.3127  -70.2991  34.0     8.1    nd         nd         1011.7        nd            nd            nd            nd            16.700000     2008-06-10T13:33:41.01Z  
1334.0162   48841   43.3139  -70.2979  34.0     8.1    nd         nd         1011.7        nd            nd            nd            nd            16.700000     2008-06-10T13:34:00.97Z  
1334.3502   48861   43.3151  -70.2968  34.0     8.1    nd         nd         1011.7        nd            nd            nd            nd            16.700000     2008-06-10T13:34:21.01Z  
1334.6829   48881   43.3163  -70.2956  35.0     8.1    nd         nd         1011.7        nd            nd            nd            nd            16.700000     2008-06-10T13:34:40.97Z  
1335.0170   48901   43.3175  -70.2945  34.0     8.2    nd         nd         1011.7        nd            nd            nd            nd            16.700000     2008-06-10T13:35:01.02Z  
1335.3496   48921   43.3187  -70.2934  34.0     8.1    nd         nd         1011.8        nd            nd            nd            nd            16.700000     2008-06-10T13:35:20.98Z  
1335.6837   48941   43.3199  -70.2922  35.0     8.1    nd         nd         1011.8        nd            nd            nd            nd            16.700000     2008-06-10T13:35:41.02Z  
1336.0163   48961   43.3211  -70.2911  33.0     8.0    nd         nd         1011.8        nd            nd            nd            nd            16.700000     2008-06-10T13:36:00.98Z  
1336.3504   48981   43.3223  -70.2900  33.0     8.2    nd         nd         1011.8        nd            nd            nd            nd            16.700000     2008-06-10T13:36:21.02Z  
1336.6830   49001   43.3235  -70.2889  32.0     8.1    nd         nd         1011.8        nd            nd            nd            nd            16.700000     2008-06-10T13:36:40.98Z  
1337.0171   49021   43.3248  -70.2878  33.0     8.0    nd         nd         1011.8        nd            nd            nd            nd            16.700000     2008-06-10T13:37:01.03Z  
1337.3498   49041   43.3260  -70.2867  33.0     8.1    nd         nd         1011.8        nd            nd            nd            nd            16.700000     2008-06-10T13:37:20.99Z  
1337.6838   49061   43.3272  -70.2856  34.0     8.1    nd         nd         1011.8        nd            nd            nd            nd            16.700000     2008-06-10T13:37:41.03Z  
1338.0165   49081   43.3284  -70.2844  35.0     8.1    nd         nd         1011.8        nd            nd            nd            nd            16.700000     2008-06-10T13:38:00.99Z  
1338.3506   49101   43.3296  -70.2833  33.0     8.1    nd         nd         1011.8        nd            nd            nd            nd            16.700000     2008-06-10T13:38:21.04Z  
1338.6832   49121   43.3308  -70.2822  32.0     8.0    nd         nd         1011.8        nd            nd            nd            nd            16.700000     2008-06-10T13:38:40.99Z  
1339.0173   49141   43.3320  -70.2811  33.0     8.1    nd         nd         1011.8        nd            nd            nd            nd            16.700000     2008-06-10T13:39:01.04Z  
1339.3499   49161   43.3332  -70.2800  34.0     8.1    nd         nd         1011.8        nd            nd            nd            nd            16.700000     2008-06-10T13:39:20.99Z  
1339.6840   49181   43.3344  -70.2788  37.0     8.1    nd         nd         1011.8        nd            nd            nd            nd            16.700000     2008-06-10T13:39:41.04Z  
1340.0166   49201   43.3356  -70.2776  36.0     8.0    nd         nd         1011.8        nd            nd            nd            nd            16.700000     2008-06-10T13:40:01.00Z  
1340.3507   49221   43.3368  -70.2764  37.0     8.1    nd         nd         1011.8        nd            nd            nd            nd            16.700000     2008-06-10T13:40:21.04Z  
1340.6834   49241   43.3379  -70.2752  36.0     7.7    nd         nd         1011.9        nd            nd            nd            nd            16.700000     2008-06-10T13:40:41.00Z  
1341.0160   49261   43.3386  -70.2745  30.0     2.8    nd         nd         1011.9        nd            nd            nd            nd            16.700000     2008-06-10T13:41:00.96Z  
1341.3501   49281   43.3389  -70.2743  36.0     1.1    nd         nd         1011.9        nd            nd            nd            nd            16.700000     2008-06-10T13:41:21.01Z  
1341.6827   49301   43.3390  -70.2741  48.0     0.8    nd         nd         1012.0        nd            nd            nd            nd            16.700000     2008-06-10T13:41:40.96Z  
1342.0168   49321   43.3391  -70.2738  87.0     2.0    nd         nd         1012.0        nd            nd            nd            nd            16.700000     2008-06-10T13:42:01.01Z  
1342.3494   49341   43.3389  -70.2733  121.0    2.1    nd         nd         1012.0        nd            nd            nd            nd            16.700000     2008-06-10T13:42:20.96Z  
1342.6835   49361   43.3387  -70.2730  149.0    1.8    nd         nd         1012.0        nd            nd            nd            nd            16.700000     2008-06-10T13:42:41.01Z  
1343.0162   49381   43.3383  -70.2729  186.0    2.1    nd         nd         1012.0        nd            nd            nd            nd            16.700000     2008-06-10T13:43:00.97Z  
1343.3502   49401   43.3380  -70.2731  209.0    1.7    nd         nd         1012.0        nd            nd            nd            nd            16.700000     2008-06-10T13:43:21.01Z  
1343.6829   49421   43.3378  -70.2733  212.0    1.0    nd         nd         1012.0        nd            nd            nd            nd            16.700000     2008-06-10T13:43:40.97Z  
1344.0170   49441   43.3377  -70.2734  209.0    0.9    nd         nd         1012.0        nd            nd            nd            nd            16.700000     2008-06-10T13:44:01.02Z  
1344.3496   49461   43.3375  -70.2735  203.0    0.7    nd         nd         1012.0        nd            nd            nd            nd            16.700000     2008-06-10T13:44:20.98Z  
1344.6837   49481   43.3374  -70.2736  212.0    1.3    nd         nd         1012.0        nd            nd            nd            nd            16.700000     2008-06-10T13:44:41.02Z  
1345.0163   49501   43.3373  -70.2737  173.0    0.1    nd         nd         1012.1        nd            nd            nd            nd            16.700000     2008-06-10T13:45:00.98Z  
1345.3504   49521   43.3373  -70.2736  236.0    0.1    nd         nd         1012.0        nd            nd            nd            nd            16.700000     2008-06-10T13:45:21.02Z  
1345.6830   49541   43.3373  -70.2737  243.0    0.3    nd         nd         1012.0        nd            nd            nd            nd            16.700000     2008-06-10T13:45:40.98Z  
1346.0171   49561   43.3375  -70.2737  102.0    0.9    nd         nd         1012.1        nd            nd            nd            nd            16.700000     2008-06-10T13:46:01.03Z  
1346.3498   49581   43.3376  -70.2737  226.0    0.4    nd         nd         1012.0        nd            nd            nd            nd            16.700000     2008-06-10T13:46:20.99Z  
1346.6838   49601   43.3376  -70.2737  179.0    0.1    nd         nd         1012.0        nd            nd            nd            nd            16.700000     2008-06-10T13:46:41.03Z  
1347.0165   49621   43.3376  -70.2736  105.0    0.5    nd         nd         1012.0        nd            nd            nd            nd            16.700000     2008-06-10T13:47:00.99Z  
1347.3506   49641   43.3378  -70.2734  44.0     2.5    nd         nd         1012.0        nd            nd            nd            nd            16.700000     2008-06-10T13:47:21.04Z  
1347.6832   49661   43.3382  -70.2725  57.0     5.1    nd         nd         1012.0        nd            nd            nd            nd            16.700000     2008-06-10T13:47:40.99Z  
1348.0173   49681   43.3389  -70.2715  44.0     5.9    nd         nd         1012.0        nd            nd            nd            nd            16.700000     2008-06-10T13:48:01.04Z  
1348.3499   49701   43.3398  -70.2705  36.0     6.4    nd         nd         1012.0        nd            nd            nd            nd            16.700000     2008-06-10T13:48:20.99Z  
1348.6840   49721   43.3408  -70.2698  18.0     6.4    nd         nd         1012.0        nd            nd            nd            nd            16.700000     2008-06-10T13:48:41.04Z  
1349.0166   49741   43.3419  -70.2694  13.0     6.7    nd         nd         1011.9        nd            nd            nd            nd            16.700000     2008-06-10T13:49:01.00Z  
1349.3493   49761   43.3431  -70.2689  18.0     6.9    nd         nd         1011.9        nd            nd            nd            nd            16.700000     2008-06-10T13:49:20.96Z  
1349.6834   49781   43.3443  -70.2684  18.0     7.2    nd         nd         1011.9        nd            nd            nd            nd            16.700000     2008-06-10T13:49:41.00Z  
1350.0160   49801   43.3456  -70.2677  20.0     7.7    nd         nd         1011.8        nd            nd            nd            nd            16.700000     2008-06-10T13:50:00.96Z  
1350.3501   49821   43.3469  -70.2670  21.0     7.7    nd         nd         1011.8        nd            nd            nd            nd            16.700000     2008-06-10T13:50:21.01Z  
1350.6827   49841   43.3481  -70.2662  29.0     7.7    nd         nd         1011.8        nd            nd            nd            nd            16.700000     2008-06-10T13:50:40.96Z  
1351.0168   49861   43.3493  -70.2652  31.0     7.6    nd         nd         1011.8        nd            nd            nd            nd            16.700000     2008-06-10T13:51:01.01Z  
1351.3494   49881   43.3505  -70.2643  32.0     7.6    nd         nd         1011.8        nd            nd            nd            nd            16.700000     2008-06-10T13:51:20.96Z  
1351.6835   49901   43.3516  -70.2632  34.0     7.8    nd         nd         1011.8        nd            nd            nd            nd            16.700000     2008-06-10T13:51:41.01Z  
1352.0162   49921   43.3528  -70.2621  34.0     7.9    nd         nd         1011.8        nd            nd            nd            nd            16.700000     2008-06-10T13:52:00.97Z  
1352.3502   49941   43.3540  -70.2610  35.0     7.8    nd         nd         1011.8        nd            nd            nd            nd            16.700000     2008-06-10T13:52:21.01Z  
1352.6829   49961   43.3551  -70.2599  32.0     7.8    nd         nd         1011.8        nd            nd            nd            nd            16.700000     2008-06-10T13:52:40.97Z  
1353.0170   49981   43.3563  -70.2588  34.0     7.8    nd         nd         1011.8        nd            nd            nd            nd            16.700000     2008-06-10T13:53:01.02Z  
1353.3496   50001   43.3574  -70.2577  39.0     7.9    nd         nd         1011.8        nd            nd            nd            nd            16.700000     2008-06-10T13:53:20.98Z  
1353.6837   50021   43.3585  -70.2564  40.0     8.0    nd         nd         1011.8        nd            nd            nd            nd            16.700000     2008-06-10T13:53:41.02Z  
1354.0163   50041   43.3597  -70.2551  39.0     8.2    nd         nd         1011.8        nd            nd            nd            nd            16.700000     2008-06-10T13:54:00.98Z  
1354.3504   50061   43.3608  -70.2538  40.0     8.2    nd         nd         1011.8        nd            nd            nd            nd            16.700000     2008-06-10T13:54:21.02Z  
1354.6830   50081   43.3619  -70.2525  35.0     8.2    nd         nd         1011.8        nd            nd            nd            nd            16.700000     2008-06-10T13:54:40.98Z  
1355.0171   50101   43.3632  -70.2514  32.0     8.2    nd         nd         1011.8        nd            nd            nd            nd            16.700000     2008-06-10T13:55:01.03Z  
1355.3498   50121   43.3644  -70.2503  33.0     8.2    nd         nd         1011.8        nd            nd            nd            nd            16.700000     2008-06-10T13:55:20.99Z  
1355.6838   50141   43.3656  -70.2492  35.0     8.2    nd         nd         1011.8        nd            nd            nd            nd            16.700000     2008-06-10T13:55:41.03Z  
1356.0165   50161   43.3668  -70.2480  35.0     8.2    nd         nd         1011.8        nd            nd            nd            nd            16.700000     2008-06-10T13:56:00.99Z  
1356.3506   50181   43.3680  -70.2468  34.0     8.1    nd         nd         1011.8        nd            nd            nd            nd            16.700000     2008-06-10T13:56:21.04Z  
1356.6832   50201   43.3693  -70.2457  34.0     8.1    nd         nd         1011.8        nd            nd            nd            nd            16.700000     2008-06-10T13:56:40.99Z  
1357.0173   50221   43.3705  -70.2445  36.0     8.1    nd         nd         1011.8        nd            nd            nd            nd            16.700000     2008-06-10T13:57:01.04Z  
1357.3499   50241   43.3716  -70.2433  35.0     8.1    nd         nd         1011.8        nd            nd            nd            nd            16.700000     2008-06-10T13:57:20.99Z  
1357.6840   50261   43.3728  -70.2422  35.0     8.1    nd         nd         1011.8        nd            nd            nd            nd            16.700000     2008-06-10T13:57:41.04Z  
1358.0166   50281   43.3740  -70.2410  36.0     8.2    nd         nd         1011.8        nd            nd            nd            nd            16.700000     2008-06-10T13:58:01.00Z  
1358.3493   50301   43.3752  -70.2398  35.0     8.2    nd         nd         1011.8        nd            nd            nd            nd            16.700000     2008-06-10T13:58:20.96Z  
1358.6834   50321   43.3764  -70.2386  35.0     8.2    nd         nd         1011.8        nd            nd            nd            nd            16.700000     2008-06-10T13:58:41.00Z  
1359.0160   50341   43.3777  -70.2374  33.0     8.2    nd         nd         1011.8        nd            nd            nd            nd            16.700000     2008-06-10T13:59:00.96Z  
1359.3501   50361   43.3789  -70.2363  35.0     8.2    nd         nd         1011.9        nd            nd            nd            nd            16.700000     2008-06-10T13:59:21.01Z  
1359.6827   50381   43.3801  -70.2351  34.0     8.3    nd         nd         1011.9        nd            nd            nd            nd            16.700000     2008-06-10T13:59:40.96Z  
1400.0168   50401   43.3814  -70.2339  34.0     8.3    nd         nd         1011.9        nd            nd            nd            nd            18.166667     2008-06-10T14:00:01.01Z  
1400.3494   50421   43.3826  -70.2328  35.0     8.3    nd         nd         1011.9        nd            nd            nd            nd            19.100000     2008-06-10T14:00:20.96Z  
1400.6835   50441   43.3838  -70.2316  34.0     8.3    nd         nd         1011.9        nd            nd            nd            nd            19.100000     2008-06-10T14:00:41.01Z  
1401.0162   50461   43.3850  -70.2304  34.0     8.3    14.822     31.384     1011.9        nd            nd            nd            nd            19.100000     2008-06-10T14:01:00.97Z  
1401.3502   50481   43.3863  -70.2293  34.0     8.2    14.745     31.383     1011.9        nd            nd            nd            nd            19.100000     2008-06-10T14:01:21.01Z  
1401.6829   50501   43.3875  -70.2281  36.0     8.2    14.756     31.396     1011.9        nd            nd            nd            nd            19.100000     2008-06-10T14:01:40.97Z  
1402.0170   50521   43.3887  -70.2269  34.0     8.3    14.803     31.399     1011.9        nd            nd            nd            nd            19.100000     2008-06-10T14:02:01.02Z  
1402.3496   50541   43.3899  -70.2257  33.0     8.2    14.722     31.397     1011.9        nd            nd            nd            nd            19.100000     2008-06-10T14:02:20.98Z  
1402.6837   50561   43.3912  -70.2246  33.0     8.2    14.649     31.400     1011.9        nd            nd            nd            nd            19.100000     2008-06-10T14:02:41.02Z  
1403.0163   50581   43.3924  -70.2235  34.0     8.2    14.634     31.395     1011.9        nd            nd            nd            nd            19.100000     2008-06-10T14:03:00.98Z  
1403.3504   50601   43.3936  -70.2223  34.0     8.2    14.673     31.388     1011.9        377.656474    358.295201    nd            nd            19.100000     2008-06-10T14:03:21.02Z  
1403.6830   50621   43.3948  -70.2212  34.0     8.2    14.692     31.386     1011.9        377.583533    358.212607    nd            nd            19.100000     2008-06-10T14:03:40.98Z  
1404.0171   50641   43.3960  -70.2200  32.0     8.2    14.694     31.385     1011.9        376.874863    357.544238    nd            nd            19.100000     2008-06-10T14:04:01.03Z  
1404.3498   50661   43.3973  -70.2189  33.0     8.2    14.699     31.400     1011.9        376.518361    357.205420    nd            nd            19.100000     2008-06-10T14:04:20.99Z  
1404.6838   50681   43.3985  -70.2178  34.0     8.2    14.851     31.398     1011.9        376.245276    356.891249    nd            nd            19.100000     2008-06-10T14:04:41.03Z  
1405.0165   50701   43.3997  -70.2166  35.0     8.2    14.851     31.395     1011.9        376.633628    357.263784    nd            nd            19.100000     2008-06-10T14:05:00.99Z  
1405.3506   50721   43.4009  -70.2155  34.0     8.3    14.797     31.396     1012.0        377.455163    358.066666    nd            nd            19.100000     2008-06-10T14:05:21.04Z  
1405.6832   50741   43.4022  -70.2143  33.0     8.3    14.753     31.393     1012.0        377.336307    357.971616    nd            nd            19.100000     2008-06-10T14:05:40.99Z  
1406.0173   50761   43.4034  -70.2132  33.0     8.1    14.759     31.401     1011.9        377.151518    357.790159    nd            nd            19.100000     2008-06-10T14:06:01.04Z  
1406.3499   50781   43.4046  -70.2121  36.0     8.2    14.804     31.400     1011.9        377.032719    357.654222    nd            nd            19.100000     2008-06-10T14:06:20.99Z  
1406.6840   50801   43.4059  -70.2109  33.0     8.2    14.790     31.403     1011.9        377.313097    357.918146    nd            nd            19.100000     2008-06-10T14:06:41.04Z  
1407.0166   50821   43.4071  -70.2098  33.0     8.1    14.794     31.406     1011.9        377.374393    357.975097    nd            nd            19.100000     2008-06-10T14:07:01.00Z  
1407.3493   50841   43.4083  -70.2087  33.0     8.1    14.804     31.408     1011.9        377.203341    357.807080    nd            nd            19.100000     2008-06-10T14:07:20.96Z  
1407.6834   50861   43.4095  -70.2076  35.0     8.2    14.823     31.413     1011.9        377.030305    357.634715    nd            nd            19.100000     2008-06-10T14:07:41.00Z  
1408.0160   50881   43.4108  -70.2064  32.0     8.2    14.892     31.419     1011.9        377.128151    357.705589    nd            nd            19.100000     2008-06-10T14:08:00.96Z  
1408.3501   50901   43.4120  -70.2053  34.0     8.1    14.973     31.445     1011.9        378.072616    358.571251    nd            nd            19.100000     2008-06-10T14:08:21.01Z  
1408.6827   50921   43.4132  -70.2041  35.0     8.2    15.041     31.452     1011.9        379.094993    359.516204    nd            nd            19.100000     2008-06-10T14:08:40.96Z  
1409.0168   50941   43.4144  -70.2029  37.0     8.3    15.117     31.453     1011.9        380.764655    361.068680    nd            nd            19.100000     2008-06-10T14:09:01.01Z  
1409.3494   50961   43.4156  -70.2017  35.0     8.2    14.982     31.444     1011.9        382.367112    362.644749    nd            nd            19.100000     2008-06-10T14:09:20.96Z  
1409.6835   50981   43.4168  -70.2005  35.0     8.2    14.948     31.457     1011.9        383.261917    363.504495    nd            nd            19.100000     2008-06-10T14:09:41.01Z  
1410.0162   51001   43.4180  -70.1994  35.0     8.2    15.040     31.452     1011.9        383.313482    363.520606    nd            nd            19.100000     2008-06-10T14:10:00.97Z  
1410.3502   51021   43.4192  -70.1982  36.0     8.3    15.008     31.452     1011.9        384.509309    364.667329    nd            nd            19.100000     2008-06-10T14:10:21.01Z  
1410.6829   51041   43.4204  -70.1970  35.0     8.2    15.031     31.452     1011.9        385.665045    365.748743    nd            nd            19.100000     2008-06-10T14:10:40.97Z  
1411.0170   51061   43.4216  -70.1958  34.0     8.1    15.053     31.449     1011.9        386.647198    366.669585    nd            nd            19.100000     2008-06-10T14:11:01.02Z  
1411.3496   51081   43.4228  -70.1947  34.0     8.1    15.004     31.444     1011.9        387.775615    367.755926    nd            nd            19.100000     2008-06-10T14:11:20.98Z  
1411.6837   51101   43.4241  -70.1935  33.0     8.2    15.013     31.446     1011.9        388.413968    368.353020    nd            nd            19.100000     2008-06-10T14:11:41.02Z  
1412.0163   51121   43.4253  -70.1924  35.0     8.2    14.881     31.438     1011.9        388.555986    368.536305    nd            nd            19.100000     2008-06-10T14:12:00.98Z  
1412.3504   51141   43.4265  -70.1912  34.0     8.2    14.685     31.439     1011.9        387.946513    368.034840    nd            nd            19.100000     2008-06-10T14:12:21.02Z  
1412.6830   51161   43.4277  -70.1901  34.0     8.2    14.647     31.441     1011.9        386.121909    366.320602    nd            nd            19.100000     2008-06-10T14:12:40.98Z  
1413.0171   51181   43.4290  -70.1889  36.0     8.3    14.746     31.441     1011.9        384.377777    364.631558    nd            nd            19.100000     2008-06-10T14:13:01.03Z  
1413.3498   51201   43.4302  -70.1877  35.0     8.3    14.804     31.437     1011.9        384.252695    364.486293    nd            nd            19.100000     2008-06-10T14:13:20.99Z  
1413.6838   51221   43.4314  -70.1865  34.0     8.2    14.869     31.438     1011.9        385.401935    365.544908    nd            nd            19.100000     2008-06-10T14:13:41.03Z  
1414.0165   51241   43.4326  -70.1854  34.0     8.2    14.970     31.431     1011.8        386.777902    366.803111    nd            nd            19.100000     2008-06-10T14:14:00.99Z  
1414.3506   51261   43.4338  -70.1842  35.0     8.1    14.873     31.399     1011.8        388.681776    368.641783    nd            nd            19.100000     2008-06-10T14:14:21.04Z  
1414.6832   51281   43.4350  -70.1830  37.0     8.2    14.707     31.379     1011.8        390.719484    370.638945    nd            nd            19.100000     2008-06-10T14:14:40.99Z  
1415.0173   51301   43.4362  -70.1818  35.0     8.1    14.573     31.356     1011.8        391.649062    371.575290    nd            nd            19.100000     2008-06-10T14:15:01.04Z  
1415.3499   51321   43.4374  -70.1806  34.0     8.2    14.473     31.278     1011.8        391.452764    371.421033    nd            nd            19.100000     2008-06-10T14:15:20.99Z  
1415.6840   51341   43.4386  -70.1795  34.0     8.2    14.260     31.211     1011.8        390.284560    370.391874    nd            nd            19.100000     2008-06-10T14:15:41.04Z  
1416.0166   51361   43.4398  -70.1783  34.0     8.2    14.109     31.198     1011.8        387.763166    368.051237    nd            nd            19.100000     2008-06-10T14:16:01.00Z  
1416.3507   51381   43.4411  -70.1772  34.0     8.2    14.135     31.185     1011.8        384.182509    364.637636    nd            nd            19.100000     2008-06-10T14:16:21.04Z  
1416.6834   51401   43.4423  -70.1760  33.0     8.2    14.120     31.183     1011.8        381.496391    362.097556    nd            nd            19.100000     2008-06-10T14:16:41.00Z  
1417.0160   51421   43.4435  -70.1749  33.0     8.2    14.080     31.184     1011.8        379.726573    360.426251    nd            nd            19.100000     2008-06-10T14:17:00.96Z  
1417.3501   51441   43.4448  -70.1738  34.0     8.2    14.175     31.180     1011.8        377.749659    358.513106    nd            nd            19.100000     2008-06-10T14:17:21.01Z  
1417.6827   51461   43.4460  -70.1726  34.0     8.3    14.190     31.208     1011.8        376.742556    357.551055    nd            nd            19.100000     2008-06-10T14:17:40.96Z  
1418.0168   51481   43.4472  -70.1714  35.0     8.3    14.123     31.221     1011.8        376.616628    357.448628    nd            nd            19.100000     2008-06-10T14:18:01.01Z  
1418.3494   51501   43.4484  -70.1703  34.0     8.1    14.227     31.197     1011.7        376.365310    357.168817    nd            nd            19.100000     2008-06-10T14:18:20.96Z  
1418.6835   51521   43.4497  -70.1691  34.0     8.2    14.229     31.212     1011.7        376.438046    357.224883    nd            nd            19.100000     2008-06-10T14:18:41.01Z  
1419.0162   51541   43.4509  -70.1680  34.0     8.2    14.107     31.218     1011.7        376.418097    357.249281    nd            nd            19.100000     2008-06-10T14:19:00.97Z  
1419.3502   51561   43.4521  -70.1668  34.0     8.2    14.159     31.182     1011.7        375.308538    356.172988    nd            nd            19.100000     2008-06-10T14:19:21.01Z  
1419.6829   51581   43.4533  -70.1656  36.0     8.3    14.168     31.171     1011.7        374.317199    355.229267    nd            nd            19.100000     2008-06-10T14:19:40.97Z  
1420.0170   51601   43.4545  -70.1645  34.0     8.2    14.157     31.169     1011.7        373.797582    354.748136    nd            nd            19.100000     2008-06-10T14:20:01.02Z  
1420.3496   51621   43.4557  -70.1633  33.0     8.2    14.141     31.157     1011.7        372.985427    353.986416    nd            nd            19.100000     2008-06-10T14:20:20.98Z  
1420.6837   51641   43.4570  -70.1621  36.0     8.2    14.085     31.157     1011.7        372.281358    353.341248    nd            nd            19.100000     2008-06-10T14:20:41.02Z  
1421.0163   51661   43.4582  -70.1610  34.0     8.2    13.931     31.192     1011.8        371.328233    352.500872    nd            nd            19.100000     2008-06-10T14:21:00.98Z  
1421.3504   51681   43.4594  -70.1598  34.0     8.2    13.812     31.205     1011.8        370.079546    351.367627    nd            nd            19.100000     2008-06-10T14:21:21.02Z  
1421.6830   51701   43.4606  -70.1586  34.0     8.2    13.785     31.189     1011.8        368.402717    349.795673    nd            nd            19.100000     2008-06-10T14:21:40.98Z  
1422.0171   51721   43.4618  -70.1574  35.0     8.2    13.865     31.162     1011.8        366.885789    348.332985    nd            nd            19.100000     2008-06-10T14:22:01.03Z  
1422.3498   51741   43.4630  -70.1562  35.0     8.3    13.988     31.152     1011.9        366.554384    347.984141    nd            nd            19.100000     2008-06-10T14:22:20.99Z  
1422.6838   51761   43.4643  -70.1551  33.0     8.3    14.036     31.156     1011.9        367.380907    348.755784    nd            nd            19.100000     2008-06-10T14:22:41.03Z  
1423.0165   51781   43.4655  -70.1539  34.0     8.3    14.038     31.157     1011.9        368.120638    349.471943    nd            nd            19.100000     2008-06-10T14:23:00.99Z  
1423.3506   51801   43.4667  -70.1528  34.0     8.2    14.149     31.138     1011.9        368.526071    349.824627    nd            nd            19.100000     2008-06-10T14:23:21.04Z  
1423.6832   51821   43.4679  -70.1516  33.0     8.2    14.241     31.152     1012.0        369.239050    350.473901    nd            nd            19.100000     2008-06-10T14:23:40.99Z  
1424.0173   51841   43.4692  -70.1505  33.0     8.1    14.358     31.189     1012.0        370.505386    351.637396    nd            nd            19.100000     2008-06-10T14:24:01.04Z  
1424.3499   51861   43.4704  -70.1494  34.0     8.2    14.492     31.214     1012.0        371.790006    352.810301    nd            nd            19.100000     2008-06-10T14:24:20.99Z  
1424.6840   51881   43.4716  -70.1482  34.0     8.2    14.518     31.217     1012.0        373.953781    354.860913    nd            nd            19.100000     2008-06-10T14:24:41.04Z  
1425.0166   51901   43.4729  -70.1471  34.0     8.1    14.565     31.217     1012.0        376.645663    357.413704    nd            nd            19.100000     2008-06-10T14:25:01.00Z  
1425.3507   51921   43.4741  -70.1459  34.0     8.2    14.567     31.264     1012.0        378.517390    359.186818    nd            nd            19.100000     2008-06-10T14:25:21.04Z  
1425.6834   51941   43.4753  -70.1448  33.0     8.1    14.515     31.377     1012.1        379.831171    360.462192    nd            nd            19.100000     2008-06-10T14:25:41.00Z  
1426.0160   51961   43.4765  -70.1437  32.0     8.1    14.652     31.415     1012.1        379.379077    359.985367    nd            nd            19.100000     2008-06-10T14:26:00.96Z  
1426.3501   51981   43.4777  -70.1426  35.0     8.1    14.758     31.368     1012.1        379.294206    359.864388    nd            nd            19.100000     2008-06-10T14:26:21.01Z  
1426.6827   52001   43.4789  -70.1414  35.0     8.2    14.725     31.256     1012.1        380.272417    360.809469    nd            nd            19.100000     2008-06-10T14:26:40.96Z  
1427.0168   52021   43.4801  -70.1403  32.0     8.0    14.665     31.177     1012.1        380.308616    360.875308    nd            nd            19.100000     2008-06-10T14:27:01.01Z  
1427.3494   52041   43.4814  -70.1391  35.0     8.1    14.455     31.169     1012.1        378.004652    358.763747    nd            nd            19.100000     2008-06-10T14:27:20.96Z  
1427.6835   52061   43.4825  -70.1380  36.0     8.1    14.423     31.166     1012.1        374.281796    355.239423    nd            nd            19.100000     2008-06-10T14:27:41.01Z  
1428.0162   52081   43.4837  -70.1368  35.0     8.1    14.380     31.128     1012.1        370.429897    351.607252    nd            nd            19.100000     2008-06-10T14:28:00.97Z  
1428.3502   52101   43.4849  -70.1357  34.0     8.1    14.280     31.109     1012.1        367.488717    348.856014    nd            nd            19.100000     2008-06-10T14:28:21.01Z  
1428.6829   52121   43.4862  -70.1345  35.0     8.1    14.334     31.094     1012.1        364.216081    345.738144    nd            nd            19.100000     2008-06-10T14:28:40.97Z  
1429.0170   52141   43.4874  -70.1334  33.0     8.1    14.359     31.079     1012.2        362.094457    343.726932    nd            nd            19.100000     2008-06-10T14:29:01.02Z  
1429.3496   52161   43.4885  -70.1322  36.0     8.0    14.391     31.076     1012.2        361.152521    342.822595    nd            nd            19.100000     2008-06-10T14:29:20.98Z  
1429.6837   52181   43.4897  -70.1311  34.0     8.0    14.574     31.078     1012.2        360.337999    341.978512    nd            nd            19.100000     2008-06-10T14:29:41.02Z  
1430.0163   52201   43.4909  -70.1300  34.0     8.0    14.768     31.072     1012.1        360.826688    342.365802    nd            nd            19.100000     2008-06-10T14:30:00.98Z  
1430.3504   52221   43.4921  -70.1289  34.0     7.9    14.966     31.008     1012.1        362.282576    343.667159    nd            nd            19.100000     2008-06-10T14:30:21.02Z  
1430.6830   52241   43.4933  -70.1277  36.0     7.9    15.078     30.997     1012.1        364.616121    345.838547    nd            nd            19.100000     2008-06-10T14:30:40.98Z  
1431.0171   52261   43.4945  -70.1266  34.0     8.0    15.140     30.997     1012.1        367.185485    348.258958    nd            nd            19.100000     2008-06-10T14:31:01.03Z  
1431.3498   52281   43.4956  -70.1254  35.0     7.9    15.186     31.011     1012.2        369.301568    350.258237    nd            nd            19.100000     2008-06-10T14:31:20.99Z  
1431.6838   52301   43.4968  -70.1243  34.0     8.0    15.163     31.021     1012.2        371.102687    351.980303    nd            nd            19.100000     2008-06-10T14:31:41.03Z  
1432.0165   52321   43.4980  -70.1232  35.0     8.0    15.150     31.031     1012.2        372.179276    353.000420    nd            nd            19.100000     2008-06-10T14:32:00.99Z  
1432.3506   52341   43.4992  -70.1221  34.0     8.0    15.242     31.036     1012.1        372.551706    353.303394    nd            nd            19.100000     2008-06-10T14:32:21.04Z  
1432.6832   52361   43.5004  -70.1209  34.0     8.0    15.283     31.049     1012.1        373.299138    353.991839    nd            nd            19.100000     2008-06-10T14:32:40.99Z  
1433.0173   52381   43.5015  -70.1198  36.0     8.0    15.222     31.054     1012.1        374.232977    354.903290    nd            nd            19.100000     2008-06-10T14:33:01.04Z  
1433.3499   52401   43.5027  -70.1186  36.0     8.0    15.188     31.053     1012.1        374.451212    355.126894    nd            nd            19.100000     2008-06-10T14:33:20.99Z  
1433.6840   52421   43.5039  -70.1175  35.0     8.0    15.173     30.997     1012.1        374.037367    354.743269    nd            nd            19.100000     2008-06-10T14:33:41.04Z  
1434.0166   52441   43.5051  -70.1163  34.0     8.0    15.157     30.991     1012.2        373.681591    354.419372    nd            nd            19.100000     2008-06-10T14:34:01.00Z  
1434.3493   52461   43.5063  -70.1152  34.0     8.0    15.202     31.001     1012.2        373.084776    353.833138    nd            nd            19.100000     2008-06-10T14:34:20.96Z  
1434.6834   52481   43.5075  -70.1140  34.0     8.0    15.276     30.994     1012.2        372.922418    353.653689    nd            nd            19.100000     2008-06-10T14:34:41.00Z  
1435.0160   52501   43.5086  -70.1129  34.0     8.0    15.260     30.936     1012.1        373.244435    353.960798    nd            nd            19.100000     2008-06-10T14:35:00.96Z  
1435.3501   52521   43.5098  -70.1118  35.0     8.0    15.250     30.906     1012.1        373.486237    354.191021    nd            nd            19.100000     2008-06-10T14:35:21.01Z  
1435.6827   52541   43.5110  -70.1105  37.0     8.1    15.274     30.915     1012.1        373.697438    354.374682    nd            nd            19.100000     2008-06-10T14:35:40.96Z  
1436.0168   52561   43.5122  -70.1094  35.0     8.1    15.257     30.934     1012.1        373.854946    354.535460    nd            nd            19.100000     2008-06-10T14:36:01.01Z  
1436.3494   52581   43.5134  -70.1082  34.0     8.0    15.241     30.936     1012.1        374.151394    354.816252    nd            nd            19.100000     2008-06-10T14:36:20.96Z  
1436.6835   52601   43.5146  -70.1071  35.0     8.1    15.250     30.933     1012.1        374.347963    354.999796    nd            nd            19.100000     2008-06-10T14:36:41.01Z  
1437.0162   52621   43.5157  -70.1059  36.0     8.1    15.249     30.963     1012.1        374.182642    354.841108    nd            nd            19.100000     2008-06-10T14:37:00.97Z  
1437.3502   52641   43.5169  -70.1047  36.0     8.0    15.259     30.986     1012.1        373.975358    354.640598    nd            nd            19.100000     2008-06-10T14:37:21.01Z  
1437.6829   52661   43.5181  -70.1036  34.0     8.1    15.301     31.031     1012.1        373.472487    354.148743    nd            nd            19.100000     2008-06-10T14:37:40.97Z  
1438.0170   52681   43.5193  -70.1024  33.0     8.1    15.310     31.089     1012.1        373.421712    354.093742    nd            nd            19.100000     2008-06-10T14:38:01.02Z  
1438.3496   52701   43.5205  -70.1013  36.0     8.1    15.353     31.104     1012.1        373.220667    353.889812    nd            nd            19.100000     2008-06-10T14:38:20.98Z  
1438.6837   52721   43.5217  -70.1001  36.0     8.0    15.351     31.096     1012.1        373.105516    353.783022    nd            nd            19.100000     2008-06-10T14:38:41.02Z  
1439.0163   52741   43.5228  -70.0989  37.0     8.0    15.368     31.081     1012.1        373.108865    353.776806    nd            nd            19.100000     2008-06-10T14:39:00.98Z  
1439.3504   52761   43.5240  -70.0977  37.0     8.0    15.330     31.074     1012.1        372.989087    353.675552    nd            nd            19.100000     2008-06-10T14:39:21.02Z  
1439.6830   52781   43.5251  -70.0965  35.0     8.0    15.219     31.082     1012.1        372.972536    353.696678    nd            nd            19.100000     2008-06-10T14:39:40.98Z  
1440.0171   52801   43.5263  -70.0954  37.0     8.0    15.295     31.076     1012.1        371.954724    352.700930    nd            nd            19.100000     2008-06-10T14:40:01.03Z  
1440.3498   52821   43.5275  -70.0942  35.0     7.9    15.211     31.082     1012.1        371.484371    352.284598    nd            nd            19.100000     2008-06-10T14:40:20.99Z  
1440.6838   52841   43.5286  -70.0930  36.0     8.0    15.008     31.090     1012.1        371.199205    352.086668    nd            nd            19.100000     2008-06-10T14:40:41.03Z  
1441.0165   52861   43.5298  -70.0919  35.0     8.0    14.967     31.072     1012.1        369.417217    350.412279    nd            nd            19.100000     2008-06-10T14:41:00.99Z  
1441.3506   52881   43.5310  -70.0907  34.0     8.0    15.046     31.056     1012.0        367.923518    348.960956    nd            nd            19.100000     2008-06-10T14:41:21.04Z  
1441.6832   52901   43.5321  -70.0896  35.0     8.0    15.127     31.029     1012.0        366.933473    347.987323    nd            nd            19.100000     2008-06-10T14:41:40.99Z  
1442.0173   52921   43.5333  -70.0884  36.0     8.2    15.017     31.011     1012.0        367.372460    348.446078    nd            nd            19.100000     2008-06-10T14:42:01.04Z  
1442.3499   52941   43.5345  -70.0872  35.0     8.2    15.066     30.964     1012.0        366.835476    347.916372    nd            nd            19.100000     2008-06-10T14:42:20.99Z  
1442.6840   52961   43.5357  -70.0860  33.0     8.0    15.043     30.926     1012.1        366.310218    347.437227    nd            nd            19.100000     2008-06-10T14:42:41.04Z  
1443.0166   52981   43.5369  -70.0849  35.0     8.1    14.904     30.926     1012.1        365.726726    346.937231    nd            nd            19.100000     2008-06-10T14:43:01.00Z  
1443.3493   53001   43.5381  -70.0837  36.0     8.1    14.797     30.911     1012.1        364.665610    345.971219    nd            nd            19.100000     2008-06-10T14:43:20.96Z  
1443.6834   53021   43.5393  -70.0826  33.0     8.0    14.774     30.925     1012.1        362.913652    344.322812    nd            nd            19.100000     2008-06-10T14:43:41.00Z  
1444.0160   53041   43.5405  -70.0814  35.0     8.1    14.701     30.977     1012.1        361.663850    343.165395    nd            nd            19.100000     2008-06-10T14:44:00.96Z  
1444.3501   53061   43.5417  -70.0803  33.0     8.1    14.604     31.021     1012.1        360.745075    342.326012    nd            nd            19.100000     2008-06-10T14:44:21.01Z  
1444.6827   53081   43.5429  -70.0792  34.0     8.0    14.503     31.046     1012.1        359.414609    341.095768    nd            nd            19.100000     2008-06-10T14:44:40.96Z  
1445.0168   53101   43.5441  -70.0781  34.0     8.1    14.511     31.113     1012.1        358.201409    339.936319    nd            nd            19.100000     2008-06-10T14:45:01.01Z  
1445.3494   53121   43.5453  -70.0769  35.0     8.1    14.527     31.132     1012.0        357.585874    339.343547    nd            nd            19.100000     2008-06-10T14:45:20.96Z  
1445.6835   53141   43.5465  -70.0758  32.0     8.0    14.474     31.169     1012.1        357.685699    339.463510    nd            nd            19.100000     2008-06-10T14:45:41.01Z  
1446.0162   53161   43.5477  -70.0747  36.0     8.1    14.465     31.191     1012.1        357.834908    339.610572    nd            nd            19.100000     2008-06-10T14:46:00.97Z  
1446.3502   53181   43.5489  -70.0735  34.0     8.1    14.426     31.235     1012.1        357.989953    339.773960    nd            nd            19.100000     2008-06-10T14:46:21.01Z  
1446.6829   53201   43.5501  -70.0724  33.0     8.1    14.404     31.278     1012.1        358.086270    339.875587    nd            nd            19.100000     2008-06-10T14:46:40.97Z  
1447.0170   53221   43.5513  -70.0712  34.0     8.1    14.413     31.291     1012.1        358.562593    340.317002    nd            nd            19.100000     2008-06-10T14:47:01.02Z  
1447.3496   53241   43.5526  -70.0701  34.0     8.1    14.415     31.299     1012.1        358.911519    340.645521    nd            nd            19.100000     2008-06-10T14:47:20.98Z  
1447.6837   53261   43.5538  -70.0690  33.0     8.1    14.428     31.304     1012.1        359.176647    340.892412    nd            nd            19.100000     2008-06-10T14:47:41.02Z  
1448.0163   53281   43.5550  -70.0678  35.0     8.2    14.455     31.295     1012.0        359.696797    341.369198    nd            nd            19.100000     2008-06-10T14:48:00.98Z  
1448.3504   53301   43.5562  -70.0667  33.0     8.0    14.444     31.268     1012.0        359.971524    341.635837    nd            nd            19.100000     2008-06-10T14:48:21.02Z  
1448.6830   53321   43.5574  -70.0656  33.0     8.1    14.422     31.224     1012.0        360.068377    341.738613    nd            nd            19.100000     2008-06-10T14:48:40.98Z  
1449.0171   53341   43.5586  -70.0645  34.0     8.1    14.407     31.198     1012.1        360.218826    341.892240    nd            nd            19.100000     2008-06-10T14:49:01.03Z  
1449.3498   53361   43.5597  -70.0636  30.0     5.9    14.399     31.165     1012.1        360.184550    341.889029    nd            nd            19.100000     2008-06-10T14:49:20.99Z  
1449.6838   53381   43.5603  -70.0631  32.0     2.2    14.394     31.107     1012.2        360.055539    341.777339    nd            nd            19.100000     2008-06-10T14:49:41.03Z  
1450.0165   53401   43.5605  -70.0629  19.0     0.9    14.378     31.020     1012.2        359.614669    341.371184    nd            nd            19.100000     2008-06-10T14:50:00.99Z  
1450.3506   53421   43.5606  -70.0629  126.0    0.5    14.343     31.006     1012.2        359.464570    341.244518    nd            nd            19.100000     2008-06-10T14:50:21.04Z  
1450.6832   53441   43.5607  -70.0629  57.0     0.8    14.333     30.990     1012.2        359.171849    340.966070    nd            nd            19.100000     2008-06-10T14:50:40.99Z  
1451.0173   53461   43.5610  -70.0628  15.0     2.1    14.338     30.972     1012.2        358.405183    340.232232    nd            nd            19.100000     2008-06-10T14:51:01.04Z  
1451.3499   53481   43.5613  -70.0626  21.0     2.0    14.354     30.965     1012.2        357.705976    339.570266    nd            nd            19.100000     2008-06-10T14:51:20.99Z  
1451.6840   53501   43.5616  -70.0624  21.0     1.5    14.349     30.961     1012.2        357.221510    339.113275    nd            nd            19.100000     2008-06-10T14:51:41.04Z  
1452.0166   53521   43.5619  -70.0623  22.0     1.4    14.310     30.963     1012.2        356.746549    338.678557    nd            nd            19.100000     2008-06-10T14:52:01.00Z  
1452.3493   53541   43.5621  -70.0622  22.0     1.3    14.259     30.957     1012.2        356.368138    338.339116    nd            nd            19.100000     2008-06-10T14:52:20.96Z  
1452.6834   53561   43.5623  -70.0621  23.0     0.9    14.219     30.971     1012.2        355.800642    337.816860    nd            nd            19.100000     2008-06-10T14:52:41.00Z  
1453.0160   53581   43.5624  -70.0620  23.0     0.9    14.185     30.992     1012.2        355.039433    337.107896    nd            nd            19.100000     2008-06-10T14:53:00.96Z  
1453.3501   53601   43.5626  -70.0619  52.0     0.6    14.151     30.993     1012.2        354.284081    336.407136    nd            nd            19.100000     2008-06-10T14:53:21.01Z  
1453.6827   53621   43.5626  -70.0619  286.0    0.4    14.106     30.992     1012.3        353.518733    335.701368    nd            nd            19.100000     2008-06-10T14:53:40.96Z  
1454.0168   53641   43.5627  -70.0620  205.0    0.8    14.079     30.989     1012.3        352.746888    334.976391    nd            nd            19.100000     2008-06-10T14:54:01.01Z  
1454.3494   53661   43.5631  -70.0619  14.0     2.5    14.083     30.988     1012.2        351.977378    334.241197    nd            nd            19.100000     2008-06-10T14:54:20.96Z  
1454.6835   53681   43.5635  -70.0616  30.0     3.2    14.110     30.984     1012.2        351.627821    333.899999    nd            nd            19.100000     2008-06-10T14:54:41.01Z  
1455.0162   53701   43.5641  -70.0611  30.0     3.8    14.084     30.976     1012.2        351.240657    333.533420    nd            nd            19.100000     2008-06-10T14:55:00.97Z  
1455.3502   53721   43.5648  -70.0605  31.0     5.0    14.052     30.967     1012.2        351.284041    333.584734    nd            nd            19.100000     2008-06-10T14:55:21.01Z  
1455.6829   53741   43.5656  -70.0599  28.0     5.3    14.045     30.960     1012.2        350.881422    333.208241    nd            nd            19.100000     2008-06-10T14:55:40.97Z  
1456.0170   53761   43.5664  -70.0593  27.0     3.9    14.067     30.933     1012.3        350.617042    332.963051    nd            nd            19.100000     2008-06-10T14:56:01.02Z  
1456.3496   53781   43.5668  -70.0591  57.0     1.5    14.175     30.511     1012.3        350.502896    332.824220    nd            nd            19.100000     2008-06-10T14:56:20.98Z  
1456.6837   53801   43.5669  -70.0591  143.0    0.7    14.349     30.091     1012.3        349.664719    331.975136    nd            nd            19.100000     2008-06-10T14:56:41.02Z  
1457.0163   53821   43.5670  -70.0591  234.0    0.5    14.459     29.948     1012.3        348.913576    331.225743    nd            nd            19.100000     2008-06-10T14:57:00.98Z  
1457.3504   53841   43.5671  -70.0591  278.0    0.4    14.511     29.945     1012.3        347.753405    330.103087    nd            nd            19.100000     2008-06-10T14:57:21.02Z  
1457.6830   53861   43.5672  -70.0592  322.0    0.3    14.539     29.924     1012.3        346.735335    329.127743    nd            nd            19.100000     2008-06-10T14:57:40.98Z  
1458.0171   53881   43.5672  -70.0592  313.0    0.3    14.563     29.903     1012.3        346.213188    328.617065    nd            nd            19.100000     2008-06-10T14:58:01.03Z  
1458.3498   53901   43.5673  -70.0593  298.0    0.3    14.590     29.891     1012.3        345.767402    328.184273    nd            nd            19.100000     2008-06-10T14:58:20.99Z  
1458.6838   53921   43.5673  -70.0593  291.0    0.3    14.602     29.875     1012.3        345.496929    327.914053    nd            nd            19.100000     2008-06-10T14:58:41.03Z  
1459.0165   53941   43.5673  -70.0594  284.0    0.3    14.613     29.864     1012.3        345.368133    327.787757    nd            nd            19.100000     2008-06-10T14:59:00.99Z  
1459.3506   53961   43.5673  -70.0595  282.0    0.3    14.665     29.850     1012.3        345.338987    327.736663    nd            nd            19.100000     2008-06-10T14:59:21.04Z  
1459.6832   53981   43.5673  -70.0596  277.0    0.3    14.695     29.842     1012.2        345.299788    327.685534    nd            nd            19.100000     2008-06-10T14:59:40.99Z  
1500.0173   54001   43.5673  -70.0597  279.0    0.3    14.691     29.876     1012.2        345.664366    328.031867    nd            nd            19.772222     2008-06-10T15:00:01.04Z  
1500.3499   54021   43.5673  -70.0597  274.0    0.3    14.648     29.887     1012.2        345.785894    328.161132    nd            nd            20.200000     2008-06-10T15:00:20.99Z  
1500.6840   54041   43.5674  -70.0598  278.0    0.3    14.618     29.901     1012.2        345.918235    328.300131    nd            nd            20.200000     2008-06-10T15:00:41.04Z  
1501.0166   54061   43.5674  -70.0599  266.0    0.3    14.620     29.918     1012.2        345.799165    328.185959    nd            nd            20.200000     2008-06-10T15:01:01.00Z  
1501.3507   54081   43.5674  -70.0600  273.0    0.3    14.661     29.928     1012.2        345.762981    328.128742    nd            nd            20.200000     2008-06-10T15:01:21.04Z  
1501.6834   54101   43.5674  -70.0600  270.0    0.3    14.657     29.934     1012.2        345.636014    328.011205    nd            nd            20.200000     2008-06-10T15:01:41.00Z  
1502.0160   54121   43.5674  -70.0601  264.0    0.3    14.643     29.932     1012.2        345.798241    328.169505    nd            nd            20.200000     2008-06-10T15:02:00.96Z  
1502.3501   54141   43.5674  -70.0602  271.0    0.3    14.650     29.927     1012.2        345.745891    328.117667    nd            nd            20.200000     2008-06-10T15:02:21.01Z  
1502.6827   54161   43.5674  -70.0603  270.0    0.3    14.673     29.926     1012.2        345.847769    328.205172    nd            nd            20.200000     2008-06-10T15:02:40.96Z  
1503.0168   54181   43.5673  -70.0603  262.0    0.3    14.689     29.929     1012.2        345.854695    328.208006    nd            nd            20.200000     2008-06-10T15:03:01.01Z  
1503.3494   54201   43.5673  -70.0604  260.0    0.3    14.651     29.934     1012.2        346.061145    328.415201    nd            nd            20.200000     2008-06-10T15:03:20.96Z  
1503.6835   54221   43.5673  -70.0605  256.0    0.3    14.647     29.926     1012.2        346.091451    328.447261    nd            nd            20.200000     2008-06-10T15:03:41.01Z  
1504.0162   54241   43.5673  -70.0605  254.0    0.3    14.645     29.936     1012.2        346.039246    328.398462    nd            nd            20.200000     2008-06-10T15:04:00.97Z  
1504.3502   54261   43.5673  -70.0606  262.0    0.2    14.651     29.934     1012.2        345.859055    328.224780    nd            nd            20.200000     2008-06-10T15:04:21.01Z  
1504.6829   54281   43.5673  -70.0607  261.0    0.3    14.662     29.930     1012.2        345.998672    328.350864    nd            nd            20.200000     2008-06-10T15:04:40.97Z  
1505.0170   54301   43.5673  -70.0607  263.0    0.3    14.659     29.938     1012.2        346.033272    328.384493    nd            nd            20.200000     2008-06-10T15:05:01.02Z  
1505.3496   54321   43.5673  -70.0608  266.0    0.3    14.644     29.939     1012.2        346.070054    328.423202    nd            nd            20.200000     2008-06-10T15:05:20.98Z  
1505.6837   54341   43.5673  -70.0609  269.0    0.3    14.645     29.944     1012.2        346.068312    328.420963    nd            nd            20.200000     2008-06-10T15:05:41.02Z  
1506.0163   54361   43.5673  -70.0610  272.0    0.3    14.650     29.947     1012.2        345.968659    328.327206    nd            nd            20.200000     2008-06-10T15:06:00.98Z  
1506.3504   54381   43.5673  -70.0610  272.0    0.3    14.643     29.953     1012.2        346.116245    328.466172    nd            nd            20.200000     2008-06-10T15:06:21.02Z  
1506.6830   54401   43.5673  -70.0611  276.0    0.3    14.630     29.957     1012.2        346.086306    328.445777    nd            nd            20.200000     2008-06-10T15:06:40.98Z  
1507.0171   54421   43.5673  -70.0612  278.0    0.3    14.620     29.960     1012.2        345.892694    328.265251    nd            nd            20.200000     2008-06-10T15:07:01.03Z  
1507.3498   54441   43.5673  -70.0613  279.0    0.3    14.628     29.959     1012.2        345.811883    328.179735    nd            nd            20.200000     2008-06-10T15:07:20.99Z  
1507.6838   54461   43.5674  -70.0613  277.0    0.3    14.633     29.977     1012.2        345.655080    328.036801    nd            nd            20.200000     2008-06-10T15:07:41.03Z  
1508.0165   54481   43.5674  -70.0614  276.0    0.3    14.612     29.991     1012.2        345.745830    328.129639    nd            nd            20.200000     2008-06-10T15:08:00.99Z  
1508.3506   54501   43.5674  -70.0615  275.0    0.3    14.601     29.991     1012.2        345.746598    328.140684    nd            nd            20.200000     2008-06-10T15:08:21.04Z  
1508.6832   54521   43.5674  -70.0616  268.0    0.3    14.606     29.995     1012.2        345.693809    328.092319    nd            nd            20.200000     2008-06-10T15:08:40.99Z  
1509.0173   54541   43.5674  -70.0616  273.0    0.3    14.620     29.998     1012.3        345.707218    328.107121    nd            nd            20.200000     2008-06-10T15:09:01.04Z  
1509.3499   54561   43.5674  -70.0617  274.0    0.3    14.664     29.997     1012.3        345.784325    328.168228    nd            nd            20.200000     2008-06-10T15:09:20.99Z  
1509.6840   54581   43.5674  -70.0618  276.0    0.3    14.683     29.990     1012.3        345.840935    328.219679    nd            nd            20.200000     2008-06-10T15:09:41.04Z  
1510.0166   54601   43.5674  -70.0619  280.0    1.1    14.702     29.982     1012.3        346.040955    328.402313    nd            nd            20.200000     2008-06-10T15:10:01.00Z  
1510.3507   54621   43.5677  -70.0616  62.0     2.5    14.699     29.958     1012.3        346.336791    328.684717    nd            nd            20.200000     2008-06-10T15:10:21.04Z  
1510.6834   54641   43.5678  -70.0610  92.0     2.8    14.701     29.955     1012.3        346.622581    328.956898    nd            nd            20.200000     2008-06-10T15:10:41.00Z  
1511.0160   54661   43.5677  -70.0602  93.0     2.8    14.672     29.954     1012.3        346.704642    329.041986    nd            nd            20.200000     2008-06-10T15:11:00.96Z  
1511.3501   54681   43.5678  -70.0598  58.0     0.8    14.604     29.998     1012.3        346.886127    329.242098    nd            nd            20.200000     2008-06-10T15:11:21.01Z  
1511.6827   54701   43.5678  -70.0598  286.0    0.4    14.557     29.953     1012.3        346.733266    329.110768    nd            nd            20.200000     2008-06-10T15:11:40.96Z  
1512.0168   54721   43.5679  -70.0598  299.0    0.4    14.578     29.811     1012.3        346.404564    328.791867    nd            nd            20.200000     2008-06-10T15:12:01.01Z  
1512.3494   54741   43.5679  -70.0599  203.0    0.6    14.462     30.031     1012.3        345.781299    328.243207    nd            nd            20.200000     2008-06-10T15:12:20.96Z  
1512.6835   54761   43.5678  -70.0599  205.0    0.2    14.276     30.196     1012.3        345.248644    327.791863    nd            nd            20.200000     2008-06-10T15:12:41.01Z  
1513.0162   54781   43.5678  -70.0599  227.0    0.2    14.350     30.070     1012.3        344.368483    326.932585    nd            nd            20.200000     2008-06-10T15:13:00.97Z  
1513.3502   54801   43.5678  -70.0600  244.0    0.2    14.270     30.219     1012.3        343.547861    326.177936    nd            nd            20.200000     2008-06-10T15:13:21.01Z  
1513.6829   54821   43.5677  -70.0600  231.0    0.2    14.183     30.257     1012.3        343.162934    325.842682    nd            nd            20.200000     2008-06-10T15:13:40.97Z  
1514.0170   54841   43.5677  -70.0600  274.0    0.2    14.116     30.297     1012.3        342.722672    325.452147    nd            nd            20.200000     2008-06-10T15:14:01.02Z  
1514.3496   54861   43.5677  -70.0601  270.0    0.2    14.036     30.345     1012.3        342.177628    324.961597    nd            nd            20.200000     2008-06-10T15:14:20.98Z  
1514.6837   54881   43.5677  -70.0601  271.0    0.2    14.105     30.212     1012.3        341.399664    324.204785    nd            nd            20.200000     2008-06-10T15:14:41.02Z  
1515.0163   54901   43.5678  -70.0602  250.0    0.2    14.204     30.148     1012.3        340.910835    323.709034    nd            nd            20.200000     2008-06-10T15:15:00.98Z  
1515.3504   54921   43.5678  -70.0603  266.0    0.2    14.301     30.104     1012.3        340.717800    323.497696    nd            nd            20.200000     2008-06-10T15:15:21.02Z  
1515.6830   54941   43.5678  -70.0603  257.0    0.3    14.386     30.015     1012.3        340.972306    323.713415    nd            nd            20.200000     2008-06-10T15:15:40.98Z  
1516.0171   54961   43.5678  -70.0604  271.0    0.2    14.402     30.073     1012.3        341.375049    324.093516    nd            nd            20.200000     2008-06-10T15:16:01.03Z  
1516.3498   54981   43.5678  -70.0605  268.0    0.2    14.378     30.127     1012.4        341.852184    324.557523    nd            nd            20.200000     2008-06-10T15:16:20.99Z  
1516.6838   55001   43.5678  -70.0605  249.0    0.2    14.407     30.107     1012.4        342.196796    324.881572    nd            nd            20.200000     2008-06-10T15:16:41.03Z  
1517.0165   55021   43.5678  -70.0606  270.0    0.2    14.437     30.099     1012.4        342.503387    325.167751    nd            nd            20.200000     2008-06-10T15:17:00.99Z  
1517.3506   55041   43.5678  -70.0606  273.0    0.2    14.481     30.057     1012.4        342.792149    325.428911    nd            nd            20.200000     2008-06-10T15:17:21.04Z  
1517.6832   55061   43.5678  -70.0607  279.0    0.3    14.519     29.958     1012.4        343.107866    325.713920    nd            nd            20.200000     2008-06-10T15:17:40.99Z  
1518.0173   55081   43.5678  -70.0608  280.0    0.3    14.572     29.867     1012.4        343.250509    325.831388    nd            nd            20.200000     2008-06-10T15:18:01.04Z  
1518.3499   55101   43.5678  -70.0608  281.0    0.3    14.627     29.789     1012.4        343.435717    325.987248    nd            nd            20.200000     2008-06-10T15:18:20.99Z  
1518.6840   55121   43.5678  -70.0609  262.0    0.3    14.671     29.737     1012.4        343.688036    326.210292    nd            nd            20.200000     2008-06-10T15:18:41.04Z  
1519.0166   55141   43.5678  -70.0610  260.0    0.4    14.700     29.742     1012.4        343.993962    326.491874    nd            nd            20.200000     2008-06-10T15:19:01.00Z  
1519.3493   55161   43.5678  -70.0611  277.0    0.3    14.725     29.728     1012.4        344.396201    326.866799    nd            nd            20.200000     2008-06-10T15:19:20.96Z  
1519.6834   55181   43.5679  -70.0611  275.0    0.3    14.733     29.750     1012.4        344.756767    327.212469    nd            nd            20.200000     2008-06-10T15:19:41.00Z  
1520.0160   55201   43.5679  -70.0612  268.0    0.3    14.716     29.787     1012.4        345.151712    327.598679    nd            nd            20.200000     2008-06-10T15:20:00.96Z  
1520.3501   55221   43.5679  -70.0613  268.0    0.3    14.691     29.818     1012.5        345.395482    327.849453    nd            nd            20.200000     2008-06-10T15:20:21.01Z  
1520.6827   55241   43.5679  -70.0613  273.0    0.3    14.722     29.781     1012.5        345.477748    327.924371    nd            nd            20.200000     2008-06-10T15:20:40.96Z  
1521.0168   55261   43.5679  -70.0614  276.0    0.3    14.738     29.773     1012.5        345.524851    327.966594    nd            nd            20.200000     2008-06-10T15:21:01.01Z  
1521.3494   55281   43.5679  -70.0615  278.0    0.3    14.744     29.785     1012.5        345.671970    328.107705    nd            nd            20.200000     2008-06-10T15:21:20.96Z  
1521.6835   55301   43.5679  -70.0616  281.0    0.3    14.757     29.782     1012.5        345.745587    328.172397    nd            nd            20.200000     2008-06-10T15:21:41.01Z  
1522.0162   55321   43.5679  -70.0617  279.0    0.3    14.793     29.778     1012.5        345.914665    328.322503    nd            nd            20.200000     2008-06-10T15:22:00.97Z  
1522.3502   55341   43.5679  -70.0617  282.0    0.3    14.812     29.771     1012.5        346.150297    328.539637    nd            nd            20.200000     2008-06-10T15:22:21.01Z  
1522.6829   55361   43.5679  -70.0618  279.0    0.3    14.816     29.774     1012.5        346.557749    328.920135    nd            nd            20.200000     2008-06-10T15:22:40.97Z  
1523.0170   55381   43.5679  -70.0619  261.0    0.6    14.822     29.762     1012.5        346.918991    329.258847    nd            nd            20.200000     2008-06-10T15:23:01.02Z  
1523.3496   55401   43.5679  -70.0620  277.0    0.3    14.816     29.774     1012.5        347.074834    329.401969    nd            nd            20.200000     2008-06-10T15:23:20.98Z  
1523.6837   55421   43.5679  -70.0621  275.0    0.4    14.825     29.779     1012.5        347.251932    329.562939    nd            nd            20.200000     2008-06-10T15:23:41.02Z  
1524.0163   55441   43.5680  -70.0622  279.0    0.4    14.837     29.777     1012.4        347.265837    329.568993    nd            nd            20.200000     2008-06-10T15:24:00.98Z  
1524.3504   55461   43.5681  -70.0622  144.0    1.5    14.839     29.790     1012.4        347.333195    329.620456    nd            nd            20.200000     2008-06-10T15:24:21.02Z  
1524.6830   55481   43.5684  -70.0619  43.0     2.5    14.849     29.802     1012.4        347.382018    329.657049    nd            nd            20.200000     2008-06-10T15:24:40.98Z  
1525.0171   55501   43.5687  -70.0612  68.0     3.8    14.855     29.798     1012.4        347.451872    329.717873    nd            nd            20.200000     2008-06-10T15:25:01.03Z  
1525.3498   55521   43.5690  -70.0602  69.0     4.6    14.815     29.823     1012.4        347.578580    329.848608    nd            nd            20.200000     2008-06-10T15:25:20.99Z  
1525.6838   55541   43.5693  -70.0590  65.0     5.3    14.745     29.803     1012.4        347.891902    330.170337    nd            nd            20.200000     2008-06-10T15:25:41.03Z  
1526.0165   55561   43.5698  -70.0578  61.0     5.6    14.724     29.745     1012.4        347.757268    330.051385    nd            nd            20.200000     2008-06-10T15:26:00.99Z  
1526.3506   55581   43.5703  -70.0566  59.0     6.1    14.743     29.748     1012.4        347.382063    329.691673    nd            nd            20.200000     2008-06-10T15:26:21.04Z  
1526.6832   55601   43.5709  -70.0552  59.0     6.5    14.725     29.773     1012.4        347.150284    329.483228    nd            nd            20.200000     2008-06-10T15:26:40.99Z  
1527.0173   55621   43.5715  -70.0538  61.0     6.8    14.687     29.765     1012.4        346.952952    329.305309    nd            nd            20.200000     2008-06-10T15:27:01.04Z  
1527.3499   55641   43.5721  -70.0523  59.0     6.9    14.670     29.787     1012.4        346.585325    328.962429    nd            nd            20.200000     2008-06-10T15:27:20.99Z  
1527.6840   55661   43.5728  -70.0507  60.0     7.9    14.686     29.720     1012.3        346.135748    328.511070    nd            nd            20.200000     2008-06-10T15:27:41.04Z  
1528.0166   55681   43.5736  -70.0489  58.0     8.4    14.664     29.752     1012.3        345.847585    328.244603    nd            nd            20.200000     2008-06-10T15:28:01.00Z  
1528.3493   55701   43.5743  -70.0471  60.0     8.3    14.627     29.808     1012.3        345.641975    328.061457    nd            nd            20.200000     2008-06-10T15:28:20.96Z  
1528.6834   55721   43.5751  -70.0453  59.0     8.3    14.614     29.697     1012.3        345.309080    327.754268    nd            nd            20.200000     2008-06-10T15:28:41.00Z  
1529.0160   55741   43.5758  -70.0436  60.0     8.3    14.613     29.437     1012.3        344.970111    327.430465    nd            nd            20.200000     2008-06-10T15:29:00.96Z  
1529.3501   55761   43.5766  -70.0418  58.0     8.3    14.559     29.308     1012.3        344.666035    327.164026    nd            nd            20.200000     2008-06-10T15:29:21.01Z  
1529.6827   55781   43.5774  -70.0401  56.0     8.4    14.541     29.236     1012.4        343.939321    326.481665    nd            nd            20.200000     2008-06-10T15:29:40.96Z  
1530.0168   55801   43.5782  -70.0383  56.0     8.3    14.540     29.289     1012.4        343.227322    325.810583    nd            nd            20.200000     2008-06-10T15:30:01.01Z  
1530.3494   55821   43.5791  -70.0366  57.0     8.3    14.560     29.312     1012.4        342.654417    325.261852    nd            nd            20.200000     2008-06-10T15:30:20.96Z  
1530.6835   55841   43.5799  -70.0349  56.0     8.3    14.606     29.218     1012.4        341.804995    324.443147    nd            nd            20.200000     2008-06-10T15:30:41.01Z  
1531.0162   55861   43.5807  -70.0331  57.0     8.3    14.631     29.165     1012.4        340.836255    323.523233    nd            nd            20.200000     2008-06-10T15:31:00.97Z  
1531.3502   55881   43.5815  -70.0314  58.0     8.3    14.615     29.088     1012.4        340.821463    323.517851    nd            nd            20.200000     2008-06-10T15:31:21.01Z  
1531.6829   55901   43.5823  -70.0297  56.0     8.3    14.656     28.864     1012.4        341.079765    323.755604    nd            nd            20.200000     2008-06-10T15:31:40.97Z  
1532.0170   55921   43.5832  -70.0279  57.0     8.4    14.665     28.761     1012.5        340.387046    323.096986    nd            nd            20.200000     2008-06-10T15:32:01.02Z  
1532.3496   55941   43.5840  -70.0262  56.0     8.3    14.641     28.693     1012.4        339.154393    321.931944    nd            nd            20.200000     2008-06-10T15:32:20.98Z  
1532.6837   55961   43.5848  -70.0245  57.0     8.3    14.641     28.667     1012.5        337.837015    320.684504    nd            nd            20.200000     2008-06-10T15:32:41.02Z  
1533.0163   55981   43.5856  -70.0227  57.0     8.3    14.573     28.701     1012.5        336.813346    319.736328    nd            nd            20.200000     2008-06-10T15:33:00.98Z  
1533.3504   56001   43.5864  -70.0210  56.0     8.2    14.511     28.630     1012.5        336.064871    319.056645    nd            nd            20.200000     2008-06-10T15:33:21.02Z  
1533.6830   56021   43.5873  -70.0193  57.0     8.2    14.501     28.540     1012.5        334.899737    317.958796    nd            nd            20.200000     2008-06-10T15:33:40.98Z  
1534.0171   56041   43.5881  -70.0176  56.0     8.2    14.521     28.496     1012.5        333.909234    317.016080    nd            nd            20.200000     2008-06-10T15:34:01.03Z  
1534.3498   56061   43.5889  -70.0159  56.0     8.2    14.542     28.486     1012.5        333.155805    316.297863    nd            nd            20.200000     2008-06-10T15:34:20.99Z  
1534.6838   56081   43.5897  -70.0142  56.0     8.3    14.553     28.498     1012.5        332.925535    316.071769    nd            nd            20.200000     2008-06-10T15:34:41.03Z  
1535.0165   56101   43.5905  -70.0125  55.0     8.2    14.569     28.491     1012.5        332.786599    315.934988    nd            nd            20.200000     2008-06-10T15:35:00.99Z  
1535.3506   56121   43.5914  -70.0108  57.0     8.3    14.592     28.486     1012.5        332.803146    315.940293    nd            nd            20.200000     2008-06-10T15:35:21.04Z  
1535.6832   56141   43.5921  -70.0090  58.0     8.2    14.616     28.489     1012.5        333.013628    316.130538    nd            nd            20.200000     2008-06-10T15:35:40.99Z  
1536.0173   56161   43.5929  -70.0073  56.0     8.3    14.606     28.494     1012.5        333.591255    316.678092    nd            nd            20.200000     2008-06-10T15:36:01.04Z  
1536.3499   56181   43.5938  -70.0056  57.0     8.3    14.627     28.512     1012.5        333.984347    317.041880    nd            nd            20.200000     2008-06-10T15:36:20.99Z  
1536.6840   56201   43.5946  -70.0038  56.0     8.3    14.753     28.571     1012.5        334.187819    317.185061    nd            nd            20.200000     2008-06-10T15:36:41.04Z  
1537.0166   56221   43.5954  -70.0021  57.0     8.3    14.944     28.531     1012.4        335.026590    317.907708    nd            nd            20.200000     2008-06-10T15:37:01.00Z  
1537.3493   56241   43.5962  -70.0004  55.0     8.3    15.117     28.374     1012.4        337.234021    319.935675    nd            nd            20.200000     2008-06-10T15:37:20.96Z  
1537.6834   56261   43.5971  -69.9987  55.0     8.3    15.144     28.235     1012.4        340.961247    323.455241    nd            nd            20.200000     2008-06-10T15:37:41.00Z  
1538.0160   56281   43.5979  -69.9970  57.0     8.3    15.049     28.157     1012.4        344.791057    327.127046    nd            nd            20.200000     2008-06-10T15:38:00.96Z  
1538.3501   56301   43.5987  -69.9953  56.0     8.3    14.946     28.217     1012.4        347.914518    330.132064    nd            nd            20.200000     2008-06-10T15:38:21.01Z  
1538.6827   56321   43.5995  -69.9936  56.0     8.3    14.827     28.345     1012.4        350.111332    332.259180    nd            nd            20.200000     2008-06-10T15:38:40.96Z  
1539.0168   56341   43.6004  -69.9919  56.0     8.3    14.660     28.409     1012.4        351.145247    333.303994    nd            nd            20.200000     2008-06-10T15:39:01.01Z  
1539.3494   56361   43.6012  -69.9901  58.0     8.3    14.525     28.439     1012.4        350.951933    333.164600    nd            nd            20.200000     2008-06-10T15:39:20.96Z  
1539.6835   56381   43.6020  -69.9884  55.0     8.3    14.431     28.433     1012.4        350.375662    332.648795    nd            nd            20.200000     2008-06-10T15:39:41.01Z  
1540.0162   56401   43.6028  -69.9867  57.0     8.3    14.358     28.458     1012.4        350.223613    332.521986    nd            nd            20.200000     2008-06-10T15:40:00.97Z  
1540.3502   56421   43.6037  -69.9850  57.0     8.3    14.292     28.463     1012.4        349.993670    332.324352    nd            nd            20.200000     2008-06-10T15:40:21.01Z  
1540.6829   56441   43.6045  -69.9832  56.0     8.3    14.218     28.604     1012.4        349.807849    332.173309    nd            nd            20.200000     2008-06-10T15:40:40.97Z  
1541.0170   56461   43.6053  -69.9815  58.0     8.3    14.154     28.655     1012.4        349.676555    332.075127    nd            nd            20.200000     2008-06-10T15:41:01.02Z  
1541.3496   56481   43.6061  -69.9798  56.0     8.3    14.036     28.825     1012.4        349.706670    332.146539    nd            nd            20.200000     2008-06-10T15:41:20.98Z  
1541.6837   56501   43.6069  -69.9780  57.0     8.3    13.888     28.983     1012.4        349.927319    332.408095    nd            nd            20.200000     2008-06-10T15:41:41.02Z  
1542.0163   56521   43.6077  -69.9763  56.0     8.3    13.774     29.102     1012.4        349.716499    332.246402    nd            nd            20.200000     2008-06-10T15:42:00.98Z  
1542.3504   56541   43.6085  -69.9746  56.0     8.3    13.688     29.162     1012.4        349.297610    331.881278    nd            nd            20.200000     2008-06-10T15:42:21.02Z  
1542.6830   56561   43.6093  -69.9729  57.0     8.3    13.630     29.200     1012.4        348.792956    331.422270    nd            nd            20.200000     2008-06-10T15:42:40.98Z  
1543.0171   56581   43.6102  -69.9712  55.0     8.2    13.581     29.194     1012.4        348.271938    330.944293    nd            nd            20.200000     2008-06-10T15:43:01.03Z  
1543.3498   56601   43.6110  -69.9695  56.0     8.2    13.542     29.211     1012.4        347.476185    330.201043    nd            nd            20.200000     2008-06-10T15:43:20.99Z  
1543.6838   56621   43.6118  -69.9678  56.0     8.2    13.484     29.231     1012.4        346.834057    329.612247    nd            nd            20.200000     2008-06-10T15:43:41.03Z  
1544.0165   56641   43.6127  -69.9662  52.0     8.1    13.424     29.118     1012.5        346.131741    328.966893    nd            nd            20.200000     2008-06-10T15:44:00.99Z  
1544.3506   56661   43.6136  -69.9646  56.0     8.1    13.423     28.967     1012.5        345.550105    328.418301    nd            nd            20.200000     2008-06-10T15:44:21.04Z  
1544.6832   56681   43.6144  -69.9629  56.0     8.0    13.452     28.939     1012.5        345.613887    328.474790    nd            nd            20.200000     2008-06-10T15:44:40.99Z  
1545.0173   56701   43.6152  -69.9612  56.0     8.0    13.464     29.036     1012.5        346.588398    329.397585    nd            nd            20.200000     2008-06-10T15:45:01.04Z  
1545.3499   56721   43.6160  -69.9596  56.0     8.0    13.468     29.134     1012.5        348.035086    330.776620    nd            nd            20.200000     2008-06-10T15:45:20.99Z  
1545.6840   56741   43.6168  -69.9579  55.0     7.9    13.446     29.188     1012.5        349.575868    332.250119    nd            nd            20.200000     2008-06-10T15:45:41.04Z  
1546.0166   56761   43.6176  -69.9563  56.0     7.9    13.426     29.236     1012.5        350.623432    333.250699    nd            nd            20.200000     2008-06-10T15:46:01.00Z  
1546.3507   56781   43.6183  -69.9546  59.0     8.0    13.386     29.307     1012.5        351.472244    334.067111    nd            nd            20.200000     2008-06-10T15:46:21.04Z  
1546.6834   56801   43.6191  -69.9530  56.0     8.0    13.343     29.307     1012.5        351.756708    334.356921    nd            nd            20.200000     2008-06-10T15:46:41.00Z  
1547.0160   56821   43.6199  -69.9513  56.0     8.0    13.340     29.226     1012.5        351.445210    334.054428    nd            nd            20.200000     2008-06-10T15:47:00.96Z  
1547.3501   56841   43.6207  -69.9497  56.0     8.0    13.361     29.142     1012.5        351.468703    334.072810    nd            nd            20.200000     2008-06-10T15:47:21.01Z  
1547.6827   56861   43.6215  -69.9480  58.0     8.1    13.375     29.109     1012.5        351.776218    334.349658    nd            nd            20.200000     2008-06-10T15:47:40.96Z  
1548.0168   56881   43.6223  -69.9463  57.0     8.0    13.361     29.131     1012.5        351.834345    334.407266    nd            nd            20.200000     2008-06-10T15:48:01.01Z  
1548.3494   56901   43.6230  -69.9446  56.0     8.0    13.345     29.129     1012.4        351.882525    334.452721    nd            nd            20.200000     2008-06-10T15:48:20.96Z  
1548.6835   56921   43.6238  -69.9430  56.0     7.9    13.318     29.174     1012.4        351.716677    334.301028    nd            nd            20.200000     2008-06-10T15:48:41.01Z  
1549.0162   56941   43.6246  -69.9413  57.0     7.9    13.311     29.211     1012.4        351.788444    334.364293    nd            nd            20.200000     2008-06-10T15:49:00.97Z  
1549.3502   56961   43.6254  -69.9396  61.0     7.9    13.308     29.247     1012.4        351.930129    334.500947    nd            nd            20.200000     2008-06-10T15:49:21.01Z  
1549.6829   56981   43.6261  -69.9379  58.0     8.0    13.291     29.257     1012.4        352.369670    334.923281    nd            nd            20.200000     2008-06-10T15:49:40.97Z  
1550.0170   57001   43.6269  -69.9363  54.0     7.9    13.296     29.223     1012.4        352.703059    335.240084    nd            nd            20.200000     2008-06-10T15:50:01.02Z  
1550.3496   57021   43.6277  -69.9347  55.0     7.8    13.311     29.188     1012.4        353.188578    335.701003    nd            nd            20.200000     2008-06-10T15:50:20.98Z  
1550.6837   57041   43.6285  -69.9331  57.0     7.9    13.345     29.152     1012.4        353.671893    336.147298    nd            nd            20.200000     2008-06-10T15:50:41.02Z  
1551.0163   57061   43.6293  -69.9314  56.0     7.9    13.346     29.112     1012.4        354.289597    336.736503    nd            nd            20.200000     2008-06-10T15:51:00.98Z  
1551.3504   57081   43.6301  -69.9298  57.0     7.9    13.337     29.100     1012.4        354.847270    337.261196    nd            nd            20.200000     2008-06-10T15:51:21.02Z  
1551.6830   57101   43.6308  -69.9282  55.0     7.9    13.368     29.068     1012.4        355.064418    337.453652    nd            nd            20.200000     2008-06-10T15:51:40.98Z  
1552.0171   57121   43.6316  -69.9265  57.0     8.0    13.435     28.968     1012.4        355.445004    337.787944    nd            nd            20.200000     2008-06-10T15:52:01.03Z  
1552.3498   57141   43.6324  -69.9249  55.0     7.9    13.465     28.929     1012.4        356.155922    338.449706    nd            nd            20.200000     2008-06-10T15:52:20.99Z  
1552.6838   57161   43.6332  -69.9233  54.0     7.9    13.483     28.964     1012.4        357.125655    339.362282    nd            nd            20.200000     2008-06-10T15:52:41.03Z  
1553.0165   57181   43.6341  -69.9217  56.0     7.9    13.484     28.956     1012.3        357.943121    340.137333    nd            nd            20.200000     2008-06-10T15:53:00.99Z  
1553.3506   57201   43.6348  -69.9200  56.0     7.7    13.425     28.939     1012.4        358.653701    340.832406    nd            nd            20.200000     2008-06-10T15:53:21.04Z  
1553.6832   57221   43.6356  -69.9185  57.0     7.5    13.390     28.885     1012.4        358.621711    340.816708    nd            nd            20.200000     2008-06-10T15:53:40.99Z  
1554.0173   57241   43.6363  -69.9169  55.0     7.5    13.356     28.842     1012.3        357.988061    340.222084    nd            nd            20.200000     2008-06-10T15:54:01.04Z  
1554.3499   57261   43.6371  -69.9154  56.0     7.5    13.308     28.839     1012.4        357.304138    339.589374    nd            nd            20.200000     2008-06-10T15:54:20.99Z  
1554.6840   57281   43.6378  -69.9138  57.0     7.4    13.253     28.881     1012.4        356.556926    338.901775    nd            nd            20.200000     2008-06-10T15:54:41.04Z  
1555.0166   57301   43.6385  -69.9123  55.0     7.3    13.195     28.901     1012.3        355.657894    338.059470    nd            nd            20.200000     2008-06-10T15:55:01.00Z  
1555.3507   57321   43.6393  -69.9108  56.0     7.1    13.113     28.936     1012.4        355.149897    337.610388    nd            nd            20.200000     2008-06-10T15:55:21.04Z  
1555.6834   57341   43.6400  -69.9094  56.0     7.1    13.026     29.032     1012.4        354.579994    337.093045    nd            nd            20.200000     2008-06-10T15:55:41.00Z  
1556.0160   57361   43.6407  -69.9079  56.0     7.1    12.966     29.065     1012.4        354.000499    336.562956    nd            nd            20.200000     2008-06-10T15:56:00.96Z  
1556.3501   57381   43.6414  -69.9064  55.0     7.1    12.929     29.130     1012.4        355.120250    337.647761    nd            nd            20.200000     2008-06-10T15:56:21.01Z  
1556.6827   57401   43.6421  -69.9049  57.0     7.1    12.839     29.272     1012.4        356.383081    338.882189    nd            nd            20.200000     2008-06-10T15:56:40.96Z  
1557.0168   57421   43.6428  -69.9035  56.0     7.1    12.794     29.368     1012.4        357.142018    339.630814    nd            nd            20.200000     2008-06-10T15:57:01.01Z  
1557.3494   57441   43.6435  -69.9020  56.0     7.1    12.810     29.390     1012.5        357.092883    339.587373    nd            nd            20.200000     2008-06-10T15:57:20.96Z  
1557.6835   57461   43.6442  -69.9005  55.0     7.1    12.792     29.376     1012.5        357.385804    339.879714    nd            nd            20.200000     2008-06-10T15:57:41.01Z  
1558.0162   57481   43.6450  -69.8991  55.0     7.1    12.767     29.370     1012.5        357.771222    340.257745    nd            nd            20.200000     2008-06-10T15:58:00.97Z  
1558.3502   57501   43.6457  -69.8976  55.0     7.1    12.769     29.367     1012.5        357.640842    340.135680    nd            nd            20.200000     2008-06-10T15:58:21.01Z  
1558.6829   57521   43.6464  -69.8961  57.0     7.1    12.781     29.356     1012.5        357.535757    340.027946    nd            nd            20.200000     2008-06-10T15:58:40.97Z  
1559.0170   57541   43.6471  -69.8946  56.0     7.3    12.791     29.345     1012.5        357.907793    340.375757    nd            nd            20.200000     2008-06-10T15:59:01.02Z  
1559.3496   57561   43.6478  -69.8931  55.0     7.3    12.803     29.346     1012.5        358.548549    340.975350    nd            nd            20.200000     2008-06-10T15:59:20.98Z  
1559.6837   57581   43.6486  -69.8916  56.0     7.4    12.852     29.355     1012.5        358.924060    341.315296    nd            nd            20.200000     2008-06-10T15:59:41.02Z  
1600.0163   57601   43.6493  -69.8900  56.0     7.4    12.927     29.350     1012.5        359.354158    341.698085    nd            nd            18.855556     2008-06-10T16:00:00.98Z  
1600.3504   57621   43.6501  -69.8885  56.0     7.4    12.934     29.331     1012.5        359.566977    341.898513    nd            nd            18.000000     2008-06-10T16:00:21.02Z  
1600.6830   57641   43.6508  -69.8871  55.0     6.9    12.921     29.332     1012.5        359.945411    342.267076    nd            nd            18.000000     2008-06-10T16:00:40.98Z  
1601.0171   57661   43.6515  -69.8857  57.0     6.8    12.936     29.326     1012.5        360.246208    342.550087    nd            nd            18.000000     2008-06-10T16:01:01.03Z  
1601.3498   57681   43.6521  -69.8842  60.0     6.8    12.946     29.324     1012.5        360.279182    342.581614    nd            nd            18.000000     2008-06-10T16:01:20.99Z  
1601.6838   57701   43.6527  -69.8827  59.0     6.8    12.938     29.328     1012.5        360.082012    342.400147    nd            nd            18.000000     2008-06-10T16:01:41.03Z  
1602.0165   57721   43.6533  -69.8812  61.0     6.8    12.941     29.349     1012.5        359.983617    342.303321    nd            nd            18.000000     2008-06-10T16:02:00.99Z  
1602.3506   57741   43.6540  -69.8798  57.0     6.9    12.960     29.372     1012.5        359.674425    341.999631    nd            nd            18.000000     2008-06-10T16:02:21.04Z  
1602.6832   57761   43.6546  -69.8783  60.0     6.8    12.945     29.405     1012.5        359.602039    341.938122    nd            nd            18.000000     2008-06-10T16:02:40.99Z  
1603.0173   57781   43.6553  -69.8769  57.0     6.8    12.902     29.424     1012.5        359.594166    341.940876    nd            nd            18.000000     2008-06-10T16:03:01.04Z  
1603.3499   57801   43.6559  -69.8754  59.0     6.8    12.927     29.416     1012.5        359.041299    341.408670    nd            nd            18.000000     2008-06-10T16:03:20.99Z  
1603.6840   57821   43.6565  -69.8740  58.0     6.8    12.871     29.399     1012.5        358.286311    340.707732    nd            nd            18.000000     2008-06-10T16:03:41.04Z  
1604.0166   57841   43.6571  -69.8725  60.0     6.9    12.790     29.334     1012.5        357.484349    339.970179    nd            nd            18.000000     2008-06-10T16:04:01.00Z  
1604.3493   57861   43.6578  -69.8710  60.0     6.9    12.587     29.246     1012.5        357.338734    339.896407    nd            nd            18.000000     2008-06-10T16:04:20.96Z  
1604.6834   57881   43.6584  -69.8696  59.0     6.9    12.509     29.212     1012.5        358.221151    340.759734    nd            nd            18.000000     2008-06-10T16:04:41.00Z  
1605.0160   57901   43.6590  -69.8681  59.0     6.8    12.457     29.159     1012.5        358.460214    341.006298    nd            nd            18.000000     2008-06-10T16:05:00.96Z  
1605.3501   57921   43.6596  -69.8666  59.0     6.9    12.388     29.161     1012.5        358.031839    340.622712    nd            nd            18.000000     2008-06-10T16:05:21.01Z  
1605.6827   57941   43.6603  -69.8652  61.0     6.8    12.352     29.178     1012.5        357.196034    339.848064    nd            nd            18.000000     2008-06-10T16:05:40.96Z  
1606.0168   57961   43.6609  -69.8637  59.0     6.8    12.351     29.184     1012.5        356.520942    339.210766    nd            nd            18.000000     2008-06-10T16:06:01.01Z  
1606.3494   57981   43.6615  -69.8622  59.0     6.8    12.372     29.158     1012.5        356.113121    338.822608    nd            nd            18.000000     2008-06-10T16:06:20.96Z  
1606.6835   58001   43.6622  -69.8608  55.0     6.8    12.362     29.111     1012.5        356.330581    339.032405    nd            nd            18.000000     2008-06-10T16:06:41.01Z  
1607.0162   58021   43.6629  -69.8594  55.0     6.8    12.331     29.085     1012.6        356.943067    339.627869    nd            nd            18.000000     2008-06-10T16:07:00.97Z  
1607.3502   58041   43.6636  -69.8580  55.0     6.8    12.303     29.063     1012.6        357.231216    339.911343    nd            nd            18.000000     2008-06-10T16:07:21.01Z  
1607.6829   58061   43.6643  -69.8566  55.0     6.8    12.268     29.021     1012.6        357.560069    340.238281    nd            nd            18.000000     2008-06-10T16:07:40.97Z  
1608.0170   58081   43.6649  -69.8552  57.0     6.9    12.245     28.983     1012.6        357.877265    340.545055    nd            nd            18.000000     2008-06-10T16:08:01.02Z  
1608.3496   58101   43.6656  -69.8538  56.0     6.8    12.235     28.972     1012.6        357.704133    340.388317    nd            nd            18.000000     2008-06-10T16:08:20.98Z  
1608.6837   58121   43.6663  -69.8524  57.0     6.8    12.252     28.934     1012.6        357.630076    340.314069    nd            nd            18.000000     2008-06-10T16:08:41.02Z  
1609.0163   58141   43.6670  -69.8510  56.0     6.8    12.234     28.907     1012.6        357.899811    340.580284    nd            nd            18.000000     2008-06-10T16:09:00.98Z  
1609.3504   58161   43.6677  -69.8496  56.0     6.9    12.213     28.901     1012.6        358.159433    340.837913    nd            nd            18.000000     2008-06-10T16:09:21.02Z  
1609.6830   58181   43.6684  -69.8481  57.0     6.8    12.205     28.926     1012.6        358.193676    340.875037    nd            nd            18.000000     2008-06-10T16:09:40.98Z  
1610.0171   58201   43.6691  -69.8467  55.0     6.8    12.266     28.944     1012.6        357.970749    340.646586    nd            nd            18.000000     2008-06-10T16:10:01.03Z  
1610.3498   58221   43.6697  -69.8453  56.0     6.8    12.301     28.895     1012.6        358.531674    341.179332    nd            nd            18.000000     2008-06-10T16:10:20.99Z  
1610.6838   58241   43.6704  -69.8439  55.0     6.8    12.279     28.826     1012.7        359.414422    342.031920    nd            nd            18.000000     2008-06-10T16:10:41.03Z  
1611.0165   58261   43.6711  -69.8425  57.0     6.8    12.223     28.782     1012.7        360.285621    342.886376    nd            nd            18.000000     2008-06-10T16:11:00.99Z  
1611.3506   58281   43.6718  -69.8411  57.0     6.9    12.170     28.754     1012.7        360.581884    343.184563    nd            nd            18.000000     2008-06-10T16:11:21.04Z  
1611.6832   58301   43.6725  -69.8396  56.0     6.8    12.156     28.723     1012.7        360.404187    343.021117    nd            nd            18.000000     2008-06-10T16:11:40.99Z  
1612.0173   58321   43.6731  -69.8382  56.0     6.9    12.138     28.692     1012.7        360.122651    342.757189    nd            nd            18.000000     2008-06-10T16:12:01.04Z  
1612.3499   58341   43.6738  -69.8368  56.0     6.9    12.134     28.676     1012.7        360.111034    342.743078    nd            nd            18.000000     2008-06-10T16:12:20.99Z  
1612.6840   58361   43.6745  -69.8354  54.0     6.8    12.163     28.640     1012.7        360.054271    342.684417    nd            nd            18.000000     2008-06-10T16:12:41.04Z  
1613.0166   58381   43.6753  -69.8341  50.0     6.8    12.115     28.620     1012.7        360.360346    342.993760    nd            nd            18.000000     2008-06-10T16:13:01.00Z  
1613.3493   58401   43.6760  -69.8327  54.0     6.9    12.069     28.675     1012.7        360.356731    343.016178    nd            nd            18.000000     2008-06-10T16:13:20.96Z  
1613.6834   58421   43.6768  -69.8313  54.0     6.8    12.114     28.737     1012.8        359.848561    342.527683    nd            nd            18.000000     2008-06-10T16:13:41.00Z  
1614.0160   58441   43.6775  -69.8300  53.0     6.8    12.183     28.769     1012.8        359.871170    342.534061    nd            nd            18.000000     2008-06-10T16:14:00.96Z  
1614.3501   58461   43.6782  -69.8286  55.0     6.8    12.257     28.730     1012.8        360.654301    343.256271    nd            nd            18.000000     2008-06-10T16:14:21.01Z  
1614.6827   58481   43.6789  -69.8272  55.0     6.8    12.378     28.631     1012.8        362.087724    344.589555    nd            nd            18.000000     2008-06-10T16:14:40.96Z  
1615.0168   58501   43.6796  -69.8258  54.0     6.9    12.478     28.528     1012.8        364.222782    346.583894    nd            nd            18.000000     2008-06-10T16:15:01.01Z  
1615.3494   58521   43.6803  -69.8244  54.0     6.8    12.522     28.462     1012.8        366.896841    349.109913    nd            nd            18.000000     2008-06-10T16:15:20.96Z  
1615.6835   58541   43.6811  -69.8230  53.0     7.3    12.490     28.434     1012.7        369.534463    351.619685    nd            nd            18.000000     2008-06-10T16:15:41.01Z  
1616.0162   58561   43.6818  -69.8214  60.0     7.7    12.456     28.359     1012.7        370.649050    352.686579    nd            nd            18.000000     2008-06-10T16:16:00.97Z  
1616.3502   58581   43.6825  -69.8198  59.0     7.7    12.454     28.274     1012.7        370.648455    352.687499    nd            nd            18.000000     2008-06-10T16:16:21.01Z  
1616.6829   58601   43.6832  -69.8181  57.0     8.0    12.467     28.192     1012.7        370.471463    352.511046    nd            nd            18.000000     2008-06-10T16:16:40.97Z  
1617.0170   58621   43.6840  -69.8164  56.0     8.1    12.481     28.090     1012.7        370.511648    352.543785    nd            nd            18.000000     2008-06-10T16:17:01.02Z  
1617.3496   58641   43.6849  -69.8148  54.0     8.1    12.513     28.009     1012.7        370.333425    352.359387    nd            nd            18.000000     2008-06-10T16:17:20.98Z  
1617.6837   58661   43.6857  -69.8132  52.0     8.1    12.556     27.955     1012.7        370.868179    352.855225    nd            nd            18.000000     2008-06-10T16:17:41.02Z  
1618.0163   58681   43.6866  -69.8116  53.0     7.9    12.582     27.905     1012.7        371.423302    353.372165    nd            nd            18.000000     2008-06-10T16:18:00.98Z  
1618.3504   58701   43.6874  -69.8100  54.0     8.0    12.589     27.905     1012.7        372.463019    354.349996    nd            nd            18.000000     2008-06-10T16:18:21.02Z  
1618.6830   58721   43.6883  -69.8084  55.0     8.0    12.798     27.682     1012.7        373.419863    355.188136    nd            nd            18.000000     2008-06-10T16:18:40.98Z  
1619.0171   58741   43.6891  -69.8067  55.0     8.0    12.945     27.470     1012.7        375.555096    357.161858    nd            nd            18.000000     2008-06-10T16:19:01.03Z  
1619.3498   58761   43.6899  -69.8051  53.0     8.0    12.946     27.410     1012.6        377.944958    359.430779    nd            nd            18.000000     2008-06-10T16:19:20.99Z  
1619.6838   58781   43.6908  -69.8035  53.0     8.0    12.990     27.418     1012.6        378.926164    360.346330    nd            nd            18.000000     2008-06-10T16:19:41.03Z  
1620.0165   58801   43.6916  -69.8019  52.0     8.0    13.141     27.426     1012.6        376.384675    357.882236    nd            nd            18.000000     2008-06-10T16:20:00.99Z  
1620.3506   58821   43.6925  -69.8003  54.0     7.9    13.257     27.501     1012.7        371.913459    353.595239    nd            nd            18.000000     2008-06-10T16:20:21.04Z  
1620.6832   58841   43.6933  -69.7987  54.0     7.9    13.203     27.765     1012.7        368.032764    349.922120    nd            nd            18.000000     2008-06-10T16:20:40.99Z  
1621.0173   58861   43.6942  -69.7972  51.0     7.9    13.105     27.959     1012.7        364.770003    346.853126    nd            nd            18.000000     2008-06-10T16:21:01.04Z  
1621.3499   58881   43.6950  -69.7956  52.0     7.9    12.934     27.779     1012.7        363.942013    346.124104    nd            nd            18.000000     2008-06-10T16:21:20.99Z  
1621.6840   58901   43.6959  -69.7941  53.0     7.8    12.682     26.999     1012.7        364.091935    346.348300    nd            nd            18.000000     2008-06-10T16:21:41.04Z  
1622.0166   58921   43.6967  -69.7926  51.0     7.7    12.515     26.754     1012.7        369.168894    351.234528    nd            nd            18.000000     2008-06-10T16:22:01.00Z  
1622.3493   58941   43.6976  -69.7911  53.0     7.8    12.410     26.654     1012.7        375.456067    357.249917    nd            nd            18.000000     2008-06-10T16:22:20.96Z  
1622.6834   58961   43.6984  -69.7895  51.0     7.7    12.410     26.214     1012.7        379.185554    360.800927    nd            nd            18.000000     2008-06-10T16:22:41.00Z  
1623.0160   58981   43.6993  -69.7880  53.0     7.7    12.485     25.905     1012.7        381.232490    362.722292    nd            nd            18.000000     2008-06-10T16:23:00.96Z  
1623.3501   59001   43.7001  -69.7865  54.0     7.2    12.568     25.583     1012.7        382.275600    363.690133    nd            nd            18.000000     2008-06-10T16:23:21.01Z  
1623.6827   59021   43.7005  -69.7851  81.0     5.8    12.685     25.332     1012.7        383.176698    364.523189    nd            nd            18.000000     2008-06-10T16:23:40.96Z  
1624.0168   59041   43.7006  -69.7838  85.0     5.0    12.773     25.208     1012.7        384.208502    365.477070    nd            nd            18.000000     2008-06-10T16:24:01.01Z  
1624.3494   59061   43.7009  -69.7828  53.0     3.3    12.826     25.242     1012.8        385.257988    366.459837    nd            nd            18.000000     2008-06-10T16:24:20.96Z  
1624.6835   59081   43.7011  -69.7826  235.0    0.8    12.777     25.636     1012.7        386.362862    367.525615    nd            nd            18.000000     2008-06-10T16:24:41.01Z  
1625.0162   59101   43.7011  -69.7827  247.0    0.7    12.593     26.134     1012.8        387.360948    368.554269    nd            nd            18.000000     2008-06-10T16:25:00.97Z  
1625.3502   59121   43.7010  -69.7829  244.0    0.7    12.459     26.301     1012.8        389.172498    370.330947    nd            nd            18.000000     2008-06-10T16:25:21.01Z  
1625.6829   59141   43.7009  -69.7830  235.0    0.8    12.317     26.641     1012.8        389.419381    370.614925    nd            nd            18.000000     2008-06-10T16:25:40.97Z  
1626.0170   59161   43.7008  -69.7832  235.0    0.8    12.077     26.946     1012.8        388.453177    369.786096    nd            nd            18.000000     2008-06-10T16:26:01.02Z  
1626.3496   59181   43.7008  -69.7834  235.0    0.8    12.072     26.738     1012.8        386.584480    368.006007    nd            nd            18.000000     2008-06-10T16:26:20.98Z  
1626.6837   59201   43.7007  -69.7835  234.0    0.8    12.078     26.680     1012.8        384.754975    366.252244    nd            nd            18.000000     2008-06-10T16:26:41.02Z  
1627.0163   59221   43.7006  -69.7837  235.0    0.8    12.083     26.587     1012.8        383.708054    365.249922    nd            nd            18.000000     2008-06-10T16:27:00.98Z  
1627.3504   59241   43.7005  -69.7839  234.0    0.8    12.101     26.528     1012.8        382.926543    364.492952    nd            nd            18.000000     2008-06-10T16:27:21.02Z  
1627.6830   59261   43.7004  -69.7840  238.0    0.8    12.150     26.406     1012.7        382.305667    363.879378    nd            nd            18.000000     2008-06-10T16:27:40.98Z  
1628.0171   59281   43.7003  -69.7842  236.0    0.7    12.202     26.361     1012.8        382.183694    363.768906    nd            nd            18.000000     2008-06-10T16:28:01.03Z  
1628.3498   59301   43.7003  -69.7843  227.0    0.5    12.211     26.374     1012.9        382.338246    363.932741    nd            nd            18.000000     2008-06-10T16:28:20.99Z  
1628.6838   59321   43.7002  -69.7845  230.0    0.6    12.101     26.923     1012.9        382.486171    364.110591    nd            nd            18.000000     2008-06-10T16:28:41.03Z  
1629.0165   59341   43.7002  -69.7846  237.0    0.7    11.817     27.731     1012.8        382.474536    364.189020    nd            nd            18.000000     2008-06-10T16:29:00.99Z  
1629.3506   59361   43.7001  -69.7847  231.0    0.8    11.760     27.455     1012.8        381.370733    363.142580    nd            nd            18.000000     2008-06-10T16:29:21.04Z  
1629.6832   59381   43.7000  -69.7849  233.0    0.8    11.797     27.516     1012.8        379.317336    361.166256    nd            nd            18.000000     2008-06-10T16:29:40.99Z  
1630.0173   59401   43.6999  -69.7850  243.0    0.5    11.672     27.890     1012.8        378.319345    360.263139    nd            nd            18.000000     2008-06-10T16:30:01.04Z  
1630.3499   59421   43.6999  -69.7851  239.0    0.6    11.656     27.842     1012.8        377.103227    359.099656    nd            nd            18.000000     2008-06-10T16:30:20.99Z  
1630.6840   59441   43.6998  -69.7853  250.0    0.4    11.561     28.146     1012.8        376.135421    358.215852    nd            nd            18.000000     2008-06-10T16:30:41.04Z  
1631.0166   59461   43.6998  -69.7854  242.0    0.6    11.539     28.047     1012.8        375.080593    357.221270    nd            nd            18.000000     2008-06-10T16:31:01.00Z  
1631.3507   59481   43.6997  -69.7855  238.0    0.7    11.584     27.769     1012.8        374.342614    356.500376    nd            nd            18.000000     2008-06-10T16:31:21.04Z  
1631.6834   59501   43.6997  -69.7857  251.0    0.5    11.751     27.141     1012.8        374.185595    356.305188    nd            nd            18.000000     2008-06-10T16:31:41.00Z  
1632.0160   59521   43.6997  -69.7858  245.0    0.6    11.921     26.771     1012.8        374.558545    356.603359    nd            nd            18.000000     2008-06-10T16:32:00.96Z  
1632.3501   59541   43.6996  -69.7859  242.0    0.7    11.960     26.866     1012.8        375.519016    357.510371    nd            nd            18.000000     2008-06-10T16:32:21.01Z  
1632.6827   59561   43.6996  -69.7861  252.0    0.6    12.024     26.650     1012.8        376.664488    358.581010    nd            nd            18.000000     2008-06-10T16:32:40.96Z  
1633.0168   59581   43.6995  -69.7862  244.0    0.7    12.029     26.707     1012.8        377.683442    359.534379    nd            nd            18.000000     2008-06-10T16:33:01.01Z  
1633.3494   59601   43.6994  -69.7864  238.0    0.8    12.038     26.682     1012.7        378.366856    360.154458    nd            nd            18.000000     2008-06-10T16:33:20.96Z  
1633.6835   59621   43.6993  -69.7865  167.0    1.4    12.041     26.701     1012.7        378.953751    360.707176    nd            nd            18.000000     2008-06-10T16:33:41.01Z  
1634.0162   59641   43.6993  -69.7862  68.0     1.9    12.092     26.606     1012.7        379.227202    360.949473    nd            nd            18.000000     2008-06-10T16:34:00.97Z  
1634.3502   59661   43.6994  -69.7857  68.0     2.5    12.056     26.855     1012.7        379.552226    361.265765    nd            nd            18.000000     2008-06-10T16:34:21.01Z  
1634.6829   59681   43.6996  -69.7850  78.0     3.1    11.936     27.251     1012.7        380.037758    361.769933    nd            nd            18.000000     2008-06-10T16:34:40.97Z  
1635.0170   59701   43.6997  -69.7844  71.0     1.5    11.927     26.998     1012.7        380.118922    361.846430    nd            nd            18.000000     2008-06-10T16:35:01.02Z  
1635.3496   59721   43.6997  -69.7844  292.0    0.6    12.068     26.587     1012.7        379.611242    361.314132    nd            nd            18.000000     2008-06-10T16:35:20.98Z  
1635.6837   59741   43.6997  -69.7846  266.0    0.7    12.161     26.421     1012.7        379.754538    361.428221    nd            nd            18.000000     2008-06-10T16:35:41.02Z  
1636.0163   59761   43.6997  -69.7848  255.0    0.7    12.203     26.366     1012.7        380.809031    362.419630    nd            nd            18.000000     2008-06-10T16:36:00.98Z  
1636.3504   59781   43.6997  -69.7850  251.0    0.7    12.239     26.313     1012.7        381.671656    363.225230    nd            nd            18.000000     2008-06-10T16:36:21.02Z  
1636.6830   59801   43.6996  -69.7851  246.0    0.7    12.273     26.272     1012.7        382.294406    363.805753    nd            nd            18.000000     2008-06-10T16:36:40.98Z  
1637.0171   59821   43.6996  -69.7853  244.0    0.7    12.313     26.215     1012.7        382.881449    364.352958    nd            nd            18.000000     2008-06-10T16:37:01.03Z  
1637.3498   59841   43.6995  -69.7855  247.0    0.7    12.349     26.203     1012.7        383.481156    364.909302    nd            nd            18.000000     2008-06-10T16:37:20.99Z  
1637.6838   59861   43.6995  -69.7856  244.0    0.7    12.368     26.163     1012.7        383.890320    365.290670    nd            nd            18.000000     2008-06-10T16:37:41.03Z  
1638.0165   59881   43.6994  -69.7858  242.0    0.7    12.384     26.136     1012.7        384.343879    365.720756    nd            nd            18.000000     2008-06-10T16:38:00.99Z  
1638.3506   59901   43.6993  -69.7860  241.0    0.8    12.395     26.138     1012.7        384.612236    365.971049    nd            nd            18.000000     2008-06-10T16:38:21.04Z  
1638.6832   59921   43.6993  -69.7861  240.0    0.8    12.414     26.125     1012.7        384.873852    366.213352    nd            nd            18.000000     2008-06-10T16:38:40.99Z  
1639.0173   59941   43.6992  -69.7863  240.0    0.8    12.449     26.123     1012.7        384.991056    366.310343    nd            nd            18.000000     2008-06-10T16:39:01.04Z  
1639.3499   59961   43.6991  -69.7865  240.0    0.8    12.452     26.144     1012.7        385.295936    366.605316    nd            nd            18.000000     2008-06-10T16:39:20.99Z  
1639.6840   59981   43.6990  -69.7867  239.0    0.8    12.422     26.161     1012.7        385.584464    366.891006    nd            nd            18.000000     2008-06-10T16:39:41.04Z  
1640.0166   60001   43.6990  -69.7868  238.0    0.8    12.369     26.280     1012.7        385.668032    366.990288    nd            nd            18.000000     2008-06-10T16:40:01.00Z  
1640.3507   60021   43.6989  -69.7870  237.0    0.8    12.257     26.508     1012.7        385.687269    367.042460    nd            nd            18.000000     2008-06-10T16:40:21.04Z  
1640.6834   60041   43.6988  -69.7872  236.0    0.8    12.139     26.766     1012.7        385.221006    366.650016    nd            nd            18.000000     2008-06-10T16:40:41.00Z  
1641.0160   60061   43.6987  -69.7874  237.0    0.8    12.066     26.825     1012.7        384.302639    365.802874    nd            nd            18.000000     2008-06-10T16:41:00.96Z  
1641.3501   60081   43.6986  -69.7875  237.0    0.8    12.053     26.782     1012.7        382.975394    364.541949    nd            nd            18.000000     2008-06-10T16:41:21.01Z  
1641.6827   60101   43.6986  -69.7877  236.0    0.8    12.080     26.741     1012.7        382.064281    363.670400    nd            nd            18.000000     2008-06-10T16:41:40.96Z  
1642.0168   60121   43.6985  -69.7878  239.0    0.8    12.094     26.768     1012.7        381.521315    363.147480    nd            nd            18.000000     2008-06-10T16:42:01.01Z  
1642.3494   60141   43.6984  -69.7880  242.0    0.7    12.106     26.748     1012.7        381.326958    362.958955    nd            nd            18.000000     2008-06-10T16:42:20.96Z  
1642.6835   60161   43.6986  -69.7882  334.0    1.8    12.102     26.790     1012.7        381.090390    362.729590    nd            nd            18.000000     2008-06-10T16:42:41.01Z  
1643.0162   60181   43.6990  -69.7882  36.0     3.0    12.093     26.811     1012.7        380.996266    362.634337    nd            nd            18.000000     2008-06-10T16:43:00.97Z  
1643.3502   60201   43.6996  -69.7878  28.0     3.9    12.144     26.639     1012.7        380.890740    362.510061    nd            nd            18.000000     2008-06-10T16:43:21.01Z  
1643.6829   60221   43.7002  -69.7872  38.0     4.4    12.228     26.418     1012.7        380.717467    362.316389    nd            nd            18.000000     2008-06-10T16:43:40.97Z  
1644.0170   60241   43.7008  -69.7864  43.0     4.7    12.287     26.297     1012.7        381.344299    362.890914    nd            nd            18.000000     2008-06-10T16:44:01.02Z  
1644.3496   60261   43.7014  -69.7856  44.0     4.8    12.351     26.146     1012.7        381.983392    363.477021    nd            nd            18.000000     2008-06-10T16:44:20.98Z  
1644.6837   60281   43.7021  -69.7847  45.0     5.2    12.423     25.958     1012.6        382.793376    364.210785    nd            nd            18.000000     2008-06-10T16:44:41.02Z  
1645.0163   60301   43.7028  -69.7838  42.0     5.9    12.467     26.081     1012.6        383.461611    364.817569    nd            nd            18.000000     2008-06-10T16:45:00.98Z  
1645.3504   60321   43.7037  -69.7828  36.0     6.6    12.341     26.456     1012.6        384.349196    365.693391    nd            nd            18.000000     2008-06-10T16:45:21.02Z  
1645.6830   60341   43.7047  -69.7818  38.0     6.8    12.270     26.379     1012.5        385.188016    366.504860    nd            nd            18.000000     2008-06-10T16:45:40.98Z  
1646.0171   60361   43.7057  -69.7807  39.0     7.1    12.262     26.285     1012.5        385.299615    366.610247    nd            nd            18.000000     2008-06-10T16:46:01.03Z  
1646.3498   60381   43.7067  -69.7796  36.0     7.1    12.257     26.220     1012.5        385.215047    366.531780    nd            nd            18.000000     2008-06-10T16:46:20.99Z  
1646.6838   60401   43.7077  -69.7785  39.0     7.4    12.238     26.250     1012.5        385.324289    366.638912    nd            nd            18.000000     2008-06-10T16:46:41.03Z  
1647.0165   60421   43.7087  -69.7774  37.0     7.4    12.201     26.347     1012.5        385.349519    366.680758    nd            nd            18.000000     2008-06-10T16:47:00.99Z  
1647.3506   60441   43.7098  -69.7762  39.0     7.5    12.173     26.349     1012.5        385.576174    366.905932    nd            nd            18.000000     2008-06-10T16:47:21.04Z  
1647.6832   60461   43.7108  -69.7751  36.0     7.6    12.177     26.257     1012.5        385.789903    367.100982    nd            nd            18.000000     2008-06-10T16:47:40.99Z  
1648.0173   60481   43.7120  -69.7740  33.0     7.5    12.208     26.133     1012.5        385.956371    367.254360    nd            nd            18.000000     2008-06-10T16:48:01.04Z  
1648.3499   60501   43.7131  -69.7731  27.0     7.5    12.228     26.038     1012.5        386.216595    367.504088    nd            nd            18.000000     2008-06-10T16:48:20.99Z  
1648.6840   60521   43.7144  -69.7723  23.0     7.5    12.249     25.953     1012.5        386.572910    367.830421    nd            nd            18.000000     2008-06-10T16:48:41.04Z  
1649.0166   60541   43.7156  -69.7716  23.0     7.5    12.231     25.974     1012.6        387.030005    368.282275    nd            nd            18.000000     2008-06-10T16:49:01.00Z  
1649.3493   60561   43.7169  -69.7708  23.0     7.5    12.244     25.853     1012.6        387.570215    368.813721    nd            nd            18.000000     2008-06-10T16:49:20.96Z  
1649.6834   60581   43.7181  -69.7700  25.0     7.6    12.257     25.787     1012.6        388.047389    369.264525    nd            nd            18.000000     2008-06-10T16:49:41.00Z  
1650.0160   60601   43.7193  -69.7692  25.0     7.4    12.252     25.763     1012.7        388.551046    369.758011    nd            nd            18.000000     2008-06-10T16:50:00.96Z  
1650.3501   60621   43.7205  -69.7684  26.0     7.5    12.253     25.708     1012.6        388.841220    370.026103    nd            nd            18.000000     2008-06-10T16:50:21.01Z  
1650.6827   60641   43.7217  -69.7677  23.0     7.5    12.269     25.585     1012.6        389.347872    370.501229    nd            nd            18.000000     2008-06-10T16:50:40.96Z  
1651.0168   60661   43.7230  -69.7669  22.0     7.6    12.303     25.435     1012.6        389.477289    370.603293    nd            nd            18.000000     2008-06-10T16:51:01.01Z  
1651.3494   60681   43.7242  -69.7662  23.0     7.3    12.328     25.326     1012.6        389.671727    370.789617    nd            nd            18.000000     2008-06-10T16:51:20.96Z  
1651.6835   60701   43.7254  -69.7654  23.0     7.6    12.376     25.083     1012.6        389.688280    370.765521    nd            nd            18.000000     2008-06-10T16:51:41.01Z  
1652.0162   60721   43.7267  -69.7646  25.0     7.4    12.454     24.763     1012.6        390.001074    371.047041    nd            nd            18.000000     2008-06-10T16:52:00.97Z  
1652.3502   60741   43.7278  -69.7638  28.0     7.3    12.571     24.340     1012.6        390.021308    371.032540    nd            nd            18.000000     2008-06-10T16:52:21.01Z  
1652.6829   60761   43.7290  -69.7630  27.0     7.4    12.659     24.151     1012.6        390.156755    371.125945    nd            nd            18.000000     2008-06-10T16:52:40.97Z  
1653.0170   60781   43.7302  -69.7621  27.0     7.5    12.710     23.928     1012.6        390.523727    371.448307    nd            nd            18.000000     2008-06-10T16:53:01.02Z  
1653.3496   60801   43.7314  -69.7614  16.0     7.4    12.813     23.630     1012.6        390.674595    371.550158    nd            nd            18.000000     2008-06-10T16:53:20.98Z  
1653.6837   60821   43.7327  -69.7613  271.0    7.1    12.869     23.517     1012.6        391.165239    372.019683    nd            nd            18.000000     2008-06-10T16:53:41.02Z  
1654.0163   60841   43.7340  -69.7617  346.0    7.4    12.934     23.325     1012.6        391.564276    372.362030    nd            nd            18.000000     2008-06-10T16:54:00.98Z  
1654.3504   60861   43.7353  -69.7622  342.0    7.3    12.960     23.259     1012.6        392.068207    372.843011    nd            nd            18.000000     2008-06-10T16:54:21.02Z  
1654.6830   60881   43.7365  -69.7628  339.0    7.3    12.994     23.072     1012.6        392.564140    373.300297    nd            nd            18.000000     2008-06-10T16:54:40.98Z  
1655.0171   60901   43.7377  -69.7636  331.0    7.3    13.035     22.936     1012.7        392.950203    373.660604    nd            nd            18.000000     2008-06-10T16:55:01.03Z  
1655.3498   60921   43.7389  -69.7646  325.0    7.6    13.065     22.828     1012.7        393.207997    373.898906    nd            nd            18.000000     2008-06-10T16:55:20.99Z  
1655.6838   60941   43.7400  -69.7657  322.0    7.6    13.073     22.786     1012.7        393.765340    374.432092    nd            nd            18.000000     2008-06-10T16:55:41.03Z  
1656.0165   60961   43.7410  -69.7668  322.0    7.4    13.085     22.699     1012.7        394.578759    375.209831    nd            nd            18.000000     2008-06-10T16:56:00.99Z  
1656.3506   60981   43.7420  -69.7680  316.0    7.5    13.137     22.462     1012.7        395.467113    376.033128    nd            nd            18.000000     2008-06-10T16:56:21.04Z  
1656.6832   61001   43.7430  -69.7693  313.0    7.4    13.186     22.290     1012.7        396.323722    376.840651    nd            nd            18.000000     2008-06-10T16:56:40.99Z  
1657.0173   61021   43.7439  -69.7707  313.0    7.4    13.236     22.118     1012.8        396.857801    377.337725    nd            nd            18.000000     2008-06-10T16:57:01.04Z  
1657.3499   61041   43.7448  -69.7720  312.0    7.5    13.272     22.027     1012.8        396.893859    377.365388    nd            nd            18.000000     2008-06-10T16:57:20.99Z  
1657.6840   61061   43.7457  -69.7734  311.0    7.6    13.322     21.777     1012.8        396.811835    377.274786    nd            nd            18.000000     2008-06-10T16:57:41.04Z  
1658.0166   61081   43.7466  -69.7748  312.0    7.1    13.386     21.501     1012.8        397.048978    377.482914    nd            nd            18.000000     2008-06-10T16:58:01.00Z  
1658.3493   61101   43.7474  -69.7759  317.0    5.3    13.442     21.236     1012.9        398.538849    378.895038    nd            nd            18.000000     2008-06-10T16:58:20.96Z  
1658.6834   61121   43.7480  -69.7766  318.0    4.1    13.490     21.043     1012.9        402.151886    382.315203    nd            nd            18.000000     2008-06-10T16:58:41.00Z  
1659.0160   61141   43.7485  -69.7772  321.0    3.4    13.540     20.842     1012.9        402.061212    382.212696    nd            nd            18.000000     2008-06-10T16:59:00.96Z  
1659.3501   61161   43.7490  -69.7777  325.0    3.5    13.596     20.613     1012.9        401.278019    381.448979    nd            nd            18.000000     2008-06-10T16:59:21.01Z  
1659.6827   61181   43.7496  -69.7782  328.0    4.2    13.655     20.432     1012.9        401.204452    381.346531    nd            nd            18.000000     2008-06-10T16:59:40.96Z  
1700.0168   61201   43.7503  -69.7788  330.0    4.3    13.725     20.322     1012.8        403.947576    383.917545    nd            nd            17.938889     2008-06-10T17:00:01.01Z  
1700.3494   61221   43.7510  -69.7793  334.0    4.2    13.752     20.301     1012.8        405.238744    385.133840    nd            nd            17.900000     2008-06-10T17:00:20.96Z  
1700.6835   61241   43.7517  -69.7797  336.0    4.2    13.791     20.154     1012.8        404.992458    384.881430    nd            nd            17.900000     2008-06-10T17:00:41.01Z  
1701.0162   61261   43.7524  -69.7801  337.0    4.2    13.822     20.056     1012.8        404.546956    384.443162    nd            nd            17.900000     2008-06-10T17:01:00.97Z  
1701.3502   61281   43.7531  -69.7805  337.0    4.2    13.855     19.897     1012.8        404.351381    384.238843    nd            nd            17.900000     2008-06-10T17:01:21.01Z  
1701.6829   61301   43.7538  -69.7809  339.0    4.2    13.908     19.722     1012.8        404.261066    384.135917    nd            nd            17.900000     2008-06-10T17:01:40.97Z  
1702.0170   61321   43.7545  -69.7813  340.0    4.2    13.965     19.585     1012.8        404.538243    384.371565    nd            nd            17.900000     2008-06-10T17:02:01.02Z  
1702.3496   61341   43.7552  -69.7816  341.0    4.3    14.016     19.447     1012.8        405.152441    384.929084    nd            nd            17.900000     2008-06-10T17:02:20.98Z  
1702.6837   61361   43.7559  -69.7820  339.0    4.3    14.060     19.308     1012.8        405.986316    385.701768    nd            nd            17.900000     2008-06-10T17:02:41.02Z  
1703.0163   61381   43.7565  -69.7824  331.0    2.2    14.112     19.168     1012.8        406.766553    386.427737    nd            nd            17.900000     2008-06-10T17:03:00.98Z  
1703.3504   61401   43.7567  -69.7825  328.0    0.8    14.127     19.151     1012.8        407.581503    387.188088    nd            nd            17.900000     2008-06-10T17:03:21.02Z  
1703.6830   61421   43.7568  -69.7826  328.0    0.5    14.135     19.182     1012.8        408.599311    388.149856    nd            nd            17.900000     2008-06-10T17:03:40.98Z  
1704.0171   61441   43.7569  -69.7826  133.0    0.1    14.145     19.173     1012.8        409.682759    389.172799    nd            nd            17.900000     2008-06-10T17:04:01.03Z  
1704.3498   61461   43.7569  -69.7826  185.0    0.1    14.193     18.940     1012.8        410.508565    389.929594    nd            nd            17.900000     2008-06-10T17:04:20.99Z  
1704.6838   61481   43.7568  -69.7826  155.0    0.2    14.298     18.589     1012.8        411.301599    390.647854    nd            nd            17.900000     2008-06-10T17:04:41.03Z  
1705.0165   61501   43.7568  -69.7826  45.0     0.2    14.434     18.236     1012.8        412.132285    391.374411    nd            nd            17.900000     2008-06-10T17:05:00.99Z  
1705.3506   61521   43.7569  -69.7826  108.0    0.1    14.541     18.031     1012.8        412.846482    392.017551    nd            nd            17.900000     2008-06-10T17:05:21.04Z  
1705.6832   61541   43.7569  -69.7826  167.0    0.0    14.585     18.023     1012.8        413.417509    392.535945    nd            nd            17.900000     2008-06-10T17:05:40.99Z  
1706.0173   61561   43.7569  -69.7826  155.0    0.1    14.558     18.208     1012.8        413.892137    393.004515    nd            nd            17.900000     2008-06-10T17:06:01.04Z  
1706.3499   61581   43.7568  -69.7825  103.0    0.1    14.521     18.276     1012.8        414.552856    393.642280    nd            nd            17.900000     2008-06-10T17:06:20.99Z  
1706.6840   61601   43.7569  -69.7825  55.0     0.1    14.534     18.154     1012.8        414.700185    393.784851    nd            nd            17.900000     2008-06-10T17:06:41.04Z  
1707.0166   61621   43.7569  -69.7825  40.0     0.2    14.554     18.111     1012.8        414.684782    393.764134    nd            nd            17.900000     2008-06-10T17:07:01.00Z  
1707.3493   61641   43.7569  -69.7825  47.0     0.2    14.571     18.102     1012.8        414.765948    393.837792    nd            nd            17.900000     2008-06-10T17:07:20.96Z  
1707.6834   61661   43.7569  -69.7824  61.0     0.1    14.593     18.087     1012.8        415.184434    394.219779    nd            nd            17.900000     2008-06-10T17:07:41.00Z  
1708.0160   61681   43.7569  -69.7824  110.0    0.0    14.590     18.177     1012.8        415.628049    394.637163    nd            nd            17.900000     2008-06-10T17:08:00.96Z  
1708.3501   61701   43.7569  -69.7824  193.0    0.1    14.585     18.201     1012.8        416.173712    395.155016    nd            nd            17.900000     2008-06-10T17:08:21.01Z  
1708.6827   61721   43.7569  -69.7824  218.0    0.1    14.585     18.246     1012.8        416.646118    395.601535    nd            nd            17.900000     2008-06-10T17:08:40.96Z  
1709.0168   61741   43.7569  -69.7824  178.0    0.1    14.568     18.297     1012.8        417.098011    396.031549    nd            nd            17.900000     2008-06-10T17:09:01.01Z  
1709.3494   61761   43.7569  -69.7824  37.0     0.2    14.575     18.271     1012.8        417.469008    396.385779    nd            nd            17.900000     2008-06-10T17:09:20.96Z  
1709.6835   61781   43.7570  -69.7824  162.0    0.1    14.612     18.196     1012.8        417.603605    396.495067    nd            nd            17.900000     2008-06-10T17:09:41.01Z  
1710.0162   61801   43.7570  -69.7824  189.0    0.0    14.671     18.119     1012.7        417.828800    396.671602    nd            nd            17.900000     2008-06-10T17:10:00.97Z  
1710.3502   61821   43.7570  -69.7824  229.0    0.0    14.702     18.056     1012.7        418.409771    397.210428    nd            nd            17.900000     2008-06-10T17:10:21.01Z  
1710.6829   61841   43.7570  -69.7824  195.0    0.0    14.690     18.119     1012.7        419.094316    397.866783    nd            nd            17.900000     2008-06-10T17:10:40.97Z  
1711.0170   61861   43.7570  -69.7824  171.0    0.0    14.686     18.145     1012.7        419.307763    398.066249    nd            nd            17.900000     2008-06-10T17:11:01.02Z  
1711.3496   61881   43.7570  -69.7824  158.0    0.1    14.689     18.125     1012.8        419.410689    398.175609    nd            nd            17.900000     2008-06-10T17:11:20.98Z  
1711.6837   61901   43.7570  -69.7824  123.0    0.1    14.700     18.080     1012.7        419.621145    398.366991    nd            nd            17.900000     2008-06-10T17:11:41.02Z  
1712.0163   61921   43.7569  -69.7824  154.0    0.2    14.707     18.086     1012.7        419.600642    398.342837    nd            nd            17.900000     2008-06-10T17:12:00.98Z  
1712.3504   61941   43.7569  -69.7824  173.0    0.2    14.714     18.104     1012.7        419.693794    398.430602    nd            nd            17.900000     2008-06-10T17:12:21.02Z  
1712.6830   61961   43.7569  -69.7824  179.0    0.3    14.727     18.104     1012.7        419.827440    398.551512    nd            nd            17.900000     2008-06-10T17:12:40.98Z  
1713.0171   61981   43.7568  -69.7824  179.0    0.2    14.748     18.050     1012.8        420.070214    398.775258    nd            nd            17.900000     2008-06-10T17:13:01.03Z  
1713.3498   62001   43.7568  -69.7824  179.0    0.3    14.729     18.083     1012.7        420.011538    398.717943    nd            nd            17.900000     2008-06-10T17:13:20.99Z  
1713.6838   62021   43.7567  -69.7824  184.0    0.3    14.681     18.190     1012.7        420.131605    398.848835    nd            nd            17.900000     2008-06-10T17:13:41.03Z  
1714.0165   62041   43.7566  -69.7824  188.0    0.3    14.676     18.241     1012.7        419.855503    398.585788    nd            nd            17.900000     2008-06-10T17:14:00.99Z  
1714.3506   62061   43.7566  -69.7824  191.0    0.3    14.703     18.204     1012.7        419.396201    398.133825    nd            nd            17.900000     2008-06-10T17:14:21.04Z  
1714.6832   62081   43.7565  -69.7825  188.0    0.3    14.736     18.162     1012.7        419.339742    398.067635    nd            nd            17.900000     2008-06-10T17:14:40.99Z  
1715.0173   62101   43.7564  -69.7825  178.0    0.4    14.752     18.134     1012.7        419.598503    398.305082    nd            nd            17.900000     2008-06-10T17:15:01.04Z  
1715.3499   62121   43.7564  -69.7825  173.0    0.4    14.769     18.083     1012.7        419.876798    398.563651    nd            nd            17.900000     2008-06-10T17:15:20.99Z  
1715.6840   62141   43.7563  -69.7825  171.0    0.4    14.792     17.998     1012.7        420.109420    398.781447    nd            nd            17.900000     2008-06-10T17:15:41.04Z  
1716.0166   62161   43.7562  -69.7824  172.0    0.4    14.826     17.885     1012.7        420.209383    398.869198    nd            nd            17.900000     2008-06-10T17:16:01.00Z  
1716.3507   62181   43.7561  -69.7824  175.0    0.4    14.878     17.764     1012.7        420.458862    399.069210    nd            nd            17.900000     2008-06-10T17:16:21.04Z  
1716.6834   62201   43.7560  -69.7824  174.0    0.5    14.910     17.694     1012.7        420.662480    399.251943    nd            nd            17.900000     2008-06-10T17:16:41.00Z  
1717.0160   62221   43.7559  -69.7824  180.0    0.5    14.920     17.642     1012.7        420.923426    399.491851    nd            nd            17.900000     2008-06-10T17:17:00.96Z  
1717.3501   62241   43.7559  -69.7824  79.0     0.8    14.934     17.608     1012.7        421.034315    399.599866    nd            nd            17.900000     2008-06-10T17:17:21.01Z  
1717.6827   62261   43.7564  -69.7824  276.0    3.9    14.947     17.567     1012.7        421.084394    399.633381    nd            nd            17.900000     2008-06-10T17:17:40.96Z  
1718.0168   62281   43.7573  -69.7826  351.0    5.3    14.976     17.529     1012.7        421.052080    399.601589    nd            nd            17.900000     2008-06-10T17:18:01.01Z  
1718.3494   62301   43.7583  -69.7829  347.0    5.6    14.951     17.558     1012.8        421.105563    399.680619    nd            nd            17.900000     2008-06-10T17:18:20.96Z  
1718.6835   62321   43.7591  -69.7832  336.0    4.8    14.885     17.772     1012.8        421.390417    399.980503    nd            nd            17.900000     2008-06-10T17:18:41.01Z  
1719.0162   62341   43.7599  -69.7838  332.0    4.5    14.816     17.839     1012.7        421.664175    400.248743    nd            nd            17.900000     2008-06-10T17:19:00.97Z  
1719.3502   62361   43.7606  -69.7841  349.0    4.3    14.781     17.739     1012.7        421.568747    400.162264    nd            nd            17.900000     2008-06-10T17:19:21.01Z  
1719.6829   62381   43.7614  -69.7842  356.0    4.6    14.822     17.378     1012.7        421.301216    399.901470    nd            nd            17.900000     2008-06-10T17:19:40.97Z  
1720.0170   62401   43.7624  -69.7844  352.0    5.7    14.869     17.190     1012.7        421.079846    399.668031    nd            nd            17.900000     2008-06-10T17:20:01.02Z  
1720.3496   62421   43.7634  -69.7846  352.0    6.2    14.846     17.206     1012.7        420.814322    399.411026    nd            nd            17.900000     2008-06-10T17:20:20.98Z  
1720.6837   62441   43.7646  -69.7847  358.0    6.3    14.900     17.017     1012.7        420.590464    399.169919    nd            nd            17.900000     2008-06-10T17:20:41.02Z  
1721.0163   62461   43.7657  -69.7847  141.0    6.3    14.954     16.789     1012.7        420.516967    399.083289    nd            nd            17.900000     2008-06-10T17:21:00.98Z  
1721.3504   62481   43.7668  -69.7846  6.0      6.3    15.029     16.431     1012.7        420.677394    399.199366    nd            nd            17.900000     2008-06-10T17:21:21.02Z  
1721.6830   62501   43.7680  -69.7845  120.0    6.4    15.120     16.111     1012.7        421.171578    399.629135    nd            nd            17.900000     2008-06-10T17:21:40.98Z  
1722.0171   62521   43.7691  -69.7847  347.0    6.5    15.163     16.000     1012.7        421.444344    399.872702    nd            nd            17.900000     2008-06-10T17:22:01.03Z  
1722.3498   62541   43.7703  -69.7851  347.0    6.5    15.228     15.919     1012.7        421.504033    399.884630    nd            nd            17.900000     2008-06-10T17:22:20.99Z  
1722.6838   62561   43.7714  -69.7854  349.0    6.5    15.242     16.025     1012.6        422.096819    400.416451    nd            nd            17.900000     2008-06-10T17:22:41.03Z  
1723.0165   62581   43.7726  -69.7858  345.0    6.5    15.279     15.886     1012.6        423.275485    401.524746    nd            nd            17.900000     2008-06-10T17:23:00.99Z  
1723.3506   62601   43.7737  -69.7863  339.0    6.5    15.257     15.843     1012.6        424.569241    402.760416    nd            nd            17.900000     2008-06-10T17:23:21.04Z  
1723.6832   62621   43.7748  -69.7868  345.0    6.4    15.253     15.629     1012.6        425.693604    403.824655    nd            nd            17.900000     2008-06-10T17:23:40.99Z  
1724.0173   62641   43.7759  -69.7872  339.0    6.5    15.329     15.182     1012.6        426.506484    404.551907    nd            nd            17.900000     2008-06-10T17:24:01.04Z  
1724.3499   62661   43.7770  -69.7878  334.0    6.3    15.421     14.773     1012.6        427.598287    405.547178    nd            nd            17.900000     2008-06-10T17:24:20.99Z  
1724.6840   62681   43.7779  -69.7887  324.0    6.3    15.535     14.201     1012.6        428.993536    406.814305    nd            nd            17.900000     2008-06-10T17:24:41.04Z  
1725.0166   62701   43.7789  -69.7892  292.0    6.3    15.768     13.159     1012.5        430.240718    407.867952    nd            nd            17.900000     2008-06-10T17:25:01.00Z  
1725.3507   62721   43.7802  -69.7892  6.0      7.1    16.003     12.592     1012.5        433.179527    410.526026    nd            nd            17.900000     2008-06-10T17:25:21.04Z  
1725.6834   62741   43.7815  -69.7890  5.0      7.4    16.158     12.336     1012.5        438.726318    415.710202    nd            nd            17.900000     2008-06-10T17:25:41.00Z  
1726.0160   62761   43.7828  -69.7887  10.0     7.5    16.318     12.035     1012.5        444.572850    421.172248    nd            nd            17.900000     2008-06-10T17:26:00.96Z  
1726.3501   62781   43.7841  -69.7883  11.0     7.4    16.436     11.896     1012.5        451.091299    427.286548    nd            nd            17.900000     2008-06-10T17:26:21.01Z  
1726.6827   62801   43.7854  -69.7879  14.0     7.4    16.511     11.728     1012.5        457.541490    433.350398    nd            nd            17.900000     2008-06-10T17:26:40.96Z  
1727.0168   62821   43.7867  -69.7875  16.0     7.5    16.520     11.597     1012.5        462.346419    437.877328    nd            nd            17.900000     2008-06-10T17:27:01.01Z  
1727.3494   62841   43.7880  -69.7870  13.0     7.5    16.530     11.479     1012.5        467.556309    442.818410    nd            nd            17.900000     2008-06-10T17:27:20.96Z  
1727.6835   62861   43.7893  -69.7866  12.0     7.2    16.584     11.338     1012.5        473.208170    448.130200    nd            nd            17.900000     2008-06-10T17:27:41.01Z  
1728.0162   62881   43.7905  -69.7861  21.0     6.8    16.654     11.131     1012.4        480.100521    454.592980    nd            nd            17.900000     2008-06-10T17:28:00.97Z  
1728.3502   62901   43.7917  -69.7855  93.0     6.8    16.700     10.955     1012.4        483.933534    458.195239    nd            nd            17.900000     2008-06-10T17:28:21.01Z  
1728.6829   62921   43.7928  -69.7857  346.0    6.7    16.724     10.855     1012.4        486.317583    460.454399    nd            nd            17.900000     2008-06-10T17:28:40.97Z  
1729.0170   62941   43.7940  -69.7860  351.0    6.5    16.745     10.800     1012.4        490.131426    464.048951    nd            nd            17.900000     2008-06-10T17:29:01.02Z  
1729.3496   62961   43.7952  -69.7862  354.0    6.4    16.764     10.777     1012.4        493.535531    467.256273    nd            nd            17.900000     2008-06-10T17:29:20.98Z  
1729.6837   62981   43.7963  -69.7864  353.0    6.5    16.775     10.681     1012.4        495.381584    468.988367    nd            nd            17.900000     2008-06-10T17:29:41.02Z  
1730.0163   63001   43.7975  -69.7866  350.0    6.4    16.789     10.532     1012.4        496.362674    469.903543    nd            nd            17.900000     2008-06-10T17:30:00.98Z  
1730.3504   63021   43.7986  -69.7870  341.0    6.3    16.785     10.491     1012.4        496.803096    470.314303    nd            nd            17.900000     2008-06-10T17:30:21.02Z  
1730.6830   63041   43.7997  -69.7875  346.0    6.3    16.793     10.385     1012.3        497.572493    471.021028    nd            nd            17.900000     2008-06-10T17:30:40.98Z  
1731.0171   63061   43.8008  -69.7878  345.0    6.3    16.871     10.128     1012.4        498.088285    471.474540    nd            nd            17.900000     2008-06-10T17:31:01.03Z  
1731.3498   63081   43.8019  -69.7884  336.0    6.3    16.972     9.941      1012.4        499.711860    472.965764    nd            nd            17.900000     2008-06-10T17:31:20.99Z  
1731.6838   63101   43.8029  -69.7890  336.0    6.3    16.995     9.841      1012.4        502.611647    475.696632    nd            nd            17.900000     2008-06-10T17:31:41.03Z  
1732.0165   63121   43.8039  -69.7896  330.0    5.8    16.999     9.802      1012.4        504.911603    477.877934    nd            nd            17.900000     2008-06-10T17:32:00.99Z  
1732.3506   63141   43.8047  -69.7906  314.0    5.7    17.004     9.723      1012.4        506.963423    479.815100    nd            nd            17.900000     2008-06-10T17:32:21.04Z  
1732.6832   63161   43.8054  -69.7916  314.0    5.7    17.006     9.631      1012.4        508.264618    481.037867    nd            nd            17.900000     2008-06-10T17:32:40.99Z  
1733.0173   63181   43.8062  -69.7927  313.0    6.5    17.010     9.559      1012.4        509.271127    481.971218    nd            nd            17.900000     2008-06-10T17:33:01.04Z  
1733.3499   63201   43.8070  -69.7939  312.0    6.9    17.030     9.443      1012.4        510.962797    483.562308    nd            nd            17.900000     2008-06-10T17:33:20.99Z  
1733.6840   63221   43.8079  -69.7952  319.0    7.1    17.020     9.392      1012.3        512.909491    485.399663    nd            nd            17.900000     2008-06-10T17:33:41.04Z  
1734.0166   63241   43.8090  -69.7963  323.0    7.3    17.018     9.273      1012.3        515.920345    488.227884    nd            nd            17.900000     2008-06-10T17:34:01.00Z  
1734.3493   63261   43.8100  -69.7974  321.0    7.4    17.044     9.121      1012.3        518.179063    490.345948    nd            nd            17.900000     2008-06-10T17:34:20.96Z  
1734.6834   63281   43.8110  -69.7986  318.0    7.4    17.039     9.035      1012.3        520.456319    492.502347    nd            nd            17.900000     2008-06-10T17:34:41.00Z  
1735.0160   63301   43.8120  -69.7998  317.0    7.4    17.019     9.023      1012.3        522.238691    494.199291    nd            nd            17.900000     2008-06-10T17:35:00.96Z  
1735.3501   63321   43.8130  -69.8010  319.0    7.4    17.000     8.980      1012.3        523.678820    495.569486    nd            nd            17.900000     2008-06-10T17:35:21.01Z  
1735.6827   63341   43.8141  -69.8022  321.0    7.4    16.999     8.893      1012.3        524.735325    496.562233    nd            nd            17.900000     2008-06-10T17:35:40.96Z  
1736.0168   63361   43.8152  -69.8033  324.0    7.4    16.998     8.817      1012.2        526.300814    498.039886    nd            nd            17.900000     2008-06-10T17:36:01.01Z  
1736.3494   63381   43.8164  -69.8038  121.0    7.4    17.029     8.577      1012.2        528.000331    499.592424    nd            nd            17.900000     2008-06-10T17:36:20.96Z  
1736.6835   63401   43.8177  -69.8036  9.0      7.5    17.140     8.193      1012.2        530.150358    501.562944    nd            nd            17.900000     2008-06-10T17:36:41.01Z  
1737.0162   63421   43.8190  -69.8033  7.0      7.3    17.262     7.909      1012.2        532.417136    503.640244    nd            nd            17.900000     2008-06-10T17:37:00.97Z  
1737.3502   63441   43.8202  -69.8031  5.0      6.1    17.353     7.734      1012.2        535.672786    506.660533    nd            nd            17.900000     2008-06-10T17:37:21.01Z  
1737.6829   63461   43.8213  -69.8031  199.0    6.0    17.456     7.449      1012.2        539.582728    510.293561    nd            nd            17.900000     2008-06-10T17:37:40.97Z  
1738.0170   63481   43.8224  -69.8032  297.0    6.0    17.527     7.206      1012.2        543.329979    513.757183    nd            nd            17.900000     2008-06-10T17:38:01.02Z  
1738.3496   63501   43.8235  -69.8030  13.0     5.9    17.553     7.046      1012.2        547.020177    517.263424    nd            nd            17.900000     2008-06-10T17:38:20.98Z  
1738.6837   63521   43.8245  -69.8025  28.0     6.0    17.566     6.899      1012.2        551.548173    521.541340    nd            nd            17.900000     2008-06-10T17:38:41.02Z  
1739.0163   63541   43.8254  -69.8017  30.0     6.6    17.597     6.699      1012.2        555.508518    525.253098    nd            nd            17.900000     2008-06-10T17:39:00.98Z  
1739.3504   63561   43.8265  -69.8010  24.0     6.7    17.628     6.521      1012.2        559.439610    528.936752    nd            nd            17.900000     2008-06-10T17:39:21.02Z  
1739.6830   63581   43.8276  -69.8002  31.0     6.7    17.687     6.350      1012.2        564.092466    533.279883    nd            nd            17.900000     2008-06-10T17:39:40.98Z  
1740.0171   63601   43.8285  -69.7991  43.0     6.6    17.803     6.091      1012.2        568.405560    537.284617    nd            nd            17.900000     2008-06-10T17:40:01.03Z  
1740.3498   63621   43.8294  -69.7981  30.0     6.6    17.876     5.957      1012.2        572.047436    540.691363    nd            nd            17.900000     2008-06-10T17:40:20.99Z  
1740.6838   63641   43.8306  -69.7976  14.0     6.6    17.898     5.871      1012.2        575.074659    543.544208    nd            nd            17.900000     2008-06-10T17:40:41.03Z  
1741.0165   63661   43.8317  -69.7972  12.0     6.4    17.892     5.746      1012.2        578.242313    546.546741    nd            nd            17.900000     2008-06-10T17:41:00.99Z  
1741.3506   63681   43.8327  -69.7969  10.0     5.5    17.955     5.571      1012.2        580.524609    548.652400    nd            nd            17.900000     2008-06-10T17:41:21.04Z  
1741.6832   63701   43.8337  -69.7967  8.0      4.8    18.049     5.377      1012.2        582.032767    550.011077    nd            nd            17.900000     2008-06-10T17:41:40.99Z  
1742.0173   63721   43.8344  -69.7965  11.0     4.3    18.090     5.294      1012.2        581.978050    549.925782    nd            nd            17.900000     2008-06-10T17:42:01.04Z  
1742.3499   63741   43.8352  -69.7963  12.0     4.3    18.114     5.219      1012.2        582.291923    550.196800    nd            nd            17.900000     2008-06-10T17:42:20.99Z  
1742.6840   63761   43.8358  -69.7962  6.0      1.8    18.121     5.122      1012.2        584.117373    551.930224    nd            nd            17.900000     2008-06-10T17:42:41.04Z  
1743.0166   63781   43.8359  -69.7962  10.0     0.4    18.211     5.001      1012.2        584.391161    552.116230    nd            nd            17.900000     2008-06-10T17:43:01.00Z  
1743.3493   63801   43.8360  -69.7961  175.0    0.4    18.253     4.932      1012.2        585.594817    553.220546    nd            nd            17.900000     2008-06-10T17:43:20.96Z  
1743.6834   63821   43.8362  -69.7961  66.0     2.1    18.286     4.863      1012.2        588.702427    556.113852    nd            nd            17.900000     2008-06-10T17:43:41.00Z  
1744.0160   63841   43.8368  -69.7959  18.0     4.6    18.298     4.841      1012.2        589.072829    556.441053    nd            nd            17.900000     2008-06-10T17:44:00.96Z  
1744.3501   63861   43.8377  -69.7956  12.0     5.7    18.314     4.814      1012.2        589.456327    556.793316    nd            nd            17.900000     2008-06-10T17:44:21.01Z  
1744.6827   63881   43.8388  -69.7953  7.0      6.6    18.321     4.767      1012.2        590.180586    557.477357    nd            nd            17.900000     2008-06-10T17:44:40.96Z  
1745.0168   63901   43.8400  -69.7952  3.0      7.0    18.307     4.736      1012.2        590.450471    557.733487    nd            nd            17.900000     2008-06-10T17:45:01.01Z  
1745.3494   63921   43.8413  -69.7951  60.0     7.0    18.290     4.659      1012.1        591.167977    558.415926    nd            nd            17.900000     2008-06-10T17:45:20.96Z  
1745.6835   63941   43.8426  -69.7951  2.0      7.1    18.291     4.575      1012.1        592.645187    559.812778    nd            nd            17.900000     2008-06-10T17:45:41.01Z  
1746.0162   63961   43.8439  -69.7950  1.0      7.3    18.308     4.400      1012.1        594.252782    561.297512    nd            nd            17.900000     2008-06-10T17:46:00.97Z  
1746.3502   63981   43.8452  -69.7950  80.0     7.3    18.338     4.203      1012.1        595.384184    562.334230    nd            nd            17.900000     2008-06-10T17:46:21.01Z  
1746.6829   64001   43.8465  -69.7950  358.0    7.3    18.347     4.148      1012.1        596.680068    563.550777    nd            nd            17.900000     2008-06-10T17:46:40.97Z  
1747.0170   64021   43.8478  -69.7951  358.0    7.3    18.353     4.063      1012.1        599.061656    565.800528    nd            nd            17.900000     2008-06-10T17:47:01.02Z  
1747.3496   64041   43.8491  -69.7951  299.0    7.4    18.367     3.951      1012.1        604.102010    570.543077    nd            nd            17.900000     2008-06-10T17:47:20.98Z  
1747.6837   64061   43.8505  -69.7952  356.0    7.5    18.405     3.780      1012.1        619.005958    584.589871    nd            nd            17.900000     2008-06-10T17:47:41.02Z  
1748.0163   64081   43.8518  -69.7953  354.0    7.5    18.490     3.474      1012.1        623.846226    589.088695    nd            nd            17.900000     2008-06-10T17:48:00.98Z  
1748.3504   64101   43.8532  -69.7955  356.0    7.6    18.574     3.266      1012.1        617.433968    582.959799    nd            nd            17.900000     2008-06-10T17:48:21.02Z  
1748.6830   64121   43.8546  -69.7955  2.0      7.6    18.626     3.160      1012.1        611.408167    577.223737    nd            nd            17.900000     2008-06-10T17:48:40.98Z  
1749.0171   64141   43.8559  -69.7953  8.0      7.8    18.681     3.024      1012.0        609.843773    575.683105    nd            nd            17.900000     2008-06-10T17:49:01.03Z  
1749.3498   64161   43.8573  -69.7950  5.0      7.8    18.719     2.916      1012.0        603.583202    569.707417    nd            nd            17.900000     2008-06-10T17:49:20.99Z  
1749.6838   64181   43.8588  -69.7949  2.0      7.9    18.742     2.885      1012.0        596.717745    563.201360    nd            nd            17.900000     2008-06-10T17:49:41.03Z  
1750.0165   64201   43.8602  -69.7948  2.0      7.8    18.765     2.835      1012.0        597.143249    563.585894    nd            nd            17.900000     2008-06-10T17:50:00.99Z  
1750.3506   64221   43.8616  -69.7947  5.0      7.7    18.791     2.795      1012.0        593.596155    560.236810    nd            nd            17.900000     2008-06-10T17:50:21.04Z  
1750.6832   64241   43.8628  -69.7945  5.0      6.3    18.831     2.723      1012.0        587.811474    554.764596    nd            nd            17.900000     2008-06-10T17:50:40.99Z  
1751.0173   64261   43.8639  -69.7944  6.0      5.9    18.858     2.650      1012.0        580.794268    548.117883    nd            nd            17.900000     2008-06-10T17:51:01.04Z  
1751.3499   64281   43.8649  -69.7942  25.0     6.0    18.882     2.607      1012.0        576.663011    544.212615    nd            nd            17.900000     2008-06-10T17:51:20.99Z  
1751.6840   64301   43.8660  -69.7943  355.0    5.9    18.887     2.580      1012.0        576.081685    543.653899    nd            nd            17.900000     2008-06-10T17:51:41.04Z  
1752.0166   64321   43.8671  -69.7944  355.0    6.0    18.870     2.554      1012.0        578.389973    545.837806    nd            nd            17.900000     2008-06-10T17:52:01.00Z  
1752.3493   64341   43.8681  -69.7947  343.0    5.9    18.862     2.495      1012.0        585.428283    552.471571    nd            nd            17.900000     2008-06-10T17:52:20.96Z  
1752.6834   64361   43.8692  -69.7952  341.0    6.0    18.866     2.432      1012.0        599.989716    566.212816    nd            nd            17.900000     2008-06-10T17:52:41.00Z  
1753.0160   64381   43.8702  -69.7956  344.0    6.0    18.868     2.373      1012.0        606.963615    572.789096    nd            nd            17.900000     2008-06-10T17:53:00.96Z  
1753.3501   64401   43.8712  -69.7960  345.0    6.0    18.870     2.294      1012.0        609.689025    575.358648    nd            nd            17.900000     2008-06-10T17:53:21.01Z  
1753.6827   64421   43.8723  -69.7962  295.0    6.0    18.939     2.138      1012.0        615.115312    580.410142    nd            nd            17.900000     2008-06-10T17:53:40.96Z  
1754.0168   64441   43.8734  -69.7962  4.0      6.0    19.004     2.092      1011.9        610.887263    576.326884    nd            nd            17.900000     2008-06-10T17:54:01.01Z  
1754.3494   64461   43.8745  -69.7960  5.0      6.1    19.082     2.009      1011.9        604.274011    570.047270    nd            nd            17.900000     2008-06-10T17:54:20.96Z  
1754.6835   64481   43.8756  -69.7959  5.0      6.1    19.151     1.963      1011.9        595.859102    562.058487    nd            nd            17.900000     2008-06-10T17:54:41.01Z  
1755.0162   64501   43.8767  -69.7958  180.0    6.1    19.155     1.923      1011.9        596.944450    563.082362    nd            nd            17.900000     2008-06-10T17:55:00.97Z  
1755.3502   64521   43.8778  -69.7960  348.0    6.1    19.197     1.843      1012.0        608.624545    574.080582    nd            nd            17.900000     2008-06-10T17:55:21.01Z  
1755.6829   64541   43.8788  -69.7966  330.0    5.9    19.234     1.696      1012.0        599.218961    565.186832    nd            nd            17.900000     2008-06-10T17:55:40.97Z  
1756.0170   64561   43.8795  -69.7975  309.0    5.3    19.303     1.478      1012.0        582.455704    549.320026    nd            nd            17.900000     2008-06-10T17:56:01.02Z  
1756.3496   64581   43.8799  -69.7987  288.0    5.3    19.352     1.284      1012.0        564.370487    532.219479    nd            nd            17.900000     2008-06-10T17:56:20.98Z  
1756.6837   64601   43.8801  -69.7999  276.0    4.9    19.379     1.206      1012.0        550.903762    519.491041    nd            nd            17.900000     2008-06-10T17:56:41.02Z  
1757.0163   64621   43.8801  -69.8010  273.0    3.7    19.402     1.155      1012.0        542.851601    511.894463    nd            nd            17.900000     2008-06-10T17:57:00.98Z  
1757.3504   64641   43.8802  -69.8016  274.0    1.3    19.406     1.147      1012.0        536.863079    506.257280    nd            nd            17.900000     2008-06-10T17:57:21.02Z  
1757.6830   64661   43.8802  -69.8018  256.0    0.5    19.401     1.128      1011.9        536.070626    505.480401    nd            nd            17.900000     2008-06-10T17:57:40.98Z  
1758.0171   64681   43.8802  -69.8018  240.0    0.2    19.420     1.112      1011.9        536.791708    506.114339    nd            nd            17.900000     2008-06-10T17:58:01.03Z  
1758.3498   64701   43.8802  -69.8019  227.0    0.1    19.439     1.096      1011.9        530.407933    500.085123    nd            nd            17.900000     2008-06-10T17:58:20.99Z  
1758.6838   64721   43.8802  -69.8019  208.0    0.1    19.444     1.096      1011.9        521.668936    491.845128    nd            nd            17.900000     2008-06-10T17:58:41.03Z  
1759.0165   64741   43.8802  -69.8019  177.0    0.2    19.437     1.107      1011.9        516.816282    487.276306    nd            nd            17.900000     2008-06-10T17:59:00.99Z  
1759.3506   64761   43.8802  -69.8019  189.0    0.3    19.456     1.107      1011.9        518.777420    489.105970    nd            nd            17.900000     2008-06-10T17:59:21.04Z  
1759.6832   64781   43.8802  -69.8019  185.0    0.3    19.476     1.129      1011.9        520.945859    491.134027    nd            nd            17.900000     2008-06-10T17:59:40.99Z  
1800.0173   64801   43.8802  -69.8019  170.0    0.2    19.465     1.175      1011.9        522.229087    492.349775    nd            nd            17.838889     2008-06-10T18:00:01.04Z  
1800.3499   64821   43.8803  -69.8019  186.0    0.2    19.457     1.186      1011.9        524.225073    494.245355    nd            nd            17.800000     2008-06-10T18:00:20.99Z  
1800.6840   64841   43.8803  -69.8019  80.0     0.2    19.444     1.187      1011.9        527.390046    497.235195    nd            nd            17.800000     2008-06-10T18:00:41.04Z  
1801.0166   64861   43.8803  -69.8019  97.0     0.2    19.435     1.180      1011.9        536.428408    505.759843    nd            nd            17.800000     2008-06-10T18:01:01.00Z  
1801.3507   64881   43.8804  -69.8019  232.0    0.1    19.420     1.169      1011.9        555.353095    523.643746    nd            nd            17.800000     2008-06-10T18:01:21.04Z  
1801.6834   64901   43.8804  -69.8019  310.0    0.1    19.416     1.172      1011.9        565.700312    533.375038    nd            nd            17.800000     2008-06-10T18:01:41.00Z  
1802.0160   64921   43.8804  -69.8019  328.0    0.1    19.419     1.173      1011.8        571.776926    539.083308    nd            nd            17.800000     2008-06-10T18:02:00.96Z  
1802.3501   64941   43.8804  -69.8020  253.0    0.2    19.432     1.175      1011.9        579.164342    546.045738    nd            nd            17.800000     2008-06-10T18:02:21.01Z  
1802.6827   64961   43.8804  -69.8020  287.0    0.1    19.453     1.174      1011.9        591.405389    557.576734    nd            nd            17.800000     2008-06-10T18:02:40.96Z  
1803.0168   64981   43.8805  -69.8020  221.0    0.1    19.483     1.178      1011.9        595.630366    561.538728    nd            nd            17.800000     2008-06-10T18:03:01.01Z  
1803.3494   65001   43.8805  -69.8020  271.0    0.2    19.485     1.187      1011.9        590.206149    556.407772    nd            nd            17.800000     2008-06-10T18:03:20.96Z  
1803.6835   65021   43.8805  -69.8021  275.0    0.2    19.491     1.177      1011.8        579.500463    546.304595    nd            nd            17.800000     2008-06-10T18:03:41.01Z  
1804.0162   65041   43.8805  -69.8021  280.0    0.2    19.488     1.143      1011.8        566.682335    534.221371    nd            nd            17.800000     2008-06-10T18:04:00.97Z  
1804.3502   65061   43.8805  -69.8022  235.0    0.1    19.483     1.151      1011.8        556.289071    524.428482    nd            nd            17.800000     2008-06-10T18:04:21.01Z  
1804.6829   65081   43.8806  -69.8021  254.0    0.2    19.474     1.143      1011.8        550.611205    519.074665    nd            nd            17.800000     2008-06-10T18:04:40.97Z  
1805.0170   65101   43.8806  -69.8021  274.0    0.1    19.478     1.144      1011.8        537.300867    506.528746    nd            nd            17.800000     2008-06-10T18:05:01.02Z  
1805.3496   65121   43.8806  -69.8021  323.0    0.1    19.478     1.166      1011.9        521.192733    491.354330    nd            nd            17.800000     2008-06-10T18:05:20.98Z  
1805.6837   65141   43.8806  -69.8022  333.0    0.2    19.478     1.196      1011.8        512.067009    482.735823    nd            nd            17.800000     2008-06-10T18:05:41.02Z  
1806.0163   65161   43.8807  -69.8022  327.0    0.1    19.478     1.191      1011.8        511.654128    482.345407    nd            nd            17.800000     2008-06-10T18:06:00.98Z  
1806.3504   65181   43.8807  -69.8022  257.0    0.6    19.492     1.192      1011.8        518.668752    488.936445    nd            nd            17.800000     2008-06-10T18:06:21.02Z  
1806.6830   65201   43.8805  -69.8021  131.0    2.3    19.508     1.190      1011.8        524.985469    494.871412    nd            nd            17.800000     2008-06-10T18:06:40.98Z  
1807.0171   65221   43.8803  -69.8014  97.0     3.3    19.530     1.134      1011.8        526.007011    495.820665    nd            nd            17.800000     2008-06-10T18:07:01.03Z  
1807.3498   65241   43.8802  -69.8004  105.0    4.9    19.524     1.102      1011.7        522.925450    492.896201    nd            nd            17.800000     2008-06-10T18:07:20.99Z  
1807.6838   65261   43.8799  -69.7991  108.0    5.3    19.527     1.091      1011.8        514.666059    485.116289    nd            nd            17.800000     2008-06-10T18:07:41.03Z  
1808.0165   65281   43.8795  -69.7978  115.0    6.2    19.512     1.091      1011.7        503.369939    474.446689    nd            nd            17.800000     2008-06-10T18:08:00.99Z  
1808.3506   65301   43.8788  -69.7966  137.0    6.6    19.512     1.094      1011.7        499.006693    470.342372    nd            nd            17.800000     2008-06-10T18:08:21.04Z  
1808.6832   65321   43.8778  -69.7958  159.0    5.9    19.522     1.118      1011.7        498.840520    470.174713    nd            nd            17.800000     2008-06-10T18:08:40.99Z  
1809.0173   65341   43.8769  -69.7956  181.0    5.3    19.516     1.145      1011.7        496.779341    468.232077    nd            nd            17.800000     2008-06-10T18:09:01.04Z  
1809.3499   65361   43.8759  -69.7957  182.0    5.2    19.517     1.186      1011.7        496.795318    468.256998    nd            nd            17.800000     2008-06-10T18:09:20.99Z  
1809.6840   65381   43.8750  -69.7958  184.0    5.0    19.485     1.401      1011.7        496.520764    468.016488    nd            nd            17.800000     2008-06-10T18:09:41.04Z  
1810.0166   65401   43.8741  -69.7958  183.0    5.0    19.379     1.667      1011.7        493.406657    465.163213    nd            nd            17.800000     2008-06-10T18:10:01.00Z  
1810.3507   65421   43.8731  -69.7959  183.0    5.1    19.371     1.757      1011.7        500.229231    471.602063    nd            nd            17.800000     2008-06-10T18:10:21.04Z  
1810.6834   65441   43.8722  -69.7960  179.0    5.1    19.354     1.832      1011.7        505.082427    476.187662    nd            nd            17.800000     2008-06-10T18:10:41.00Z  
1811.0160   65461   43.8713  -69.7959  175.0    5.1    19.349     1.875      1011.7        506.150816    477.196286    nd            nd            17.800000     2008-06-10T18:11:00.96Z  
1811.3501   65481   43.8704  -69.7958  173.0    5.1    19.334     1.904      1011.7        503.051000    474.271137    nd            nd            17.800000     2008-06-10T18:11:21.01Z  
1811.6827   65501   43.8694  -69.7956  171.0    5.1    19.356     1.905      1011.7        499.207735    470.621048    nd            nd            17.800000     2008-06-10T18:11:40.96Z  
1812.0168   65521   43.8685  -69.7954  170.0    5.1    19.387     1.952      1011.7        494.545979    466.211765    nd            nd            17.800000     2008-06-10T18:12:01.01Z  
1812.3494   65541   43.8676  -69.7952  168.0    5.1    19.295     2.057      1011.7        488.606007    460.683417    nd            nd            17.800000     2008-06-10T18:12:20.96Z  
1812.6835   65561   43.8667  -69.7949  169.0    5.1    19.201     2.137      1011.7        492.671693    464.585746    nd            nd            17.800000     2008-06-10T18:12:41.01Z  
1813.0162   65581   43.8658  -69.7948  175.0    5.1    19.134     2.246      1011.7        507.500636    478.609981    nd            nd            17.800000     2008-06-10T18:13:00.97Z  
1813.3502   65601   43.8648  -69.7947  180.0    6.0    19.068     2.362      1011.7        522.301519    492.603701    nd            nd            17.800000     2008-06-10T18:13:21.01Z  
1813.6829   65621   43.8636  -69.7948  184.0    7.4    19.048     2.431      1011.7        537.482784    506.933320    nd            nd            17.800000     2008-06-10T18:13:40.97Z  
1814.0170   65641   43.8621  -69.7950  183.0    8.0    19.059     2.479      1011.6        547.128678    516.001691    nd            nd            17.800000     2008-06-10T18:14:01.02Z  
1814.3496   65661   43.8608  -69.7951  184.0    6.8    19.059     2.519      1011.7        549.223859    517.995454    nd            nd            17.800000     2008-06-10T18:14:20.98Z  
1814.6837   65681   43.8597  -69.7953  185.0    5.4    19.070     2.565      1011.7        549.510577    518.268441    nd            nd            17.800000     2008-06-10T18:14:41.02Z  
1815.0163   65701   43.8588  -69.7954  185.0    5.0    19.098     2.611      1011.7        546.794458    515.673923    nd            nd            17.800000     2008-06-10T18:15:00.98Z  
1815.3504   65721   43.8579  -69.7955  181.0    5.0    19.056     2.676      1011.7        539.654234    508.978836    nd            nd            17.800000     2008-06-10T18:15:21.02Z  
1815.6830   65741   43.8570  -69.7955  183.0    5.0    19.031     2.728      1011.6        537.040010    506.511132    nd            nd            17.800000     2008-06-10T18:15:40.98Z  
1816.0171   65761   43.8561  -69.7956  184.0    5.0    19.021     2.789      1011.6        542.045812    511.236526    nd            nd            17.800000     2008-06-10T18:16:01.03Z  
1816.3498   65781   43.8551  -69.7957  184.0    5.1    18.991     2.890      1011.7        541.081529    510.385207    nd            nd            17.800000     2008-06-10T18:16:20.99Z  
1816.6838   65801   43.8542  -69.7958  184.0    5.2    18.989     2.922      1011.7        543.378094    512.554099    nd            nd            17.800000     2008-06-10T18:16:41.03Z  
1817.0165   65821   43.8533  -69.7959  179.0    5.1    18.941     2.963      1011.7        546.463023    515.493534    nd            nd            17.800000     2008-06-10T18:17:00.99Z  
1817.3506   65841   43.8523  -69.7959  177.0    5.0    18.893     2.957      1011.7        548.157411    517.128012    nd            nd            17.800000     2008-06-10T18:17:21.04Z  
1817.6832   65861   43.8514  -69.7958  174.0    5.1    18.904     2.967      1011.7        551.615088    520.379274    nd            nd            17.800000     2008-06-10T18:17:40.99Z  
1818.0173   65881   43.8505  -69.7957  173.0    5.1    18.896     3.012      1011.7        547.020918    516.052549    nd            nd            17.800000     2008-06-10T18:18:01.04Z  
1818.3499   65901   43.8496  -69.7955  173.0    5.2    18.839     3.072      1011.7        540.461018    509.902260    nd            nd            17.800000     2008-06-10T18:18:20.99Z  
1818.6840   65921   43.8486  -69.7954  173.0    5.2    18.802     3.098      1011.7        543.415268    512.731371    nd            nd            17.800000     2008-06-10T18:18:41.04Z  
1819.0166   65941   43.8477  -69.7953  177.0    5.2    18.801     3.123      1011.6        550.062999    518.963895    nd            nd            17.800000     2008-06-10T18:19:01.00Z  
1819.3493   65961   43.8468  -69.7953  179.0    4.5    18.811     3.160      1011.7        553.048869    521.785363    nd            nd            17.800000     2008-06-10T18:19:20.96Z  
1819.6834   65981   43.8461  -69.7953  180.0    4.1    18.815     3.214      1011.6        552.797185    521.536754    nd            nd            17.800000     2008-06-10T18:19:41.00Z  
1820.0160   66001   43.8452  -69.7953  179.0    5.1    18.810     3.245      1011.7        551.679097    520.493284    nd            nd            17.800000     2008-06-10T18:20:00.96Z  
1820.3501   66021   43.8442  -69.7952  177.0    6.1    18.814     3.273      1011.6        551.136959    519.970087    nd            nd            17.800000     2008-06-10T18:20:21.01Z  
1820.6827   66041   43.8431  -69.7952  180.0    6.1    18.814     3.323      1011.6        549.677412    518.576090    nd            nd            17.800000     2008-06-10T18:20:40.96Z  
1821.0168   66061   43.8420  -69.7952  181.0    6.4    18.796     3.380      1011.7        549.569462    518.513302    nd            nd            17.800000     2008-06-10T18:21:01.01Z  
1821.3494   66081   43.8408  -69.7953  184.0    6.5    18.781     3.476      1011.7        552.676284    521.456535    nd            nd            17.800000     2008-06-10T18:21:20.96Z  
1821.6835   66101   43.8396  -69.7955  186.0    6.5    18.743     3.650      1011.7        554.508929    523.210327    nd            nd            17.800000     2008-06-10T18:21:41.01Z  
1822.0162   66121   43.8384  -69.7957  187.0    6.5    18.715     3.775      1011.6        556.317530    524.932229    nd            nd            17.800000     2008-06-10T18:22:00.97Z  
1822.3502   66141   43.8373  -69.7959  189.0    6.0    18.734     3.885      1011.7        563.314953    531.534106    nd            nd            17.800000     2008-06-10T18:22:21.01Z  
1822.6829   66161   43.8363  -69.7962  190.0    4.9    18.748     4.082      1011.7        566.463796    534.506883    nd            nd            17.800000     2008-06-10T18:22:40.97Z  
1823.0170   66181   43.8355  -69.7964  190.0    4.8    18.702     4.325      1011.7        570.468397    538.327641    nd            nd            17.800000     2008-06-10T18:23:01.02Z  
1823.3496   66201   43.8346  -69.7966  190.0    4.6    18.589     4.447      1011.7        579.661711    547.084628    nd            nd            17.800000     2008-06-10T18:23:20.98Z  
1823.6837   66221   43.8338  -69.7968  184.0    4.7    18.584     4.434      1011.7        582.516968    549.779297    nd            nd            17.800000     2008-06-10T18:23:41.02Z  
1824.0163   66241   43.8329  -69.7968  184.0    4.9    18.630     4.497      1011.7        574.364097    542.037084    nd            nd            17.800000     2008-06-10T18:24:00.98Z  
1824.3504   66261   43.8321  -69.7970  191.0    5.0    18.658     4.606      1011.7        566.492164    534.599531    nd            nd            17.800000     2008-06-10T18:24:21.02Z  
1824.6830   66281   43.8312  -69.7974  196.0    5.0    18.652     4.755      1011.7        561.629477    530.032590    nd            nd            17.800000     2008-06-10T18:24:40.98Z  
1825.0171   66301   43.8303  -69.7978  204.0    5.0    18.595     4.836      1011.7        559.775258    528.319015    nd            nd            17.800000     2008-06-10T18:25:01.03Z  
1825.3498   66321   43.8295  -69.7984  209.0    5.4    18.543     4.926      1011.7        558.077739    526.761430    nd            nd            17.800000     2008-06-10T18:25:20.99Z  
1825.6838   66341   43.8286  -69.7991  211.0    5.7    18.444     5.029      1011.7        556.359454    525.209719    nd            nd            17.800000     2008-06-10T18:25:41.03Z  
1826.0165   66361   43.8278  -69.8000  222.0    5.8    18.351     5.124      1011.7        555.040970    524.030855    nd            nd            17.800000     2008-06-10T18:26:00.99Z  
1826.3506   66381   43.8270  -69.8010  213.0    5.9    18.343     5.186      1011.7        554.902568    523.905390    nd            nd            17.800000     2008-06-10T18:26:21.04Z  
1826.6832   66401   43.8260  -69.8016  204.0    6.0    18.291     5.363      1011.6        556.653780    525.561280    nd            nd            17.800000     2008-06-10T18:26:40.99Z  
1827.0173   66421   43.8250  -69.8022  201.0    6.1    18.311     5.466      1011.7        557.714432    526.570912    nd            nd            17.800000     2008-06-10T18:27:01.04Z  
1827.3499   66441   43.8239  -69.8027  197.0    6.1    18.335     5.738      1011.7        559.202620    527.965842    nd            nd            17.800000     2008-06-10T18:27:20.99Z  
1827.6840   66461   43.8229  -69.8031  194.0    6.0    18.243     6.037      1011.6        560.400621    529.134660    nd            nd            17.800000     2008-06-10T18:27:41.04Z  
1828.0166   66481   43.8218  -69.8034  185.0    6.0    18.141     6.262      1011.6        560.194567    529.009551    nd            nd            17.800000     2008-06-10T18:28:01.00Z  
1828.3493   66501   43.8207  -69.8035  183.0    6.1    18.031     6.541      1011.7        562.817605    531.601780    nd            nd            17.800000     2008-06-10T18:28:20.96Z  
1828.6834   66521   43.8196  -69.8036  186.0    6.1    17.946     6.760      1011.7        581.677246    549.462413    nd            nd            17.800000     2008-06-10T18:28:41.00Z  
1829.0160   66541   43.8185  -69.8039  189.0    6.1    17.891     6.972      1011.7        586.381879    553.936059    nd            nd            17.800000     2008-06-10T18:29:00.96Z  
1829.3501   66561   43.8174  -69.8041  187.0    6.1    17.791     7.155      1011.7        577.446784    545.566566    nd            nd            17.800000     2008-06-10T18:29:21.01Z  
1829.6827   66581   43.8163  -69.8042  180.0    6.1    17.785     7.163      1011.6        570.295502    538.803430    nd            nd            17.800000     2008-06-10T18:29:40.96Z  
1830.0168   66601   43.8153  -69.8040  163.0    6.1    17.747     7.235      1011.6        565.485150    534.284367    nd            nd            17.800000     2008-06-10T18:30:01.01Z  
1830.3494   66621   43.8143  -69.8032  141.0    6.0    17.674     7.439      1011.6        561.781934    530.843680    nd            nd            17.800000     2008-06-10T18:30:20.96Z  
1830.6835   66641   43.8135  -69.8022  139.0    6.1    17.578     7.646      1011.7        558.064698    527.406311    nd            nd            17.800000     2008-06-10T18:30:41.01Z  
1831.0162   66661   43.8127  -69.8013  138.0    5.3    17.539     7.783      1011.7        555.276828    524.816322    nd            nd            17.800000     2008-06-10T18:31:00.97Z  
1831.3502   66681   43.8120  -69.8005  138.0    4.6    17.515     7.893      1011.7        553.146134    522.813669    nd            nd            17.800000     2008-06-10T18:31:21.01Z  
1831.6829   66701   43.8114  -69.7998  140.0    4.2    17.495     8.006      1011.7        551.215004    521.012331    nd            nd            17.800000     2008-06-10T18:31:40.97Z  
1832.0170   66721   43.8109  -69.7991  140.0    4.2    17.466     8.119      1011.7        549.594506    519.506838    nd            nd            17.800000     2008-06-10T18:32:01.02Z  
1832.3496   66741   43.8102  -69.7985  142.0    4.3    17.427     8.186      1011.7        547.823391    517.858284    nd            nd            17.800000     2008-06-10T18:32:20.98Z  
1832.6837   66761   43.8096  -69.7978  141.0    4.3    17.429     8.185      1011.7        546.088523    516.230008    nd            nd            17.800000     2008-06-10T18:32:41.02Z  
1833.0163   66781   43.8090  -69.7971  137.0    4.3    17.454     8.168      1011.7        543.761406    514.003382    nd            nd            17.800000     2008-06-10T18:33:00.98Z  
1833.3504   66801   43.8085  -69.7964  136.0    4.3    17.467     8.209      1011.7        541.708231    512.050494    nd            nd            17.800000     2008-06-10T18:33:21.02Z  
1833.6830   66821   43.8079  -69.7956  136.0    4.5    17.446     8.289      1011.7        540.189208    510.631356    nd            nd            17.800000     2008-06-10T18:33:40.98Z  
1834.0171   66841   43.8073  -69.7948  136.0    4.9    17.415     8.342      1011.8        538.583095    509.145759    nd            nd            17.800000     2008-06-10T18:34:01.03Z  
1834.3498   66861   43.8066  -69.7940  136.0    5.0    17.376     8.405      1011.8        536.570539    507.273721    nd            nd            17.800000     2008-06-10T18:34:20.99Z  
1834.6838   66881   43.8060  -69.7931  132.0    5.0    17.345     8.518      1011.8        534.954573    505.779458    nd            nd            17.800000     2008-06-10T18:34:41.03Z  
1835.0165   66901   43.8054  -69.7922  131.0    5.0    17.316     8.611      1011.8        535.094363    505.919387    nd            nd            17.800000     2008-06-10T18:35:00.99Z  
1835.3506   66921   43.8048  -69.7912  130.0    5.1    17.287     8.769      1011.8        534.162982    505.081148    nd            nd            17.800000     2008-06-10T18:35:21.04Z  
1835.6832   66941   43.8041  -69.7903  137.0    5.0    17.256     8.873      1011.8        530.974878    502.073998    nd            nd            17.800000     2008-06-10T18:35:40.99Z  
1836.0173   66961   43.8034  -69.7896  147.0    5.0    17.253     9.036      1011.8        528.019814    499.277637    nd            nd            17.800000     2008-06-10T18:36:01.04Z  
1836.3499   66981   43.8026  -69.7889  149.0    5.0    17.240     9.142      1011.8        525.246275    496.656430    nd            nd            17.800000     2008-06-10T18:36:20.99Z  
1836.6840   67001   43.8018  -69.7883  153.0    4.9    17.230     9.215      1011.7        522.133700    493.694520    nd            nd            17.800000     2008-06-10T18:36:41.04Z  
1837.0166   67021   43.8010  -69.7878  155.0    4.9    17.242     9.275      1011.7        519.094007    490.826969    nd            nd            17.800000     2008-06-10T18:37:01.00Z  
1837.3493   67041   43.8002  -69.7873  155.0    5.0    17.278     9.346      1011.8        516.567740    488.426001    nd            nd            17.800000     2008-06-10T18:37:20.96Z  
1837.6834   67061   43.7994  -69.7868  158.0    5.0    17.317     9.417      1011.8        514.360390    486.334080    nd            nd            17.800000     2008-06-10T18:37:41.00Z  
1838.0160   67081   43.7985  -69.7865  170.0    5.0    17.347     9.511      1011.8        512.550029    484.586896    nd            nd            17.800000     2008-06-10T18:38:00.96Z  
1838.3501   67101   43.7976  -69.7864  181.0    4.9    17.381     9.547      1011.8        511.191662    483.301921    nd            nd            17.800000     2008-06-10T18:38:21.01Z  
1838.6827   67121   43.7967  -69.7865  184.0    4.9    17.367     9.575      1011.8        510.192984    482.379909    nd            nd            17.800000     2008-06-10T18:38:40.96Z  
1839.0168   67141   43.7958  -69.7866  185.0    4.8    17.288     9.756      1011.8        509.499567    481.763431    nd            nd            17.800000     2008-06-10T18:39:01.01Z  
1839.3494   67161   43.7950  -69.7867  184.0    4.8    17.219     9.877      1011.8        508.005036    480.398792    nd            nd            17.800000     2008-06-10T18:39:20.96Z  
1839.6835   67181   43.7941  -69.7869  186.0    4.9    17.329     9.763      1011.8        504.921996    477.430094    nd            nd            17.800000     2008-06-10T18:39:41.01Z  
1840.0162   67201   43.7932  -69.7870  183.0    5.7    17.393     9.896      1011.9        502.844310    475.430200    nd            nd            17.800000     2008-06-10T18:40:00.97Z  
1840.3502   67221   43.7920  -69.7871  183.0    6.8    17.386     9.995      1011.8        502.120666    474.730240    nd            nd            17.800000     2008-06-10T18:40:21.01Z  
1840.6829   67241   43.7907  -69.7872  182.0    7.2    17.280     10.255     1011.8        501.600787    474.301885    nd            nd            17.800000     2008-06-10T18:40:40.97Z  
1841.0170   67261   43.7894  -69.7872  181.0    7.3    17.125     10.624     1011.8        499.912558    472.812301    nd            nd            17.800000     2008-06-10T18:41:01.02Z  
1841.3496   67281   43.7881  -69.7873  180.0    7.4    17.025     10.774     1011.9        496.046708    469.224017    nd            nd            17.800000     2008-06-10T18:41:20.98Z  
1841.6837   67301   43.7867  -69.7874  187.0    7.5    16.931     11.069     1011.8        490.989772    464.484803    nd            nd            17.800000     2008-06-10T18:41:41.02Z  
1842.0163   67321   43.7854  -69.7878  193.0    7.6    16.796     11.519     1011.8        486.950560    460.746772    nd            nd            17.800000     2008-06-10T18:42:00.98Z  
1842.3504   67341   43.7841  -69.7882  194.0    7.7    16.554     12.192     1011.8        482.525011    456.696129    nd            nd            17.800000     2008-06-10T18:42:21.02Z  
1842.6830   67361   43.7827  -69.7887  195.0    7.8    16.502     12.302     1011.8        475.598463    450.147482    nd            nd            17.800000     2008-06-10T18:42:40.98Z  
1843.0171   67381   43.7813  -69.7892  194.0    7.8    16.512     12.257     1011.8        468.620111    443.546313    nd            nd            17.800000     2008-06-10T18:43:01.03Z  
1843.3498   67401   43.7800  -69.7896  182.0    7.8    16.484     12.413     1011.8        463.670676    438.852987    nd            nd            17.800000     2008-06-10T18:43:20.99Z  
1843.6838   67421   43.7786  -69.7893  165.0    7.8    16.405     12.799     1011.8        460.204173    435.609167    nd            nd            17.800000     2008-06-10T18:43:41.03Z  
1844.0165   67441   43.7773  -69.7888  164.0    7.4    16.325     12.920     1011.8        457.200681    432.832108    nd            nd            17.800000     2008-06-10T18:44:00.99Z  
1844.3506   67461   43.7762  -69.7884  166.0    5.2    16.265     13.099     1011.8        454.362578    430.187934    nd            nd            17.800000     2008-06-10T18:44:21.04Z  
1844.6832   67481   43.7753  -69.7881  167.0    4.7    16.149     13.587     1011.8        451.833558    427.835274    nd            nd            17.800000     2008-06-10T18:44:40.99Z  
1845.0173   67501   43.7745  -69.7878  163.0    4.5    15.987     14.182     1011.9        449.114682    425.368742    nd            nd            17.800000     2008-06-10T18:45:01.04Z  
1845.3499   67521   43.7738  -69.7875  158.0    4.6    15.879     14.391     1011.9        445.873899    422.365041    nd            nd            17.800000     2008-06-10T18:45:20.99Z  
1845.6840   67541   43.7730  -69.7870  159.0    4.7    15.736     14.921     1011.8        442.885283    419.587947    nd            nd            17.800000     2008-06-10T18:45:41.04Z  
1846.0166   67561   43.7722  -69.7867  164.0    4.6    15.582     15.186     1011.8        440.218858    417.126996    nd            nd            17.800000     2008-06-10T18:46:01.00Z  
1846.3507   67581   43.7714  -69.7865  170.0    4.1    15.653     14.510     1011.8        437.734063    414.727738    nd            nd            17.800000     2008-06-10T18:46:21.04Z  
1846.6834   67601   43.7707  -69.7863  170.0    4.2    15.749     14.649     1011.9        435.502002    412.588587    nd            nd            17.800000     2008-06-10T18:46:41.00Z  
1847.0160   67621   43.7699  -69.7860  153.0    4.5    15.383     16.919     1011.9        434.145538    411.488526    nd            nd            17.800000     2008-06-10T18:47:00.96Z  
1847.3501   67641   43.7692  -69.7855  155.0    4.0    15.053     17.558     1011.9        432.553220    410.136477    nd            nd            17.800000     2008-06-10T18:47:21.01Z  
1847.6827   67661   43.7686  -69.7852  168.0    3.8    14.897     17.888     1011.9        429.840781    407.635358    nd            nd            17.800000     2008-06-10T18:47:40.96Z  
1848.0168   67681   43.7679  -69.7850  171.0    3.9    14.650     18.718     1011.9        427.029613    405.079590    nd            nd            17.800000     2008-06-10T18:48:01.01Z  
1848.3494   67701   43.7672  -69.7849  169.0    4.3    14.464     19.167     1011.8        424.663597    402.899793    nd            nd            17.800000     2008-06-10T18:48:20.96Z  
1848.6835   67721   43.7664  -69.7847  171.0    4.3    14.266     19.498     1011.9        422.789727    401.211609    nd            nd            17.800000     2008-06-10T18:48:41.01Z  
1849.0162   67741   43.7656  -69.7845  171.0    4.4    14.227     19.057     1011.8        421.037762    399.555893    nd            nd            17.800000     2008-06-10T18:49:00.97Z  
1849.3502   67761   43.7648  -69.7844  173.0    4.7    14.340     18.736     1011.8        419.267244    397.827479    nd            nd            17.800000     2008-06-10T18:49:21.01Z  
1849.6829   67781   43.7639  -69.7843  175.0    4.7    14.152     20.034     1011.8        417.633885    396.362635    nd            nd            17.800000     2008-06-10T18:49:40.97Z  
1850.0170   67801   43.7630  -69.7842  176.0    5.1    14.038     19.881     1011.8        416.395309    395.212491    nd            nd            17.800000     2008-06-10T18:50:01.02Z  
1850.3496   67821   43.7621  -69.7841  174.0    5.3    14.101     19.442     1011.8        415.166848    394.026936    nd            nd            17.800000     2008-06-10T18:50:20.98Z  
1850.6837   67841   43.7612  -69.7840  175.0    5.0    14.289     18.822     1011.8        414.240310    393.070975    nd            nd            17.800000     2008-06-10T18:50:41.02Z  
1851.0163   67861   43.7603  -69.7839  175.0    4.8    14.499     18.393     1011.8        413.586920    392.355894    nd            nd            17.800000     2008-06-10T18:51:00.98Z  
1851.3504   67881   43.7594  -69.7837  167.0    4.5    14.636     18.393     1011.8        413.475510    392.210715    nd            nd            17.800000     2008-06-10T18:51:21.02Z  
1851.6830   67901   43.7587  -69.7834  162.0    4.6    14.409     19.966     1011.8        413.742454    392.559807    nd            nd            17.800000     2008-06-10T18:51:40.98Z  
1852.0171   67921   43.7579  -69.7831  160.0    4.4    14.072     20.814     1011.8        413.605615    392.562605    nd            nd            17.800000     2008-06-10T18:52:01.03Z  
1852.3498   67941   43.7571  -69.7827  161.0    4.2    13.884     21.078     1011.8        413.011544    392.056690    nd            nd            17.800000     2008-06-10T18:52:20.99Z  
1852.6838   67961   43.7564  -69.7823  157.0    4.2    13.702     21.640     1011.7        411.898188    391.059513    nd            nd            17.800000     2008-06-10T18:52:41.03Z  
1853.0165   67981   43.7557  -69.7819  155.0    3.9    13.577     21.688     1011.8        410.273996    389.583028    nd            nd            17.800000     2008-06-10T18:53:00.99Z  
1853.3506   68001   43.7551  -69.7816  158.0    3.6    13.660     21.030     1011.8        408.256590    387.631695    nd            nd            17.800000     2008-06-10T18:53:21.04Z  
1853.6832   68021   43.7545  -69.7812  151.0    4.1    13.765     20.713     1011.7        406.634567    386.020759    nd            nd            17.800000     2008-06-10T18:53:40.99Z  
1854.0173   68041   43.7538  -69.7807  155.0    4.5    13.868     20.415     1011.7        405.770553    385.175036    nd            nd            17.800000     2008-06-10T18:54:01.04Z  
1854.3499   68061   43.7530  -69.7802  157.0    4.5    13.980     20.101     1011.7        405.239140    384.625295    nd            nd            17.800000     2008-06-10T18:54:20.99Z  
1854.6840   68081   43.7524  -69.7798  152.0    3.7    14.097     19.789     1011.7        405.129049    384.478791    nd            nd            17.800000     2008-06-10T18:54:41.04Z  
1855.0166   68101   43.7518  -69.7795  160.0    3.6    14.169     19.958     1011.8        405.141700    384.467061    nd            nd            17.800000     2008-06-10T18:55:01.00Z  
1855.3507   68121   43.7512  -69.7792  161.0    3.3    13.881     21.915     1011.7        405.182305    384.618942    nd            nd            17.800000     2008-06-10T18:55:21.04Z  
1855.6834   68141   43.7506  -69.7789  158.0    3.3    13.553     22.962     1011.7        406.265136    385.775819    nd            nd            17.800000     2008-06-10T18:55:41.00Z  
1856.0160   68161   43.7501  -69.7786  152.0    3.3    13.351     23.142     1011.7        406.623463    386.190357    nd            nd            17.800000     2008-06-10T18:56:00.96Z  
1856.3501   68181   43.7496  -69.7781  143.0    3.3    13.258     23.088     1011.7        405.697272    385.341871    nd            nd            17.800000     2008-06-10T18:56:21.01Z  
1856.6827   68201   43.7491  -69.7776  136.0    3.6    13.201     23.030     1011.7        404.446150    384.166128    nd            nd            17.800000     2008-06-10T18:56:40.96Z  
1857.0168   68221   43.7486  -69.7770  139.0    3.6    13.238     22.781     1011.7        403.397089    383.151226    nd            nd            17.800000     2008-06-10T18:57:01.01Z  
1857.3494   68241   43.7481  -69.7764  138.0    3.8    13.205     23.114     1011.7        402.423487    382.240566    nd            nd            17.800000     2008-06-10T18:57:20.96Z  
1857.6835   68261   43.7476  -69.7757  132.0    3.7    12.974     24.219     1011.7        401.955472    381.873396    nd            nd            17.800000     2008-06-10T18:57:41.01Z  
1858.0162   68281   43.7471  -69.7750  133.0    4.0    12.700     24.945     1011.7        401.653562    381.694888    nd            nd            17.800000     2008-06-10T18:58:00.97Z  
1858.3502   68301   43.7466  -69.7742  131.0    4.9    12.582     24.894     1011.6        401.208500    381.298343    nd            nd            17.800000     2008-06-10T18:58:21.01Z  
1858.6829   68321   43.7459  -69.7734  141.0    5.1    12.544     24.855     1011.6        400.243303    380.393035    nd            nd            17.800000     2008-06-10T18:58:40.97Z  
1859.0170   68341   43.7452  -69.7725  138.0    5.4    12.576     24.454     1011.6        399.444762    379.621231    nd            nd            17.800000     2008-06-10T18:59:01.02Z  
1859.3496   68361   43.7445  -69.7716  130.0    5.5    12.665     24.405     1011.6        398.237182    378.448195    nd            nd            17.800000     2008-06-10T18:59:20.98Z  
1859.6837   68381   43.7439  -69.7705  128.0    5.1    12.684     24.414     1011.6        397.135912    377.386789    nd            nd            17.800000     2008-06-10T18:59:41.02Z  
1900.0163   68401   43.7433  -69.7695  129.0    5.3    12.781     23.946     1011.6        395.806530    376.081699    nd            nd            18.166667     2008-06-10T19:00:00.98Z  
1900.3504   68421   43.7426  -69.7686  138.0    5.4    12.901     23.750     1011.6        395.400449    375.654771    nd            nd            18.400000     2008-06-10T19:00:21.02Z  
1900.6830   68441   43.7418  -69.7677  145.0    5.8    12.913     23.971     1011.6        395.314693    375.569915    nd            nd            18.400000     2008-06-10T19:00:40.98Z  
1901.0171   68461   43.7410  -69.7669  144.0    5.8    13.066     23.203     1011.6        395.691176    375.878803    nd            nd            18.400000     2008-06-10T19:01:01.03Z  
1901.3498   68481   43.7401  -69.7660  142.0    5.7    13.295     22.689     1011.6        395.915941    376.004337    nd            nd            18.400000     2008-06-10T19:01:20.99Z  
1901.6838   68501   43.7393  -69.7652  144.0    5.8    13.251     23.717     1011.6        395.840415    375.948425    nd            nd            18.400000     2008-06-10T19:01:41.03Z  
1902.0165   68521   43.7385  -69.7644  152.0    5.4    13.105     23.892     1011.6        396.271150    376.407471    nd            nd            18.400000     2008-06-10T19:02:00.99Z  
1902.3506   68541   43.7376  -69.7638  151.0    5.3    13.258     23.286     1011.6        396.312009    376.385049    nd            nd            18.400000     2008-06-10T19:02:21.04Z  
1902.6832   68561   43.7368  -69.7631  148.0    5.4    13.295     23.654     1011.6        396.154401    376.219439    nd            nd            18.400000     2008-06-10T19:02:40.99Z  
1903.0173   68581   43.7359  -69.7625  152.0    5.4    13.280     23.970     1011.6        396.760382    376.798613    nd            nd            18.400000     2008-06-10T19:03:01.04Z  
1903.3499   68601   43.7350  -69.7619  157.0    5.5    13.278     24.368     1011.6        397.816842    377.804330    nd            nd            18.400000     2008-06-10T19:03:20.99Z  
1903.6840   68621   43.7340  -69.7615  169.0    5.6    13.238     25.202     1011.6        399.326745    379.263081    nd            nd            18.400000     2008-06-10T19:03:41.04Z  
1904.0166   68641   43.7330  -69.7614  179.0    5.7    13.143     25.991     1011.6        401.636734    381.503612    nd            nd            18.400000     2008-06-10T19:04:01.00Z  
1904.3493   68661   43.7320  -69.7615  183.0    5.7    13.010     26.539     1011.6        405.015572    384.764068    nd            nd            18.400000     2008-06-10T19:04:20.96Z  
1904.6834   68681   43.7309  -69.7616  187.0    5.8    12.976     26.178     1011.6        408.923536    388.490178    nd            nd            18.400000     2008-06-10T19:04:41.00Z  
1905.0160   68701   43.7299  -69.7620  201.0    5.9    13.059     25.658     1011.7        411.265093    390.694241    nd            nd            18.400000     2008-06-10T19:05:00.96Z  
1905.3501   68721   43.7290  -69.7627  210.0    5.9    13.028     25.934     1011.7        410.136034    389.637207    nd            nd            18.400000     2008-06-10T19:05:21.01Z  
1905.6827   68741   43.7281  -69.7635  213.0    6.1    12.784     26.832     1011.7        408.025017    387.721322    nd            nd            18.400000     2008-06-10T19:05:40.96Z  
1906.0168   68761   43.7271  -69.7643  211.0    6.2    12.628     26.581     1011.7        409.083110    388.778398    nd            nd            18.400000     2008-06-10T19:06:01.01Z  
1906.3494   68781   43.7261  -69.7651  210.0    6.3    12.658     25.816     1011.7        411.602952    391.158840    nd            nd            18.400000     2008-06-10T19:06:20.96Z  
1906.6835   68801   43.7252  -69.7659  210.0    6.2    12.789     25.138     1011.6        412.168861    391.635034    nd            nd            18.400000     2008-06-10T19:06:41.01Z  
1907.0162   68821   43.7241  -69.7666  203.0    6.2    12.862     24.950     1011.6        410.516749    390.036048    nd            nd            18.400000     2008-06-10T19:07:00.97Z  
1907.3502   68841   43.7231  -69.7672  203.0    6.3    12.930     24.700     1011.6        408.667928    388.254858    nd            nd            18.400000     2008-06-10T19:07:21.01Z  
1907.6829   68861   43.7221  -69.7678  203.0    6.3    12.980     24.627     1011.6        406.777790    386.444114    nd            nd            18.400000     2008-06-10T19:07:40.97Z  
1908.0170   68881   43.7210  -69.7684  201.0    6.3    12.974     24.735     1011.6        405.047351    384.803257    nd            nd            18.400000     2008-06-10T19:08:01.02Z  
1908.3496   68901   43.7199  -69.7690  200.0    6.3    12.954     24.785     1011.6        403.591233    383.429357    nd            nd            18.400000     2008-06-10T19:08:20.98Z  
1908.6837   68921   43.7189  -69.7696  202.0    6.3    12.927     24.840     1011.7        402.116161    382.044105    nd            nd            18.400000     2008-06-10T19:08:41.02Z  
1909.0163   68941   43.7179  -69.7702  205.0    6.2    12.905     24.884     1011.7        400.616661    380.633971    nd            nd            18.400000     2008-06-10T19:09:00.98Z  
1909.3504   68961   43.7168  -69.7709  205.0    6.3    12.888     24.953     1011.7        398.953112    379.061854    nd            nd            18.400000     2008-06-10T19:09:21.02Z  
1909.6830   68981   43.7158  -69.7715  200.0    6.3    12.853     25.050     1011.7        397.446616    377.641604    nd            nd            18.400000     2008-06-10T19:09:40.98Z  
1910.0171   69001   43.7147  -69.7720  201.0    6.4    12.832     25.034     1011.7        396.176980    376.442307    nd            nd            18.400000     2008-06-10T19:10:01.03Z  
1910.3498   69021   43.7136  -69.7726  203.0    6.4    12.822     25.029     1011.7        394.784136    375.124208    nd            nd            18.400000     2008-06-10T19:10:20.99Z  
1910.6838   69041   43.7126  -69.7733  203.0    6.4    12.800     25.088     1011.7        393.647531    374.053846    nd            nd            18.400000     2008-06-10T19:10:41.03Z  
1911.0165   69061   43.7115  -69.7739  203.0    6.5    12.810     25.135     1011.7        392.670749    373.116300    nd            nd            18.400000     2008-06-10T19:11:00.99Z  
1911.3506   69081   43.7104  -69.7745  201.0    6.5    12.769     25.372     1011.6        391.956248    372.441886    nd            nd            18.400000     2008-06-10T19:11:21.04Z  
1911.6832   69101   43.7093  -69.7751  202.0    6.5    12.724     25.483     1011.6        391.508719    372.028928    nd            nd            18.400000     2008-06-10T19:11:40.99Z  
1912.0173   69121   43.7082  -69.7758  203.0    6.6    12.667     25.689     1011.6        390.979467    371.541057    nd            nd            18.400000     2008-06-10T19:12:01.04Z  
1912.3499   69141   43.7071  -69.7765  203.0    6.9    12.605     25.956     1011.6        390.082877    370.702534    nd            nd            18.400000     2008-06-10T19:12:20.99Z  
1912.6840   69161   43.7059  -69.7772  203.0    7.3    12.537     26.138     1011.6        388.620537    369.322259    nd            nd            18.400000     2008-06-10T19:12:41.04Z  
1913.0166   69181   43.7047  -69.7779  203.0    7.4    12.509     26.281     1011.5        386.990073    367.762784    nd            nd            18.400000     2008-06-10T19:13:01.00Z  
1913.3493   69201   43.7035  -69.7787  204.0    7.4    12.463     26.567     1011.5        385.196290    366.070669    nd            nd            18.400000     2008-06-10T19:13:20.96Z  
1913.6834   69221   43.7023  -69.7794  204.0    7.4    12.398     26.850     1011.5        383.385068    364.362497    nd            nd            18.400000     2008-06-10T19:13:41.00Z  
1914.0160   69241   43.7010  -69.7802  205.0    7.4    12.334     27.136     1011.4        382.061756    363.119694    nd            nd            18.400000     2008-06-10T19:14:00.96Z  
1914.3501   69261   43.6998  -69.7810  203.0    7.4    12.296     27.295     1011.4        380.818086    361.942191    nd            nd            18.400000     2008-06-10T19:14:21.01Z  
1914.6827   69281   43.6986  -69.7817  203.0    7.0    12.248     27.615     1011.4        379.700383    360.896538    nd            nd            18.400000     2008-06-10T19:14:40.96Z  
1915.0168   69301   43.6975  -69.7824  202.0    7.0    12.193     27.943     1011.4        378.938792    360.183514    nd            nd            18.400000     2008-06-10T19:15:01.01Z  
1915.3494   69321   43.6963  -69.7830  202.0    6.9    12.148     28.498     1011.4        378.242844    359.535468    nd            nd            18.400000     2008-06-10T19:15:20.96Z  
1915.6835   69341   43.6952  -69.7837  203.0    6.7    12.151     28.837     1011.4        377.534136    358.860249    nd            nd            18.400000     2008-06-10T19:15:41.01Z  
1916.0162   69361   43.6941  -69.7843  203.0    6.7    12.268     29.017     1011.4        376.762481    358.083189    nd            nd            18.400000     2008-06-10T19:16:00.97Z  
1916.3502   69381   43.6929  -69.7850  202.0    6.8    12.352     29.155     1011.3        377.101231    358.372426    nd            nd            18.400000     2008-06-10T19:16:21.01Z  
1916.6829   69401   43.6918  -69.7857  204.0    6.7    12.086     29.168     1011.3        378.431566    359.720456    nd            nd            18.400000     2008-06-10T19:16:40.97Z  
1917.0170   69421   43.6907  -69.7863  201.0    6.7    11.881     29.160     1011.3        377.902782    359.274285    nd            nd            18.400000     2008-06-10T19:17:01.02Z  
1917.3496   69441   43.6896  -69.7870  210.0    6.8    11.792     29.167     1011.3        376.485595    357.961280    nd            nd            18.400000     2008-06-10T19:17:20.98Z  
1917.6837   69461   43.6887  -69.7882  229.0    6.9    11.760     29.216     1011.4        375.500715    357.049604    nd            nd            18.400000     2008-06-10T19:17:41.02Z  
1918.0163   69481   43.6880  -69.7896  235.0    6.9    11.738     29.157     1011.4        374.763160    356.351738    nd            nd            18.400000     2008-06-10T19:18:00.98Z  
1918.3504   69501   43.6872  -69.7910  236.0    6.9    11.754     29.067     1011.3        374.120031    355.729699    nd            nd            18.400000     2008-06-10T19:18:21.02Z  
1918.6830   69521   43.6865  -69.7924  235.0    6.9    11.788     29.005     1011.3        373.548372    355.174201    nd            nd            18.400000     2008-06-10T19:18:40.98Z  
1919.0171   69541   43.6858  -69.7937  226.0    6.9    11.818     29.012     1011.3        373.384484    354.998513    nd            nd            18.400000     2008-06-10T19:19:01.03Z  
1919.3498   69561   43.6848  -69.7949  218.0    6.9    11.868     29.008     1011.3        373.222014    354.819496    nd            nd            18.400000     2008-06-10T19:19:20.99Z  
1919.6838   69581   43.6838  -69.7959  221.0    6.8    11.911     29.015     1011.3        373.183747    354.771570    nd            nd            18.400000     2008-06-10T19:19:41.03Z  
1920.0165   69601   43.6829  -69.7971  222.0    6.9    11.961     29.133     1011.3        373.348517    354.913797    nd            nd            18.400000     2008-06-10T19:20:00.99Z  
1920.3506   69621   43.6820  -69.7983  222.0    6.9    11.996     29.193     1011.3        373.561405    355.107054    nd            nd            18.400000     2008-06-10T19:20:21.04Z  
1920.6832   69641   43.6811  -69.7995  225.0    6.9    12.040     29.225     1011.3        373.282894    354.828659    nd            nd            18.400000     2008-06-10T19:20:40.99Z  
1921.0173   69661   43.6803  -69.8007  227.0    6.9    12.084     29.267     1011.3        372.780325    354.332499    nd            nd            18.400000     2008-06-10T19:21:01.04Z  
1921.3499   69681   43.6794  -69.8019  225.0    6.9    12.125     29.282     1011.3        372.146314    353.708637    nd            nd            18.400000     2008-06-10T19:21:20.99Z  
1921.6840   69701   43.6785  -69.8031  220.0    6.8    12.153     29.269     1011.2        371.438947    353.020047    nd            nd            18.400000     2008-06-10T19:21:41.04Z  
1922.0166   69721   43.6776  -69.8042  223.0    6.8    12.194     29.258     1011.2        370.790956    352.386646    nd            nd            18.400000     2008-06-10T19:22:01.00Z  
1922.3493   69741   43.6766  -69.8054  222.0    6.9    12.242     29.237     1011.2        370.318757    351.913805    nd            nd            18.400000     2008-06-10T19:22:20.96Z  
1922.6834   69761   43.6757  -69.8065  222.0    6.9    12.311     29.232     1011.2        370.015814    351.599720    nd            nd            18.400000     2008-06-10T19:22:41.00Z  
1923.0160   69781   43.6748  -69.8077  221.0    6.9    12.372     29.220     1011.2        370.264426    351.810110    nd            nd            18.400000     2008-06-10T19:23:00.96Z  
1923.3501   69801   43.6739  -69.8088  224.0    7.0    12.437     29.324     1011.2        370.431517    351.942960    nd            nd            18.400000     2008-06-10T19:23:21.01Z  
1923.6827   69821   43.6730  -69.8101  226.0    7.0    12.449     29.531     1011.2        370.664777    352.157427    nd            nd            18.400000     2008-06-10T19:23:40.96Z  
1924.0168   69841   43.6722  -69.8114  229.0    6.9    12.394     29.671     1011.1        369.613883    351.173850    nd            nd            18.400000     2008-06-10T19:24:01.01Z  
1924.3494   69861   43.6714  -69.8127  228.0    7.1    12.255     29.691     1011.1        366.659615    348.401348    nd            nd            18.400000     2008-06-10T19:24:20.96Z  
1924.6835   69881   43.6705  -69.8140  226.0    7.1    12.129     29.571     1011.1        363.313533    345.258119    nd            nd            18.400000     2008-06-10T19:24:41.01Z  
1925.0162   69901   43.6696  -69.8153  227.0    7.1    12.057     29.456     1011.1        360.461136    342.566610    nd            nd            18.400000     2008-06-10T19:25:00.97Z  
1925.3502   69921   43.6687  -69.8165  226.0    7.1    12.018     29.363     1011.1        358.384721    340.601080    nd            nd            18.400000     2008-06-10T19:25:21.01Z  
1925.6829   69941   43.6678  -69.8178  222.0    7.0    12.008     29.287     1011.1        356.944675    339.229504    nd            nd            18.400000     2008-06-10T19:25:40.97Z  
1926.0170   69961   43.6669  -69.8189  222.0    7.2    12.010     29.196     1011.1        355.932176    338.265953    nd            nd            18.400000     2008-06-10T19:26:01.02Z  
1926.3496   69981   43.6659  -69.8201  216.0    7.1    12.063     29.184     1011.0        355.524004    337.850007    nd            nd            18.400000     2008-06-10T19:26:20.98Z  
1926.6837   70001   43.6648  -69.8211  214.0    7.2    12.113     29.166     1011.0        355.650486    337.949244    nd            nd            18.400000     2008-06-10T19:26:41.02Z  
1927.0163   70021   43.6638  -69.8222  227.0    7.2    12.121     29.138     1011.0        355.641612    337.948197    nd            nd            18.400000     2008-06-10T19:27:00.98Z  
1927.3504   70041   43.6630  -69.8236  227.0    7.2    12.149     29.140     1011.0        354.819551    337.155770    nd            nd            18.400000     2008-06-10T19:27:21.02Z  
1927.6830   70061   43.6621  -69.8249  227.0    7.3    12.212     29.183     1011.0        353.891317    336.253671    nd            nd            18.400000     2008-06-10T19:27:40.98Z  
1928.0171   70081   43.6611  -69.8262  226.0    7.4    12.304     29.243     1011.0        353.234529    335.595199    nd            nd            18.400000     2008-06-10T19:28:01.03Z  
1928.3498   70101   43.6602  -69.8275  224.0    7.4    12.409     29.264     1011.0        352.524143    334.886746    nd            nd            18.400000     2008-06-10T19:28:20.99Z  
1928.6838   70121   43.6592  -69.8288  222.0    7.4    12.543     29.254     1011.0        352.103763    334.437736    nd            nd            18.400000     2008-06-10T19:28:41.03Z  
1929.0165   70141   43.6583  -69.8300  221.0    7.5    12.651     29.244     1011.0        351.654960    333.972046    nd            nd            18.400000     2008-06-10T19:29:00.99Z  
1929.3506   70161   43.6572  -69.8312  219.0    7.6    12.744     29.279     1010.9        351.008375    333.323581    nd            nd            18.400000     2008-06-10T19:29:21.04Z  
1929.6832   70181   43.6561  -69.8324  216.0    7.5    12.832     29.325     1010.9        350.822985    333.112276    nd            nd            18.400000     2008-06-10T19:29:40.99Z  
1930.0173   70201   43.6550  -69.8334  209.0    7.4    12.908     29.376     1010.9        351.012675    333.262674    nd            nd            18.400000     2008-06-10T19:30:01.04Z  
1930.3499   70221   43.6538  -69.8344  219.0    7.6    12.989     29.442     1010.9        351.013452    333.247143    nd            nd            18.400000     2008-06-10T19:30:20.99Z  
1930.6840   70241   43.6529  -69.8358  226.0    7.7    13.063     29.453     1010.9        350.721166    332.950446    nd            nd            18.400000     2008-06-10T19:30:41.04Z  
1931.0166   70261   43.6519  -69.8372  228.0    7.7    13.093     29.421     1010.9        350.414074    332.648569    nd            nd            18.400000     2008-06-10T19:31:01.00Z  
1931.3507   70281   43.6510  -69.8386  228.0    7.9    13.117     29.397     1010.9        350.221283    332.454440    nd            nd            18.400000     2008-06-10T19:31:21.04Z  
1931.6834   70301   43.6501  -69.8401  230.0    7.8    13.147     29.426     1010.9        350.469022    332.678711    nd            nd            18.400000     2008-06-10T19:31:41.00Z  
1932.0160   70321   43.6491  -69.8416  227.0    8.2    13.174     29.483     1010.9        350.615802    332.803838    nd            nd            18.400000     2008-06-10T19:32:00.96Z  
1932.3501   70341   43.6481  -69.8431  227.0    8.4    13.219     29.545     1010.9        350.436503    332.614363    nd            nd            18.400000     2008-06-10T19:32:21.01Z  
1932.6827   70361   43.6471  -69.8447  226.0    8.4    13.298     29.724     1010.9        350.207711    332.370615    nd            nd            18.400000     2008-06-10T19:32:40.96Z  
1933.0168   70381   43.6460  -69.8462  225.0    8.3    13.377     29.960     1010.9        349.808934    331.961028    nd            nd            18.400000     2008-06-10T19:33:01.01Z  
1933.3494   70401   43.6450  -69.8477  228.0    8.5    13.422     30.250     1010.9        348.170444    330.393431    nd            nd            18.400000     2008-06-10T19:33:20.96Z  
1933.6835   70421   43.6440  -69.8493  227.0    8.6    13.310     30.651     1010.9        345.768254    328.153772    nd            nd            18.400000     2008-06-10T19:33:41.01Z  
1934.0162   70441   43.6429  -69.8509  227.0    8.6    13.120     30.816     1010.9        341.723219    324.375412    nd            nd            18.400000     2008-06-10T19:34:00.97Z  
1934.3502   70461   43.6419  -69.8524  227.0    8.5    13.017     30.831     1010.9        335.972987    318.950161    nd            nd            18.400000     2008-06-10T19:34:21.01Z  
1934.6829   70481   43.6409  -69.8540  229.0    8.4    12.988     30.829     1010.9        330.779237    314.030231    nd            nd            18.400000     2008-06-10T19:34:40.97Z  
1935.0170   70501   43.6399  -69.8556  226.0    8.4    13.005     30.824     1010.9        326.643450    310.097516    nd            nd            18.400000     2008-06-10T19:35:01.02Z  
1935.3496   70521   43.6388  -69.8571  229.0    8.5    13.020     30.820     1010.9        323.741425    307.340108    nd            nd            18.400000     2008-06-10T19:35:20.98Z  
1935.6837   70541   43.6378  -69.8587  227.0    8.4    13.021     30.818     1010.9        321.735767    305.432509    nd            nd            18.400000     2008-06-10T19:35:41.02Z  
1936.0163   70561   43.6368  -69.8602  228.0    7.9    13.010     30.814     1010.9        320.252827    304.029952    nd            nd            18.400000     2008-06-10T19:36:00.98Z  
1936.3504   70581   43.6359  -69.8616  226.0    7.4    12.992     30.820     1010.9        319.293840    303.121379    nd            nd            18.400000     2008-06-10T19:36:21.02Z  
1936.6830   70601   43.6350  -69.8629  226.0    7.4    13.013     30.797     1010.9        318.264451    302.133940    nd            nd            18.400000     2008-06-10T19:36:40.98Z  
1937.0171   70621   43.6341  -69.8643  226.0    7.4    13.077     30.770     1010.9        317.532465    301.423739    nd            nd            18.400000     2008-06-10T19:37:01.03Z  
1937.3498   70641   43.6332  -69.8656  227.0    7.5    13.125     30.768     1010.9        317.547563    301.427397    nd            nd            18.400000     2008-06-10T19:37:20.99Z  
1937.6838   70661   43.6322  -69.8670  225.0    7.5    13.147     30.757     1010.9        317.948796    301.801351    nd            nd            18.400000     2008-06-10T19:37:41.03Z  
1938.0165   70681   43.6313  -69.8683  225.0    7.8    13.176     30.748     1010.9        318.463746    302.283019    nd            nd            18.400000     2008-06-10T19:38:00.99Z  
1938.3506   70701   43.6303  -69.8697  228.0    7.8    13.219     30.754     1010.9        318.694609    302.493003    nd            nd            18.400000     2008-06-10T19:38:21.04Z  
1938.6832   70721   43.6294  -69.8712  228.0    7.7    13.253     30.766     1010.9        319.012592    302.786030    nd            nd            18.400000     2008-06-10T19:38:40.99Z  
1939.0173   70741   43.6285  -69.8726  229.0    7.6    13.275     30.786     1010.9        319.217747    302.980173    nd            nd            18.400000     2008-06-10T19:39:01.04Z  
1939.3499   70761   43.6276  -69.8740  227.0    7.7    13.307     30.792     1010.9        319.595753    303.327663    nd            nd            18.400000     2008-06-10T19:39:20.99Z  
1939.6840   70781   43.6267  -69.8755  231.0    7.7    13.325     30.800     1010.9        319.676438    303.404575    nd            nd            18.400000     2008-06-10T19:39:41.04Z  
1940.0166   70801   43.6257  -69.8769  223.0    7.7    13.347     30.803     1010.9        319.958622    303.661116    nd            nd            18.400000     2008-06-10T19:40:01.00Z  
1940.3507   70821   43.6246  -69.8780  210.0    7.8    13.411     30.803     1010.9        320.194414    303.861974    nd            nd            18.400000     2008-06-10T19:40:21.04Z  
1940.6834   70841   43.6233  -69.8789  205.0    7.6    13.428     30.813     1010.9        320.367788    304.024162    nd            nd            18.400000     2008-06-10T19:40:41.00Z  
1941.0160   70861   43.6221  -69.8797  205.0    7.7    13.428     30.820     1010.9        320.785475    304.425475    nd            nd            18.400000     2008-06-10T19:41:00.96Z  
1941.3501   70881   43.6209  -69.8805  207.0    7.5    13.444     30.828     1011.0        320.907900    304.541417    nd            nd            18.400000     2008-06-10T19:41:21.01Z  
1941.6827   70901   43.6197  -69.8814  207.0    7.6    13.437     30.837     1011.0        321.122216    304.746375    nd            nd            18.400000     2008-06-10T19:41:40.96Z  
1942.0168   70921   43.6184  -69.8822  205.0    7.6    13.381     30.851     1011.0        321.248942    304.885390    nd            nd            18.400000     2008-06-10T19:42:01.01Z  
1942.3494   70941   43.6172  -69.8831  208.0    7.6    13.346     30.866     1011.0        321.131307    304.787870    nd            nd            18.400000     2008-06-10T19:42:20.96Z  
1942.6835   70961   43.6160  -69.8840  211.0    7.6    13.329     30.876     1011.0        320.996927    304.665339    nd            nd            18.400000     2008-06-10T19:42:41.01Z  
1943.0162   70981   43.6149  -69.8851  216.0    7.7    13.345     30.882     1011.0        320.525512    304.213125    nd            nd            18.400000     2008-06-10T19:43:00.97Z  
1943.3502   71001   43.6138  -69.8862  216.0    7.7    13.358     30.889     1011.0        320.249614    303.948564    nd            nd            18.400000     2008-06-10T19:43:21.01Z  
1943.6829   71021   43.6126  -69.8874  218.0    8.1    13.350     30.897     1011.0        320.108731    303.817544    nd            nd            18.400000     2008-06-10T19:43:40.97Z  
1944.0170   71041   43.6115  -69.8887  217.0    8.2    13.327     30.927     1011.0        319.871116    303.595126    nd            nd            18.400000     2008-06-10T19:44:01.02Z  
1944.3496   71061   43.6103  -69.8900  221.0    8.2    13.285     30.932     1011.0        319.669472    303.419310    nd            nd            18.400000     2008-06-10T19:44:20.98Z  
1944.6837   71081   43.6092  -69.8914  222.0    8.2    13.247     30.960     1010.9        319.358877    303.127471    nd            nd            18.400000     2008-06-10T19:44:41.02Z  
1945.0163   71101   43.6082  -69.8927  221.0    8.2    13.107     30.998     1010.9        319.014992    302.839892    nd            nd            18.400000     2008-06-10T19:45:00.98Z  
1945.3504   71121   43.6070  -69.8941  221.0    8.2    12.976     31.004     1010.9        318.602593    302.482552    nd            nd            18.400000     2008-06-10T19:45:21.02Z  
1945.6830   71141   43.6059  -69.8954  220.0    8.3    12.920     31.004     1010.9        317.763978    301.697385    nd            nd            18.400000     2008-06-10T19:45:40.98Z  
1946.0171   71161   43.6047  -69.8967  219.0    8.5    12.996     30.967     1010.9        316.868605    300.826052    nd            nd            18.400000     2008-06-10T19:46:01.03Z  
1946.3498   71181   43.6036  -69.8981  223.0    8.4    13.103     30.939     1010.9        316.114618    300.080730    nd            nd            18.400000     2008-06-10T19:46:20.99Z  
1946.6838   71201   43.6025  -69.8996  222.0    8.5    13.176     30.947     1010.9        316.179583    300.118126    nd            nd            18.400000     2008-06-10T19:46:41.03Z  
1947.0165   71221   43.6014  -69.9011  226.0    8.4    13.208     30.969     1010.9        316.531722    300.449325    nd            nd            18.400000     2008-06-10T19:47:00.99Z  
1947.3506   71241   43.6003  -69.9025  223.0    8.4    13.296     30.982     1010.9        316.924725    300.799925    nd            nd            18.400000     2008-06-10T19:47:21.04Z  
1947.6832   71261   43.5992  -69.9040  223.0    8.4    13.553     30.945     1010.9        317.732866    301.487019    nd            nd            18.400000     2008-06-10T19:47:40.99Z  
1948.0173   71281   43.5981  -69.9054  224.0    8.5    13.680     30.917     1010.9        319.286602    302.927376    nd            nd            18.400000     2008-06-10T19:48:01.04Z  
1948.3499   71301   43.5970  -69.9069  220.0    8.7    13.702     30.922     1010.9        321.404408    304.924428    nd            nd            18.400000     2008-06-10T19:48:20.99Z  
1948.6840   71321   43.5958  -69.9083  226.0    8.7    13.700     30.947     1010.9        323.024890    306.466429    nd            nd            18.400000     2008-06-10T19:48:41.04Z  
1949.0166   71341   43.5948  -69.9099  225.0    8.7    13.692     30.975     1010.9        324.300068    307.674753    nd            nd            18.400000     2008-06-10T19:49:01.00Z  
1949.3493   71361   43.5936  -69.9114  221.0    8.7    13.637     30.977     1010.9        325.442789    308.776475    nd            nd            18.400000     2008-06-10T19:49:20.96Z  
1949.6834   71381   43.5925  -69.9129  226.0    8.6    13.520     30.962     1010.9        326.101493    309.441212    nd            nd            18.400000     2008-06-10T19:49:41.00Z  
1950.0160   71401   43.5914  -69.9144  223.0    8.6    13.455     30.971     1010.9        326.203117    309.555950    nd            nd            18.400000     2008-06-10T19:50:00.96Z  
1950.3501   71421   43.5903  -69.9158  222.0    8.6    13.433     30.995     1010.9        325.813664    309.193802    nd            nd            18.400000     2008-06-10T19:50:21.01Z  
1950.6827   71441   43.5891  -69.9172  221.0    8.7    13.427     30.994     1010.9        325.483333    308.880573    nd            nd            18.400000     2008-06-10T19:50:40.96Z  
1951.0168   71461   43.5879  -69.9187  223.0    8.6    13.626     31.038     1010.9        325.628333    308.962645    nd            nd            18.400000     2008-06-10T19:51:01.01Z  
1951.3494   71481   43.5868  -69.9202  225.0    8.5    13.635     31.029     1010.9        326.736724    310.012457    nd            nd            18.400000     2008-06-10T19:51:20.96Z  
1951.6835   71501   43.5857  -69.9216  224.0    8.5    13.434     31.048     1010.9        328.625783    311.860820    nd            nd            18.400000     2008-06-10T19:51:41.01Z  
1952.0162   71521   43.5846  -69.9231  224.0    8.5    13.631     31.069     1010.9        328.735165    311.901580    nd            nd            18.400000     2008-06-10T19:52:00.97Z  
1952.3502   71541   43.5835  -69.9246  223.0    8.5    13.829     31.058     1010.9        329.018471    312.105410    nd            nd            18.400000     2008-06-10T19:52:21.01Z  
1952.6829   71561   43.5824  -69.9260  221.0    8.5    13.915     31.044     1010.9        330.836650    313.797901    nd            nd            18.400000     2008-06-10T19:52:40.97Z  
1953.0170   71581   43.5812  -69.9274  221.0    8.6    13.867     31.039     1010.9        332.620916    315.498940    nd            nd            18.400000     2008-06-10T19:53:01.02Z  
1953.3496   71601   43.5801  -69.9288  221.0    8.5    13.816     31.034     1010.9        333.495771    316.339424    nd            nd            18.400000     2008-06-10T19:53:20.98Z  
1953.6837   71621   43.5789  -69.9302  221.0    8.5    13.810     31.039     1010.8        333.950069    316.768199    nd            nd            18.400000     2008-06-10T19:53:41.02Z  
1954.0163   71641   43.5778  -69.9316  222.0    8.5    13.821     31.042     1010.8        334.099214    316.908953    nd            nd            18.400000     2008-06-10T19:54:00.98Z  
1954.3504   71661   43.5767  -69.9331  229.0    8.5    13.886     31.040     1010.9        334.249390    317.031481    nd            nd            18.400000     2008-06-10T19:54:21.02Z  
1954.6830   71681   43.5757  -69.9347  230.0    8.6    13.994     31.046     1010.8        334.598615    317.326378    nd            nd            18.400000     2008-06-10T19:54:40.98Z  
1955.0171   71701   43.5747  -69.9364  229.0    8.5    14.187     31.025     1010.8        335.379025    318.002897    nd            nd            18.400000     2008-06-10T19:55:01.03Z  
1955.3498   71721   43.5737  -69.9379  226.0    8.4    14.247     31.005     1010.8        336.405856    318.949001    nd            nd            18.400000     2008-06-10T19:55:20.99Z  
1955.6838   71741   43.5726  -69.9394  223.0    8.5    14.254     31.008     1010.8        337.463549    319.944540    nd            nd            18.400000     2008-06-10T19:55:41.03Z  
1956.0165   71761   43.5715  -69.9408  221.0    8.4    14.253     30.999     1010.8        338.292477    320.734250    nd            nd            18.400000     2008-06-10T19:56:00.99Z  
1956.3506   71781   43.5703  -69.9421  217.0    8.4    14.269     30.968     1010.8        338.900417    321.300143    nd            nd            18.400000     2008-06-10T19:56:21.04Z  
1956.6832   71801   43.5691  -69.9433  216.0    8.5    14.300     30.966     1010.8        339.298551    321.666201    nd            nd            18.400000     2008-06-10T19:56:40.99Z  
1957.0173   71821   43.5679  -69.9446  220.0    8.4    14.239     30.964     1010.8        339.789741    322.156484    nd            nd            18.400000     2008-06-10T19:57:01.04Z  
1957.3499   71841   43.5668  -69.9460  221.0    8.4    14.246     30.934     1010.8        339.996602    322.346003    nd            nd            18.400000     2008-06-10T19:57:20.99Z  
1957.6840   71861   43.5656  -69.9474  219.0    8.5    14.200     30.930     1010.8        339.950939    322.313833    nd            nd            18.400000     2008-06-10T19:57:41.04Z  
1958.0166   71881   43.5644  -69.9487  217.0    8.5    14.051     30.942     1010.8        339.737022    322.151577    nd            nd            18.400000     2008-06-10T19:58:01.00Z  
1958.3493   71901   43.5632  -69.9500  220.0    8.5    14.122     30.882     1010.8        339.250347    321.667061    nd            nd            18.400000     2008-06-10T19:58:20.96Z  
1958.6834   71921   43.5621  -69.9513  219.0    8.5    14.281     30.882     1010.7        338.593179    320.984937    nd            nd            18.400000     2008-06-10T19:58:41.00Z  
1959.0160   71941   43.5609  -69.9526  218.0    8.5    14.214     30.883     1010.7        338.706205    321.110777    nd            nd            18.400000     2008-06-10T19:59:00.96Z  
1959.3501   71961   43.5597  -69.9540  219.0    8.5    14.347     30.793     1010.7        338.987624    321.332422    nd            nd            18.400000     2008-06-10T19:59:21.01Z  
1959.6827   71981   43.5585  -69.9553  219.0    8.5    14.512     30.731     1010.7        338.987682    321.272046    nd            nd            18.400000     2008-06-10T19:59:40.96Z  
2000.0168   72001   43.5573  -69.9568  223.0    8.5    14.540     30.702     1010.7        339.122866    321.389003    nd            nd            18.827778     2008-06-10T20:00:01.01Z  
2000.3494   72021   43.5562  -69.9581  220.0    8.6    14.574     30.633     1010.7        339.111415    321.360884    nd            nd            19.100000     2008-06-10T20:00:20.96Z  
2000.6835   72041   43.5551  -69.9596  223.0    8.6    14.650     30.549     1010.7        339.076214    321.299035    nd            nd            19.100000     2008-06-10T20:00:41.01Z  
2001.0162   72061   43.5539  -69.9611  224.0    8.5    14.683     30.503     1010.7        339.076287    321.288334    nd            nd            19.100000     2008-06-10T20:01:00.97Z  
2001.3502   72081   43.5529  -69.9626  226.0    8.6    14.729     30.455     1010.7        338.830854    321.038074    nd            nd            19.100000     2008-06-10T20:01:21.01Z  
2001.6829   72101   43.5518  -69.9641  224.0    8.6    14.731     30.442     1010.6        338.975377    321.167368    nd            nd            19.100000     2008-06-10T20:01:40.97Z  
2002.0170   72121   43.5507  -69.9656  227.0    8.6    14.651     30.450     1010.6        339.069860    321.283110    nd            nd            19.100000     2008-06-10T20:02:01.02Z  
2002.3496   72141   43.5496  -69.9672  225.0    8.8    14.532     30.486     1010.6        338.689315    320.960160    nd            nd            19.100000     2008-06-10T20:02:20.98Z  
2002.6837   72161   43.5485  -69.9687  221.0    8.7    14.442     30.493     1010.6        337.772288    320.121039    nd            nd            19.100000     2008-06-10T20:02:41.02Z  
2003.0163   72181   43.5473  -69.9701  222.0    8.7    14.360     30.500     1010.6        336.796082    319.219949    nd            nd            19.100000     2008-06-10T20:03:00.98Z  
2003.3504   72201   43.5461  -69.9715  222.0    8.6    14.415     30.428     1010.6        335.780346    318.237878    nd            nd            19.100000     2008-06-10T20:03:21.02Z  
2003.6830   72221   43.5450  -69.9730  222.0    8.7    14.586     30.359     1010.6        335.145078    317.576222    nd            nd            19.100000     2008-06-10T20:03:40.98Z  
2004.0171   72241   43.5438  -69.9744  221.0    8.6    14.706     30.291     1010.6        335.297825    317.679182    nd            nd            19.100000     2008-06-10T20:04:01.03Z  
2004.3498   72261   43.5427  -69.9758  222.0    8.6    14.700     30.298     1010.6        335.639736    317.998604    nd            nd            19.100000     2008-06-10T20:04:20.99Z  
2004.6838   72281   43.5415  -69.9773  223.0    8.7    14.712     30.306     1010.6        336.059000    318.388441    nd            nd            19.100000     2008-06-10T20:04:41.03Z  
2005.0165   72301   43.5404  -69.9788  225.0    8.7    14.801     30.185     1010.6        336.506661    318.780169    nd            nd            19.100000     2008-06-10T20:05:00.99Z  
2005.3506   72321   43.5393  -69.9803  225.0    8.6    14.862     30.106     1010.6        336.981576    319.208957    nd            nd            19.100000     2008-06-10T20:05:21.04Z  
2005.6832   72341   43.5382  -69.9818  223.0    8.6    14.815     30.112     1010.6        337.330431    319.554092    nd            nd            19.100000     2008-06-10T20:05:40.99Z  
2006.0173   72361   43.5371  -69.9832  223.0    8.6    14.637     30.182     1010.6        337.269892    319.557979    nd            nd            19.100000     2008-06-10T20:06:01.04Z  
2006.3499   72381   43.5360  -69.9847  221.0    8.6    14.480     30.218     1010.6        336.437066    318.818006    nd            nd            19.100000     2008-06-10T20:06:20.99Z  
2006.6840   72401   43.5348  -69.9861  221.0    8.5    14.362     30.248     1010.6        334.994726    317.490541    nd            nd            19.100000     2008-06-10T20:06:41.04Z  
2007.0166   72421   43.5337  -69.9875  222.0    8.5    14.237     30.263     1010.6        333.678937    316.282128    nd            nd            19.100000     2008-06-10T20:07:01.00Z  
2007.3493   72441   43.5326  -69.9889  223.0    8.5    14.235     30.239     1010.5        332.084658    314.769493    nd            nd            19.100000     2008-06-10T20:07:20.96Z  
2007.6834   72461   43.5315  -69.9904  224.0    8.4    14.140     30.274     1010.5        330.488345    313.285996    nd            nd            19.100000     2008-06-10T20:07:41.00Z  
2008.0160   72481   43.5304  -69.9918  222.0    8.5    13.986     30.366     1010.5        329.002014    311.914815    nd            nd            19.100000     2008-06-10T20:08:00.96Z  
2008.3501   72501   43.5292  -69.9932  222.0    8.4    13.946     30.373     1010.5        327.509945    310.513182    nd            nd            19.100000     2008-06-10T20:08:21.01Z  
2008.6827   72521   43.5281  -69.9946  220.0    8.5    14.168     30.283     1010.5        326.200135    309.194836    nd            nd            19.100000     2008-06-10T20:08:40.96Z  
2009.0168   72541   43.5270  -69.9960  224.0    8.4    14.344     30.197     1010.5        325.553524    308.521708    nd            nd            19.100000     2008-06-10T20:09:01.01Z  
2009.3494   72561   43.5259  -69.9974  222.0    8.4    14.441     30.084     1010.5        325.675267    308.603050    nd            nd            19.100000     2008-06-10T20:09:20.96Z  
2009.6835   72581   43.5248  -69.9989  222.0    8.4    14.599     29.935     1010.5        325.801269    308.667440    nd            nd            19.100000     2008-06-10T20:09:41.01Z  
2010.0162   72601   43.5236  -70.0002  220.0    8.5    14.775     29.817     1010.4        325.843519    308.647921    nd            nd            19.100000     2008-06-10T20:10:00.97Z  
2010.3502   72621   43.5225  -70.0017  223.0    8.5    14.872     29.761     1010.4        326.733351    309.457511    nd            nd            19.100000     2008-06-10T20:10:21.01Z  
2010.6829   72641   43.5214  -70.0031  222.0    8.4    14.921     29.722     1010.4        327.791910    310.445166    nd            nd            19.100000     2008-06-10T20:10:40.97Z  
2011.0170   72661   43.5202  -70.0045  220.0    8.5    14.888     29.752     1010.5        328.669629    311.288668    nd            nd            19.100000     2008-06-10T20:11:01.02Z  
2011.3496   72681   43.5191  -70.0059  223.0    8.5    14.796     29.788     1010.5        328.934867    311.571991    nd            nd            19.100000     2008-06-10T20:11:20.98Z  
2011.6837   72701   43.5179  -70.0073  221.0    8.5    14.657     29.830     1010.5        328.669870    311.365975    nd            nd            19.100000     2008-06-10T20:11:41.02Z  
2012.0163   72721   43.5168  -70.0087  221.0    8.6    14.493     29.879     1010.4        328.018382    310.797608    nd            nd            19.100000     2008-06-10T20:12:00.98Z  
2012.3504   72741   43.5156  -70.0101  222.0    8.5    14.418     29.876     1010.4        326.855429    309.722137    nd            nd            19.100000     2008-06-10T20:12:21.02Z  
2012.6830   72761   43.5145  -70.0115  220.0    8.6    14.381     29.908     1010.4        325.543198    308.484926    nd            nd            19.100000     2008-06-10T20:12:40.98Z  
2013.0171   72781   43.5133  -70.0129  223.0    8.5    14.411     29.916     1010.4        324.456419    307.449304    nd            nd            19.100000     2008-06-10T20:13:01.03Z  
2013.3498   72801   43.5122  -70.0144  220.0    8.6    14.484     29.891     1010.4        323.643500    306.649466    nd            nd            19.100000     2008-06-10T20:13:20.99Z  
2013.6838   72821   43.5111  -70.0158  223.0    8.6    14.569     29.855     1010.4        323.220591    306.217660    nd            nd            19.100000     2008-06-10T20:13:41.03Z  
2014.0165   72841   43.5099  -70.0173  223.0    8.6    14.691     29.865     1010.4        323.159029    306.117373    nd            nd            19.100000     2008-06-10T20:14:00.99Z  
2014.3506   72861   43.5088  -70.0187  224.0    8.6    14.777     29.872     1010.4        323.694625    306.598363    nd            nd            19.100000     2008-06-10T20:14:21.04Z  
2014.6832   72881   43.5077  -70.0202  222.0    8.7    14.832     29.875     1010.4        324.490884    307.328781    nd            nd            19.100000     2008-06-10T20:14:40.99Z  
2015.0173   72901   43.5066  -70.0217  223.0    8.7    14.946     29.834     1010.4        325.245179    308.003672    nd            nd            19.100000     2008-06-10T20:15:01.04Z  
2015.3499   72921   43.5054  -70.0232  221.0    8.7    15.084     29.772     1010.4        326.211559    308.868935    nd            nd            19.100000     2008-06-10T20:15:20.99Z  
2015.6840   72941   43.5042  -70.0246  223.0    8.7    15.109     29.775     1010.4        327.503230    310.085136    nd            nd            19.100000     2008-06-10T20:15:41.04Z  
2016.0166   72961   43.5031  -70.0261  223.0    8.6    15.092     29.774     1010.4        328.501946    311.035200    nd            nd            19.100000     2008-06-10T20:16:01.00Z  
2016.3507   72981   43.5020  -70.0276  222.0    8.7    15.135     29.718     1010.3        329.053009    311.536312    nd            nd            19.100000     2008-06-10T20:16:21.04Z  
2016.6834   73001   43.5008  -70.0290  223.0    8.8    15.147     29.669     1010.3        329.427988    311.881499    nd            nd            19.100000     2008-06-10T20:16:41.00Z  
2017.0160   73021   43.4997  -70.0305  222.0    8.7    15.115     29.639     1010.3        329.849559    312.286798    nd            nd            19.100000     2008-06-10T20:17:00.96Z  
2017.3501   73041   43.4985  -70.0320  224.0    8.9    15.039     29.640     1010.3        329.656768    312.128027    nd            nd            19.100000     2008-06-10T20:17:21.01Z  
2017.6827   73061   43.4974  -70.0336  225.0    8.8    14.916     29.674     1010.3        328.985815    311.536515    nd            nd            19.100000     2008-06-10T20:17:40.96Z  
2018.0168   73081   43.4963  -70.0351  224.0    8.7    14.763     29.727     1010.3        327.976262    310.632831    nd            nd            19.100000     2008-06-10T20:18:01.01Z  
2018.3494   73101   43.4951  -70.0366  222.0    8.8    14.501     29.819     1010.3        326.646470    309.459165    nd            nd            19.100000     2008-06-10T20:18:20.96Z  
2018.6835   73121   43.4940  -70.0380  222.0    8.8    14.178     29.925     1010.3        325.037309    308.039810    nd            nd            19.100000     2008-06-10T20:18:41.01Z  
2019.0162   73141   43.4928  -70.0395  223.0    8.7    13.932     29.953     1010.4        323.072408    306.261042    nd            nd            19.100000     2008-06-10T20:19:00.97Z  
2019.3502   73161   43.4917  -70.0410  222.0    8.7    13.858     29.919     1010.4        320.801496    304.136371    nd            nd            19.100000     2008-06-10T20:19:21.01Z  
2019.6829   73181   43.4905  -70.0425  223.0    8.7    13.996     29.836     1010.4        319.009315    302.391878    nd            nd            19.100000     2008-06-10T20:19:40.97Z  
2020.0170   73201   43.4894  -70.0439  223.0    8.7    14.272     29.859     1010.4        318.154161    301.501918    nd            nd            19.100000     2008-06-10T20:20:01.02Z  
2020.3496   73221   43.4883  -70.0454  222.0    8.6    14.358     30.167     1010.4        319.068039    302.338969    nd            nd            19.100000     2008-06-10T20:20:20.98Z  
2020.6837   73241   43.4871  -70.0468  221.0    8.7    14.549     30.307     1010.4        321.296395    304.390027    nd            nd            19.100000     2008-06-10T20:20:41.02Z  
2021.0163   73261   43.4859  -70.0483  222.0    8.7    14.654     30.378     1010.4        324.759007    307.640549    nd            nd            19.100000     2008-06-10T20:21:00.98Z  
2021.3504   73281   43.4848  -70.0497  219.0    8.7    14.621     30.477     1010.4        328.693714    311.374284    nd            nd            19.100000     2008-06-10T20:21:21.02Z  
2021.6830   73301   43.4836  -70.0511  220.0    8.8    14.550     30.541     1010.4        331.915562    314.452996    nd            nd            19.100000     2008-06-10T20:21:40.98Z  
2022.0171   73321   43.4824  -70.0525  221.0    8.8    14.505     30.631     1010.4        334.533024    316.949943    nd            nd            19.100000     2008-06-10T20:22:01.03Z  
2022.3498   73341   43.4812  -70.0540  221.0    8.8    14.479     30.663     1010.4        336.886664    319.190609    nd            nd            19.100000     2008-06-10T20:22:20.99Z  
2022.6838   73361   43.4800  -70.0554  222.0    8.7    14.547     30.634     1010.4        339.194815    321.358894    nd            nd            19.100000     2008-06-10T20:22:41.03Z  
2023.0165   73381   43.4789  -70.0569  223.0    8.7    14.615     30.633     1010.4        340.602086    322.673554    nd            nd            19.100000     2008-06-10T20:23:00.99Z  
2023.3506   73401   43.4777  -70.0583  221.0    8.7    14.538     30.745     1010.4        341.205545    323.269700    nd            nd            19.100000     2008-06-10T20:23:21.04Z  
2023.6832   73421   43.4766  -70.0598  224.0    8.7    14.485     30.797     1010.4        341.937563    323.985297    nd            nd            19.100000     2008-06-10T20:23:40.99Z  
2024.0173   73441   43.4754  -70.0613  221.0    8.7    14.489     30.837     1010.4        342.507778    324.526716    nd            nd            19.100000     2008-06-10T20:24:01.04Z  
2024.3499   73461   43.4743  -70.0627  223.0    8.7    14.552     30.841     1010.4        343.378219    325.329217    nd            nd            19.100000     2008-06-10T20:24:20.99Z  
2024.6840   73481   43.4731  -70.0642  222.0    8.7    14.662     30.862     1010.4        344.225618    326.093332    nd            nd            19.100000     2008-06-10T20:24:41.04Z  
2025.0166   73501   43.4720  -70.0656  221.0    8.7    14.733     30.923     1010.4        345.442748    327.222018    nd            nd            19.100000     2008-06-10T20:25:01.00Z  
2025.3507   73521   43.4708  -70.0670  220.0    8.8    14.796     30.987     1010.4        347.260762    328.920316    nd            nd            19.100000     2008-06-10T20:25:21.04Z  
2025.6834   73541   43.4696  -70.0685  222.0    8.7    14.918     31.018     1010.4        349.326553    330.835295    nd            nd            19.100000     2008-06-10T20:25:41.00Z  
2026.0160   73561   43.4685  -70.0700  224.0    8.7    14.931     31.071     1010.4        351.973284    333.336707    nd            nd            19.100000     2008-06-10T20:26:00.96Z  
2026.3501   73581   43.4674  -70.0715  225.0    8.7    14.855     31.120     1010.4        354.447369    335.707486    nd            nd            19.100000     2008-06-10T20:26:21.01Z  
2026.6827   73601   43.4662  -70.0730  223.0    8.7    14.845     31.143     1010.4        356.143084    337.317180    nd            nd            19.100000     2008-06-10T20:26:40.96Z  
2027.0168   73621   43.4651  -70.0745  224.0    8.7    14.822     31.166     1010.4        357.302960    338.425673    nd            nd            19.100000     2008-06-10T20:27:01.01Z  
2027.3494   73641   43.4640  -70.0760  225.0    8.8    14.810     31.193     1010.4        358.260359    339.333557    nd            nd            19.100000     2008-06-10T20:27:20.96Z  
2027.6835   73661   43.4629  -70.0775  223.0    8.8    14.843     31.215     1010.4        359.081741    340.099697    nd            nd            19.100000     2008-06-10T20:27:41.01Z  
2028.0162   73681   43.4617  -70.0791  226.0    8.7    15.009     31.258     1010.4        359.941114    340.857715    nd            nd            19.100000     2008-06-10T20:28:00.97Z  
2028.3502   73701   43.4606  -70.0806  223.0    8.7    15.187     31.310     1010.4        360.939300    341.737119    nd            nd            19.100000     2008-06-10T20:28:21.01Z  
2028.6829   73721   43.4595  -70.0820  221.0    8.7    15.306     31.309     1010.4        362.703956    343.361646    nd            nd            19.100000     2008-06-10T20:28:40.97Z  
2029.0170   73741   43.4583  -70.0835  222.0    8.6    15.356     31.257     1010.4        364.570606    345.115234    nd            nd            19.100000     2008-06-10T20:29:01.02Z  
2029.3496   73761   43.4572  -70.0850  224.0    8.7    15.322     31.247     1010.4        366.331107    346.794374    nd            nd            19.100000     2008-06-10T20:29:20.98Z  
2029.6837   73781   43.4561  -70.0865  223.0    8.6    15.314     31.264     1010.4        367.469818    347.878449    nd            nd            19.100000     2008-06-10T20:29:41.02Z  
2030.0163   73801   43.4549  -70.0879  221.0    8.7    15.373     31.277     1010.4        368.212186    348.552849    nd            nd            19.100000     2008-06-10T20:30:00.98Z  
2030.3504   73821   43.4537  -70.0893  221.0    8.6    15.362     31.273     1010.4        369.189800    349.484326    nd            nd            19.100000     2008-06-10T20:30:21.02Z  
2030.6830   73841   43.4526  -70.0907  221.0    8.7    15.316     31.269     1010.4        370.310689    350.560397    nd            nd            19.100000     2008-06-10T20:30:40.98Z  
2031.0171   73861   43.4514  -70.0921  220.0    8.7    15.283     31.261     1010.4        371.255900    351.466201    nd            nd            19.100000     2008-06-10T20:31:01.03Z  
2031.3498   73881   43.4502  -70.0936  223.0    8.7    15.287     31.254     1010.4        371.925060    352.099009    nd            nd            19.100000     2008-06-10T20:31:20.99Z  
2031.6838   73901   43.4491  -70.0950  222.0    8.7    15.307     31.260     1010.4        372.420778    352.559255    nd            nd            19.100000     2008-06-10T20:31:41.03Z  
2032.0165   73921   43.4479  -70.0965  221.0    8.7    15.339     31.269     1010.4        372.746376    352.854379    nd            nd            19.100000     2008-06-10T20:32:00.99Z  
2032.3506   73941   43.4467  -70.0979  222.0    8.8    15.385     31.250     1010.4        373.193757    353.258415    nd            nd            19.100000     2008-06-10T20:32:21.04Z  
2032.6832   73961   43.4456  -70.0993  220.0    8.7    15.371     31.250     1010.4        373.764480    353.802737    nd            nd            19.100000     2008-06-10T20:32:40.99Z  
2033.0173   73981   43.4444  -70.1008  221.0    8.7    15.342     31.246     1010.4        374.177445    354.204017    nd            nd            19.100000     2008-06-10T20:33:01.04Z  
2033.3499   74001   43.4432  -70.1022  220.0    8.7    15.308     31.237     1010.4        374.191352    354.232241    nd            nd            19.100000     2008-06-10T20:33:20.99Z  
2033.6840   74021   43.4420  -70.1036  222.0    8.8    15.224     31.233     1010.4        374.233511    354.306721    nd            nd            19.100000     2008-06-10T20:33:41.04Z  
2034.0166   74041   43.4409  -70.1051  222.0    8.8    15.225     31.236     1010.4        373.651257    353.753612    nd            nd            19.100000     2008-06-10T20:34:01.00Z  
2034.3493   74061   43.4397  -70.1066  222.0    8.7    15.231     31.234     1010.4        373.265868    353.387686    nd            nd            19.100000     2008-06-10T20:34:20.96Z  
2034.6834   74081   43.4386  -70.1080  223.0    8.7    15.212     31.210     1010.4        373.014859    353.159669    nd            nd            19.100000     2008-06-10T20:34:41.00Z  
2035.0160   74101   43.4374  -70.1095  221.0    8.7    15.162     31.190     1010.4        372.800762    352.972110    nd            nd            19.100000     2008-06-10T20:35:00.96Z  
2035.3501   74121   43.4363  -70.1110  223.0    8.6    15.228     31.188     1010.4        372.335431    352.510119    nd            nd            19.100000     2008-06-10T20:35:21.01Z  
2035.6827   74141   43.4351  -70.1124  222.0    8.6    15.312     31.213     1010.4        372.094460    352.251103    nd            nd            19.100000     2008-06-10T20:35:40.96Z  
2036.0168   74161   43.4340  -70.1138  222.0    8.6    15.374     31.220     1010.4        372.653132    352.764003    nd            nd            19.100000     2008-06-10T20:36:01.01Z  
2036.3494   74181   43.4329  -70.1153  223.0    8.5    15.387     31.222     1010.5        373.423107    353.490072    nd            nd            19.100000     2008-06-10T20:36:20.96Z  
2036.6835   74201   43.4318  -70.1168  225.0    8.5    15.532     31.214     1010.5        374.075877    354.055937    nd            nd            19.100000     2008-06-10T20:36:41.01Z  
2037.0162   74221   43.4307  -70.1182  222.0    8.5    15.701     31.206     1010.5        374.742383    354.621855    nd            nd            19.100000     2008-06-10T20:37:00.97Z  
2037.3502   74241   43.4295  -70.1196  221.0    8.5    15.764     31.228     1010.5        376.596039    356.353860    nd            nd            19.100000     2008-06-10T20:37:21.01Z  
2037.6829   74261   43.4284  -70.1210  220.0    8.5    15.759     31.231     1010.5        378.638941    358.286978    nd            nd            19.100000     2008-06-10T20:37:40.97Z  
2038.0170   74281   43.4272  -70.1224  221.0    8.6    15.730     31.248     1010.5        379.704353    359.305870    nd            nd            19.100000     2008-06-10T20:38:01.02Z  
2038.3496   74301   43.4260  -70.1238  219.0    8.5    15.702     31.257     1010.5        380.106885    359.699900    nd            nd            19.100000     2008-06-10T20:38:20.98Z  
2038.6837   74321   43.4249  -70.1252  223.0    8.4    15.633     31.255     1010.5        380.471816    360.080710    nd            nd            19.100000     2008-06-10T20:38:41.02Z  
2039.0163   74341   43.4238  -70.1266  222.0    8.5    15.525     31.266     1010.5        380.237787    359.901613    nd            nd            19.100000     2008-06-10T20:39:00.98Z  
2039.3504   74361   43.4226  -70.1280  220.0    8.5    15.420     31.290     1010.5        379.554763    359.298410    nd            nd            19.100000     2008-06-10T20:39:21.02Z  
2039.6830   74381   43.4215  -70.1293  221.0    8.5    15.343     31.309     1010.5        378.786870    358.605711    nd            nd            19.100000     2008-06-10T20:39:40.98Z  
2040.0171   74401   43.4203  -70.1308  222.0    8.5    15.406     31.333     1010.5        377.734301    357.579793    nd            nd            19.100000     2008-06-10T20:40:01.03Z  
2040.3498   74421   43.4192  -70.1322  223.0    8.5    15.333     31.342     1010.5        377.157878    357.064981    nd            nd            19.100000     2008-06-10T20:40:20.99Z  
2040.6838   74441   43.4181  -70.1336  222.0    8.5    15.245     31.339     1010.5        376.755831    356.709521    nd            nd            19.100000     2008-06-10T20:40:41.03Z  
2041.0165   74461   43.4170  -70.1351  225.0    8.4    15.252     31.333     1010.5        375.837988    355.837585    nd            nd            19.100000     2008-06-10T20:41:00.99Z  
2041.3506   74481   43.4159  -70.1365  222.0    8.4    15.334     31.340     1010.5        375.055961    355.060047    nd            nd            19.100000     2008-06-10T20:41:21.04Z  
2041.6832   74501   43.4148  -70.1379  223.0    8.5    15.393     31.356     1010.5        375.086884    355.063697    nd            nd            19.100000     2008-06-10T20:41:40.99Z  
2042.0173   74521   43.4137  -70.1394  223.0    8.4    15.468     31.387     1010.5        375.698504    355.611131    nd            nd            19.100000     2008-06-10T20:42:01.04Z  
2042.3499   74541   43.4126  -70.1408  222.0    8.4    15.559     31.405     1010.4        376.874970    356.683316    nd            nd            19.100000     2008-06-10T20:42:20.99Z  
2042.6840   74561   43.4114  -70.1422  224.0    8.6    15.640     31.407     1010.4        378.607704    358.293514    nd            nd            19.100000     2008-06-10T20:42:41.04Z  
2043.0166   74581   43.4103  -70.1437  224.0    8.5    15.661     31.411     1010.4        380.441086    360.018741    nd            nd            19.100000     2008-06-10T20:43:01.00Z  
2043.3493   74601   43.4092  -70.1451  224.0    8.5    15.624     31.418     1010.4        382.023058    361.531618    nd            nd            19.100000     2008-06-10T20:43:20.96Z  
2043.6834   74621   43.4081  -70.1466  220.0    8.5    15.584     31.423     1010.4        382.923775    362.400320    nd            nd            19.100000     2008-06-10T20:43:41.00Z  
2044.0160   74641   43.4070  -70.1480  224.0    8.5    15.609     31.420     1010.4        383.521119    362.954773    nd            nd            19.100000     2008-06-10T20:44:00.96Z  
2044.3501   74661   43.4059  -70.1494  222.0    8.6    15.674     31.438     1010.4        384.458536    363.812362    nd            nd            19.100000     2008-06-10T20:44:21.01Z  
2044.6827   74681   43.4047  -70.1509  224.0    8.8    15.755     31.437     1010.4        385.861022    365.103286    nd            nd            19.100000     2008-06-10T20:44:40.96Z  
2045.0168   74701   43.4036  -70.1524  222.0    8.9    15.710     31.423     1010.4        387.244972    366.427678    nd            nd            19.100000     2008-06-10T20:45:01.01Z  
2045.3494   74721   43.4024  -70.1539  221.0    9.0    15.641     31.422     1010.4        387.534089    366.726821    nd            nd            19.100000     2008-06-10T20:45:20.96Z  
2045.6835   74741   43.4012  -70.1554  223.0    8.9    15.623     31.425     1010.4        386.493967    365.742654    nd            nd            19.100000     2008-06-10T20:45:41.01Z  
2046.0162   74761   43.4000  -70.1569  223.0    8.9    15.455     31.424     1010.4        385.604078    364.970825    nd            nd            19.100000     2008-06-10T20:46:00.97Z  
2046.3502   74781   43.3989  -70.1584  224.0    8.9    15.265     31.440     1010.4        384.100935    363.621427    nd            nd            19.100000     2008-06-10T20:46:21.01Z  
2046.6829   74801   43.3977  -70.1600  225.0    9.0    15.205     31.457     1010.4        381.396320    361.083037    nd            nd            19.100000     2008-06-10T20:46:40.97Z  
2047.0170   74821   43.3966  -70.1616  223.0    8.9    15.264     31.470     1010.4        378.884467    358.680576    nd            nd            19.100000     2008-06-10T20:47:01.02Z  
2047.3496   74841   43.3954  -70.1631  223.0    8.9    15.324     31.472     1010.4        377.808913    357.638883    nd            nd            19.100000     2008-06-10T20:47:20.98Z  
2047.6837   74861   43.3942  -70.1646  221.0    8.9    15.383     31.478     1010.4        377.735136    357.537884    nd            nd            19.100000     2008-06-10T20:47:41.02Z  
2048.0163   74881   43.3930  -70.1660  221.0    8.9    15.342     31.468     1010.3        378.340544    358.125323    nd            nd            19.100000     2008-06-10T20:48:00.98Z  
2048.3504   74901   43.3918  -70.1675  221.0    9.0    15.271     31.476     1010.3        378.497445    358.296355    nd            nd            19.100000     2008-06-10T20:48:21.02Z  
2048.6830   74921   43.3906  -70.1690  222.0    9.0    15.380     31.486     1010.3        377.746114    357.541996    nd            nd            19.100000     2008-06-10T20:48:40.98Z  
2049.0171   74941   43.3894  -70.1705  222.0    9.0    15.548     31.486     1010.3        377.721320    357.453770    nd            nd            19.100000     2008-06-10T20:49:01.03Z  
2049.3498   74961   43.3882  -70.1720  222.0    9.0    15.636     31.489     1010.3        379.198901    358.817940    nd            nd            19.100000     2008-06-10T20:49:20.99Z  
2049.6838   74981   43.3870  -70.1735  223.0    9.0    15.789     31.495     1010.3        380.849349    360.319557    nd            nd            19.100000     2008-06-10T20:49:41.03Z  
2050.0165   75001   43.3858  -70.1750  223.0    9.0    15.972     31.475     1010.4        382.688809    361.986646    nd            nd            19.100000     2008-06-10T20:50:00.99Z  
2050.3506   75021   43.3847  -70.1766  221.0    9.0    16.078     31.443     1010.3        385.021419    364.146744    nd            nd            19.100000     2008-06-10T20:50:21.04Z  
2050.6832   75041   43.3834  -70.1780  223.0    9.0    16.077     31.459     1010.4        387.336806    366.340397    nd            nd            19.100000     2008-06-10T20:50:40.99Z  
2051.0173   75061   43.3823  -70.1796  223.0    9.0    16.004     31.476     1010.4        388.967683    367.914897    nd            nd            19.100000     2008-06-10T20:51:01.04Z  
2051.3499   75081   43.3811  -70.1811  220.0    9.0    15.957     31.481     1010.4        389.618928    368.557213    nd            nd            19.100000     2008-06-10T20:51:20.99Z  
2051.6840   75101   43.3798  -70.1826  222.0    9.0    15.942     31.492     1010.4        389.262514    368.226504    nd            nd            19.100000     2008-06-10T20:51:41.04Z  
2052.0166   75121   43.3787  -70.1841  224.0    9.1    15.944     31.495     1010.4        389.880016    368.815969    nd            nd            19.100000     2008-06-10T20:52:01.00Z  
2052.3493   75141   43.3774  -70.1856  223.0    9.2    15.944     31.496     1010.4        390.292958    369.207572    nd            nd            19.100000     2008-06-10T20:52:20.96Z  
2052.6834   75161   43.3763  -70.1872  223.0    9.2    15.923     31.494     1010.4        390.261409    369.192536    nd            nd            19.100000     2008-06-10T20:52:41.00Z  
2053.0160   75181   43.3750  -70.1887  223.0    9.2    15.875     31.501     1010.4        390.315141    369.269458    nd            nd            19.100000     2008-06-10T20:53:00.96Z  
2053.3501   75201   43.3739  -70.1903  224.0    9.1    15.849     31.501     1010.4        390.188365    369.167466    nd            nd            19.100000     2008-06-10T20:53:21.01Z  
2053.6827   75221   43.3727  -70.1918  221.0    9.1    15.855     31.511     1010.5        389.908221    368.903760    nd            nd            19.100000     2008-06-10T20:53:40.96Z  
2054.0168   75241   43.3714  -70.1933  220.0    9.1    15.862     31.514     1010.5        389.975877    368.971225    nd            nd            19.100000     2008-06-10T20:54:01.01Z  
2054.3494   75261   43.3702  -70.1948  221.0    9.2    15.810     31.517     1010.5        389.987253    369.013337    nd            nd            19.100000     2008-06-10T20:54:20.96Z  
2054.6835   75281   43.3689  -70.1963  222.0    9.2    15.781     31.530     1010.5        389.720866    368.775244    nd            nd            19.100000     2008-06-10T20:54:41.01Z  
2055.0162   75301   43.3677  -70.1978  222.0    9.1    15.780     31.544     1010.5        389.299710    368.384886    nd            nd            19.100000     2008-06-10T20:55:00.97Z  
2055.3502   75321   43.3665  -70.1993  221.0    9.1    15.854     31.573     1010.5        389.039581    368.106555    nd            nd            19.100000     2008-06-10T20:55:21.01Z  
2055.6829   75341   43.3653  -70.2008  222.0    9.1    15.927     31.576     1010.5        389.189540    368.219191    nd            nd            19.100000     2008-06-10T20:55:40.97Z  
2056.0170   75361   43.3640  -70.2024  221.0    9.1    15.983     31.571     1010.6        389.629792    368.622846    nd            nd            19.100000     2008-06-10T20:56:01.02Z  
2056.3496   75381   43.3628  -70.2039  222.0    9.1    16.007     31.574     1010.6        390.154842    369.114840    nd            nd            19.100000     2008-06-10T20:56:20.98Z  
2056.6837   75401   43.3616  -70.2054  222.0    9.1    16.028     31.570     1010.6        390.716781    369.636333    nd            nd            19.100000     2008-06-10T20:56:41.02Z  
2057.0163   75421   43.3604  -70.2069  223.0    9.1    16.041     31.564     1010.6        391.092179    369.985497    nd            nd            19.100000     2008-06-10T20:57:00.98Z  
2057.3504   75441   43.3592  -70.2085  222.0    9.1    16.086     31.558     1010.6        391.331647    370.197732    nd            nd            19.100000     2008-06-10T20:57:21.02Z  
2057.6830   75461   43.3580  -70.2100  221.0    9.1    16.096     31.534     1010.6        392.010987    370.839915    nd            nd            19.100000     2008-06-10T20:57:40.98Z  
2058.0171   75481   43.3568  -70.2115  224.0    9.1    16.139     31.535     1010.6        392.410630    371.194123    nd            nd            19.100000     2008-06-10T20:58:01.03Z  
2058.3498   75501   43.3556  -70.2131  226.0    9.1    16.293     31.490     1010.6        392.499802    371.214479    nd            nd            19.100000     2008-06-10T20:58:20.99Z  
2058.6838   75521   43.3545  -70.2147  224.0    9.1    16.405     31.469     1010.6        393.412094    372.020251    nd            nd            19.100000     2008-06-10T20:58:41.03Z  
2059.0165   75541   43.3533  -70.2163  225.0    9.1    16.427     31.449     1010.6        394.351839    372.898930    nd            nd            19.100000     2008-06-10T20:59:00.99Z  
2059.3506   75561   43.3522  -70.2179  226.0    9.1    16.393     31.409     1010.6        395.061540    373.583633    nd            nd            19.100000     2008-06-10T20:59:21.04Z  
2059.6832   75581   43.3510  -70.2195  224.0    9.1    16.320     31.388     1010.6        395.381450    373.918918    nd            nd            19.100000     2008-06-10T20:59:40.99Z  
2100.0173   75601   43.3498  -70.2212  224.0    9.1    16.216     31.384     1010.6        394.898201    373.507055    nd            nd            20.200000     2008-06-10T21:00:01.04Z  
2100.3499   75621   43.3487  -70.2227  224.0    9.1    16.130     31.398     1010.5        394.179449    372.859297    nd            nd            20.900000     2008-06-10T21:00:20.99Z  
2100.6840   75641   43.3475  -70.2242  223.0    9.1    16.082     31.406     1010.5        392.812390    371.573723    nd            nd            20.900000     2008-06-10T21:00:41.04Z  
2101.0166   75661   43.3462  -70.2258  221.0    9.2    16.092     31.413     1010.5        391.676871    370.488406    nd            nd            20.900000     2008-06-10T21:01:01.00Z  
2101.3507   75681   43.3450  -70.2272  220.0    9.1    16.095     31.404     1010.5        390.826393    369.674084    nd            nd            20.900000     2008-06-10T21:01:21.04Z  
2101.6834   75701   43.3438  -70.2287  222.0    9.0    15.965     31.395     1010.4        390.276575    369.200214    nd            nd            20.900000     2008-06-10T21:01:41.00Z  
2102.0160   75721   43.3426  -70.2303  221.0    9.2    15.867     31.403     1010.4        389.162702    368.175568    nd            nd            20.900000     2008-06-10T21:02:00.96Z  
2102.3501   75741   43.3413  -70.2317  219.0    9.2    15.838     31.400     1010.4        388.023161    367.097225    nd            nd            20.900000     2008-06-10T21:02:21.01Z  
2102.6827   75761   43.3400  -70.2332  220.0    9.1    15.781     31.393     1010.3        387.074066    366.212039    nd            nd            20.900000     2008-06-10T21:02:40.96Z  
2103.0168   75781   43.3387  -70.2346  220.0    9.2    15.657     31.392     1010.3        386.323190    365.539160    nd            nd            20.900000     2008-06-10T21:03:01.01Z  
2103.3494   75801   43.3375  -70.2361  221.0    9.1    15.504     31.412     1010.3        385.127332    364.463608    nd            nd            20.900000     2008-06-10T21:03:20.96Z  
2103.6835   75821   43.3362  -70.2376  219.0    9.2    15.337     31.408     1010.3        383.343581    362.831859    nd            nd            20.900000     2008-06-10T21:03:41.01Z  
2104.0162   75841   43.3350  -70.2391  220.0    9.2    15.197     31.399     1010.3        381.212933    360.871452    nd            nd            20.900000     2008-06-10T21:04:00.97Z  
2104.3502   75861   43.3337  -70.2405  222.0    9.2    15.101     31.401     1010.2        378.929567    358.738279    nd            nd            20.900000     2008-06-10T21:04:21.01Z  
2104.6829   75881   43.3325  -70.2421  223.0    9.2    15.070     31.414     1010.2        376.837240    356.763099    nd            nd            20.900000     2008-06-10T21:04:40.97Z  
2105.0170   75901   43.3313  -70.2437  223.0    9.2    15.107     31.421     1010.2        375.110078    355.111653    nd            nd            20.900000     2008-06-10T21:05:01.02Z  
2105.3496   75921   43.3301  -70.2452  223.0    9.2    15.122     31.418     1010.2        373.875713    353.930306    nd            nd            20.900000     2008-06-10T21:05:20.98Z  
2105.6837   75941   43.3289  -70.2468  224.0    9.2    15.099     31.420     1010.2        373.097368    353.198956    nd            nd            20.900000     2008-06-10T21:05:41.02Z  
2106.0163   75961   43.3277  -70.2484  224.0    9.2    15.080     31.420     1010.2        372.359313    352.499214    nd            nd            20.900000     2008-06-10T21:06:00.98Z  
2106.3504   75981   43.3265  -70.2500  224.0    9.2    15.103     31.423     1010.1        371.906613    352.051729    nd            nd            20.900000     2008-06-10T21:06:21.02Z  
2106.6830   76001   43.3254  -70.2516  225.0    9.1    15.182     31.425     1010.1        371.586057    351.720726    nd            nd            20.900000     2008-06-10T21:06:40.98Z  
2107.0171   76021   43.3242  -70.2532  225.0    9.1    15.260     31.422     1010.1        371.785742    351.875833    nd            nd            20.900000     2008-06-10T21:07:01.03Z  
2107.3498   76041   43.3230  -70.2548  224.0    9.1    15.189     31.420     1010.1        372.641917    352.708039    nd            nd            20.900000     2008-06-10T21:07:20.99Z  
2107.6838   76061   43.3218  -70.2563  223.0    9.1    15.124     31.427     1010.1        373.250334    353.306200    nd            nd            20.900000     2008-06-10T21:07:41.03Z  
2108.0165   76081   43.3206  -70.2579  223.0    9.2    15.096     31.428     1010.1        372.898242    352.983800    nd            nd            20.900000     2008-06-10T21:08:00.99Z  
2108.3506   76101   43.3194  -70.2594  221.0    9.1    15.246     31.435     1010.1        372.285520    352.349523    nd            nd            20.900000     2008-06-10T21:08:21.04Z  
2108.6832   76121   43.3182  -70.2609  222.0    9.1    15.468     31.432     1010.1        372.510412    352.479689    nd            nd            20.900000     2008-06-10T21:08:40.99Z  
2109.0173   76141   43.3170  -70.2625  221.0    9.1    15.578     31.423     1010.1        374.096967    353.931360    nd            nd            20.900000     2008-06-10T21:09:01.04Z  
2109.3499   76161   43.3157  -70.2639  220.0    9.1    15.633     31.413     1010.1        375.775098    355.493540    nd            nd            20.900000     2008-06-10T21:09:20.99Z  
2109.6840   76181   43.3145  -70.2654  221.0    9.1    15.717     31.415     1010.1        376.958592    356.571855    nd            nd            20.900000     2008-06-10T21:09:41.04Z  
2110.0166   76201   43.3133  -70.2669  222.0    9.0    15.762     31.423     1010.1        378.137336    357.665976    nd            nd            20.900000     2008-06-10T21:10:01.00Z  
2110.3507   76221   43.3121  -70.2684  222.0    9.0    15.853     31.423     1010.1        379.265756    358.697998    nd            nd            20.900000     2008-06-10T21:10:21.04Z  
2110.6834   76241   43.3109  -70.2699  223.0    9.0    16.009     31.423     1010.1        380.393135    359.699147    nd            nd            20.900000     2008-06-10T21:10:41.00Z  
2111.0160   76261   43.3097  -70.2714  222.0    9.0    16.202     31.380     1010.1        382.056928    361.189835    nd            nd            20.900000     2008-06-10T21:11:00.96Z  
2111.3501   76281   43.3085  -70.2729  220.0    9.1    16.280     31.372     1010.0        384.017014    363.004583    nd            nd            20.900000     2008-06-10T21:11:21.01Z  
2111.6827   76301   43.3073  -70.2744  222.0    9.0    16.378     31.346     1010.1        385.584762    364.447492    nd            nd            20.900000     2008-06-10T21:11:40.96Z  
2112.0168   76321   43.3060  -70.2759  220.0    9.0    16.357     31.321     1010.0        386.856097    365.652472    nd            nd            20.900000     2008-06-10T21:12:01.01Z  
2112.3494   76341   43.3048  -70.2773  219.0    9.1    16.266     31.311     1010.0        388.032428    366.800128    nd            nd            20.900000     2008-06-10T21:12:20.96Z  
2112.6835   76361   43.3036  -70.2789  226.0    9.1    16.239     31.308     1010.0        388.638615    367.378489    nd            nd            20.900000     2008-06-10T21:12:41.01Z  
2113.0162   76381   43.3024  -70.2805  225.0    9.1    16.179     31.311     1010.0        389.026108    367.769678    nd            nd            20.900000     2008-06-10T21:13:00.97Z  
2113.3502   76401   43.3013  -70.2821  226.0    9.1    16.146     31.298     1010.0        388.971708    367.733171    nd            nd            20.900000     2008-06-10T21:13:21.01Z  
2113.6829   76421   43.3002  -70.2838  228.0    9.1    16.103     31.273     1010.0        388.665575    367.464671    nd            nd            20.900000     2008-06-10T21:13:40.97Z  
2114.0170   76441   43.2991  -70.2854  226.0    9.1    16.126     31.253     1010.0        388.703189    367.488488    nd            nd            20.900000     2008-06-10T21:14:01.02Z  
2114.3496   76461   43.2980  -70.2871  226.0    9.1    16.408     31.221     1010.0        388.717118    367.375652    nd            nd            20.900000     2008-06-10T21:14:20.98Z  
2114.6837   76481   43.2968  -70.2887  225.0    9.0    16.703     31.159     1010.0        390.200833    368.640999    nd            nd            20.900000     2008-06-10T21:14:41.02Z  
2115.0163   76501   43.2956  -70.2902  222.0    9.0    16.809     31.128     1010.0        393.389532    371.602410    nd            nd            20.900000     2008-06-10T21:15:00.98Z  
2115.3504   76521   43.2944  -70.2917  221.0    9.0    16.782     31.126     1010.0        396.989713    375.012637    nd            nd            20.900000     2008-06-10T21:15:21.02Z  
2115.6830   76541   43.2932  -70.2931  220.0    8.9    16.809     31.126     1009.9        398.827646    376.731748    nd            nd            20.900000     2008-06-10T21:15:40.98Z  
2116.0171   76561   43.2919  -70.2945  219.0    9.0    16.869     31.127     1009.9        399.896219    377.704041    nd            nd            20.900000     2008-06-10T21:16:01.03Z  
2116.3498   76581   43.2907  -70.2960  220.0    9.0    16.781     31.136     1009.9        400.954071    378.738290    nd            nd            20.900000     2008-06-10T21:16:20.99Z  
2116.6838   76601   43.2895  -70.2974  222.0    9.0    16.765     31.125     1009.9        401.402450    379.160143    nd            nd            20.900000     2008-06-10T21:16:41.03Z  
2117.0165   76621   43.2883  -70.2989  222.0    9.0    16.764     31.107     1009.9        401.684115    379.421575    nd            nd            20.900000     2008-06-10T21:17:00.99Z  
2117.3506   76641   43.2871  -70.3004  220.0    9.0    16.708     31.090     1009.9        402.116103    379.851176    nd            nd            20.900000     2008-06-10T21:17:21.04Z  
2117.6832   76661   43.2858  -70.3018  218.0    9.0    16.639     31.097     1009.8        402.585589    380.318602    nd            nd            20.900000     2008-06-10T21:17:40.99Z  
2118.0173   76681   43.2846  -70.3032  219.0    9.0    16.599     31.076     1009.8        402.467140    380.220975    nd            nd            20.900000     2008-06-10T21:18:01.04Z  
2118.3499   76701   43.2833  -70.3046  221.0    8.9    16.665     31.058     1009.8        402.186627    379.913181    nd            nd            20.900000     2008-06-10T21:18:20.99Z  
2118.6840   76721   43.2821  -70.3061  222.0    8.9    16.658     31.045     1009.8        402.512176    380.218861    nd            nd            20.900000     2008-06-10T21:18:41.04Z  
2119.0166   76741   43.2809  -70.3075  220.0    8.9    16.516     31.038     1009.8        402.477879    380.241738    nd            nd            20.900000     2008-06-10T21:19:01.00Z  
2119.3493   76761   43.2797  -70.3089  219.0    8.9    16.514     31.019     1009.7        401.874308    379.662094    nd            nd            20.900000     2008-06-10T21:19:20.96Z  
2119.6834   76781   43.2785  -70.3104  221.0    8.9    16.582     31.003     1009.7        400.850033    378.657169    nd            nd            20.900000     2008-06-10T21:19:41.00Z  
2120.0160   76801   43.2773  -70.3119  223.0    9.0    16.526     31.006     1009.7        400.292537    378.152219    nd            nd            20.900000     2008-06-10T21:20:00.96Z  
2120.3501   76821   43.2761  -70.3134  224.0    8.9    16.396     31.015     1009.7        399.572871    377.519253    nd            nd            20.900000     2008-06-10T21:20:21.01Z  
2120.6827   76841   43.2749  -70.3149  223.0    9.0    16.381     31.028     1009.7        398.397668    376.410550    nd            nd            20.900000     2008-06-10T21:20:40.96Z  
2121.0168   76861   43.2738  -70.3165  224.0    8.9    16.412     31.040     1009.7        397.243597    375.302054    nd            nd            20.900000     2008-06-10T21:21:01.01Z  
2121.3494   76881   43.2726  -70.3180  223.0    8.9    16.450     31.043     1009.6        396.435198    374.509418    nd            nd            20.900000     2008-06-10T21:21:20.96Z  
2121.6835   76901   43.2715  -70.3195  223.0    8.9    16.457     31.055     1009.6        395.932921    374.031044    nd            nd            20.900000     2008-06-10T21:21:41.01Z  
2122.0162   76921   43.2703  -70.3210  221.0    8.9    16.361     31.078     1009.6        395.785408    373.928245    nd            nd            20.900000     2008-06-10T21:22:00.97Z  
2122.3502   76941   43.2691  -70.3225  222.0    8.9    16.206     31.103     1009.6        395.496371    373.715287    nd            nd            20.900000     2008-06-10T21:22:21.01Z  
2122.6829   76961   43.2679  -70.3240  223.0    9.0    16.067     31.144     1009.6        394.735859    373.052808    nd            nd            20.900000     2008-06-10T21:22:40.97Z  
2123.0170   76981   43.2667  -70.3255  223.0    8.9    15.889     31.166     1009.6        393.826196    372.265914    nd            nd            20.900000     2008-06-10T21:23:01.02Z  
2123.3496   77001   43.2655  -70.3270  224.0    8.9    15.746     31.144     1009.6        392.207052    370.791471    nd            nd            20.900000     2008-06-10T21:23:20.98Z  
2123.6837   77021   43.2644  -70.3285  223.0    8.9    15.833     31.144     1009.5        390.230138    368.881196    nd            nd            20.900000     2008-06-10T21:23:41.02Z  
2124.0163   77041   43.2632  -70.3300  224.0    8.9    15.921     31.150     1009.5        389.133429    367.805318    nd            nd            20.900000     2008-06-10T21:24:00.98Z  
2124.3504   77061   43.2621  -70.3316  224.0    8.9    16.076     31.137     1009.5        388.758571    367.381504    nd            nd            20.900000     2008-06-10T21:24:21.02Z  
2124.6830   77081   43.2609  -70.3331  221.0    8.9    16.118     31.134     1009.5        389.447667    368.015441    nd            nd            20.900000     2008-06-10T21:24:40.98Z  
2125.0171   77101   43.2597  -70.3346  223.0    8.8    16.040     31.166     1009.5        390.204979    368.759085    nd            nd            20.900000     2008-06-10T21:25:01.03Z  
2125.3498   77121   43.2586  -70.3361  226.0    8.8    15.923     31.201     1009.5        390.800907    369.373745    nd            nd            20.900000     2008-06-10T21:25:20.99Z  
2125.6838   77141   43.2575  -70.3376  221.0    8.9    15.921     31.222     1009.5        390.530201    369.118420    nd            nd            20.900000     2008-06-10T21:25:41.03Z  
2126.0165   77161   43.2563  -70.3391  222.0    8.9    16.000     31.254     1009.5        390.521496    369.070050    nd            nd            20.900000     2008-06-10T21:26:00.99Z  
2126.3506   77181   43.2551  -70.3406  224.0    8.9    15.914     31.327     1009.5        391.305689    369.840360    nd            nd            20.900000     2008-06-10T21:26:21.04Z  
2126.6832   77201   43.2539  -70.3421  220.0    9.0    15.784     31.389     1009.5        392.416446    370.939331    nd            nd            20.900000     2008-06-10T21:26:40.99Z  
2127.0173   77221   43.2527  -70.3435  221.0    8.8    15.771     31.392     1009.5        392.817700    371.322566    nd            nd            20.900000     2008-06-10T21:27:01.04Z  
2127.3499   77241   43.2515  -70.3450  222.0    8.9    15.858     31.388     1009.4        392.905838    371.365670    nd            nd            20.900000     2008-06-10T21:27:20.99Z  
2127.6840   77261   43.2503  -70.3464  220.0    8.9    15.882     31.406     1009.4        393.214202    371.645047    nd            nd            20.900000     2008-06-10T21:27:41.04Z  
2128.0166   77281   43.2491  -70.3479  220.0    8.9    15.988     31.385     1009.4        393.666496    372.024922    nd            nd            20.900000     2008-06-10T21:28:01.00Z  
2128.3493   77301   43.2479  -70.3493  225.0    8.9    16.002     31.417     1009.4        394.466662    372.772577    nd            nd            20.900000     2008-06-10T21:28:20.96Z  
2128.6834   77321   43.2467  -70.3508  220.0    8.9    15.843     31.501     1009.4        395.283837    373.611763    nd            nd            20.900000     2008-06-10T21:28:41.00Z  
2129.0160   77341   43.2455  -70.3523  222.0    9.0    15.794     31.484     1009.4        395.362920    373.710174    nd            nd            20.900000     2008-06-10T21:29:00.96Z  
2129.3501   77361   43.2443  -70.3537  219.0    9.0    15.924     31.454     1009.4        394.939448    373.253344    nd            nd            20.900000     2008-06-10T21:29:21.01Z  
2129.6827   77381   43.2431  -70.3552  220.0    8.9    15.886     31.481     1009.4        395.131849    373.448378    nd            nd            20.900000     2008-06-10T21:29:40.96Z  
2130.0168   77401   43.2419  -70.3566  222.0    8.9    15.801     31.501     1009.4        395.562581    373.891173    nd            nd            20.900000     2008-06-10T21:30:01.01Z  
2130.3494   77421   43.2407  -70.3581  222.0    8.9    15.836     31.513     1009.4        395.204048    373.534459    nd            nd            20.900000     2008-06-10T21:30:20.96Z  
2130.6835   77441   43.2395  -70.3596  223.0    8.9    15.741     31.524     1009.4        395.244688    373.611243    nd            nd            20.900000     2008-06-10T21:30:41.01Z  
2131.0162   77461   43.2383  -70.3611  222.0    8.9    15.578     31.530     1009.4        394.714017    373.176244    nd            nd            20.900000     2008-06-10T21:31:00.97Z  
2131.3502   77481   43.2372  -70.3626  224.0    9.0    15.628     31.527     1009.4        393.543712    372.045666    nd            nd            20.900000     2008-06-10T21:31:21.01Z  
2131.6829   77501   43.2360  -70.3642  226.0    8.9    15.788     31.508     1009.4        392.237137    370.741162    nd            nd            20.900000     2008-06-10T21:31:40.97Z  
2132.0170   77521   43.2349  -70.3658  222.0    8.9    15.785     31.508     1009.4        392.420564    370.909882    nd            nd            20.900000     2008-06-10T21:32:01.02Z  
2132.3496   77541   43.2337  -70.3673  223.0    8.9    15.618     31.507     1009.4        392.840774    371.374084    nd            nd            20.900000     2008-06-10T21:32:20.98Z  
2132.6837   77561   43.2326  -70.3688  227.0    8.8    15.534     31.506     1009.4        392.212578    370.812595    nd            nd            20.900000     2008-06-10T21:32:41.02Z  
2133.0163   77581   43.2315  -70.3704  224.0    8.8    15.536     31.490     1009.4        391.034630    369.697156    nd            nd            20.900000     2008-06-10T21:33:00.98Z  
2133.3504   77601   43.2303  -70.3719  221.0    8.9    15.549     31.497     1009.3        390.091456    368.791477    nd            nd            20.900000     2008-06-10T21:33:21.02Z  
2133.6830   77621   43.2291  -70.3734  222.0    9.0    15.570     31.489     1009.3        389.497162    368.215578    nd            nd            20.900000     2008-06-10T21:33:40.98Z  
2134.0171   77641   43.2279  -70.3748  223.0    8.9    15.529     31.481     1009.3        389.380732    368.110550    nd            nd            20.900000     2008-06-10T21:34:01.03Z  
2134.3498   77661   43.2267  -70.3763  221.0    8.9    15.570     31.469     1009.3        389.092617    367.817197    nd            nd            20.900000     2008-06-10T21:34:20.99Z  
2134.6838   77681   43.2256  -70.3778  225.0    8.8    15.716     31.461     1009.3        388.622458    367.310711    nd            nd            20.900000     2008-06-10T21:34:41.03Z  
2135.0165   77701   43.2244  -70.3794  225.0    8.8    15.772     31.453     1009.2        389.192557    367.819109    nd            nd            20.900000     2008-06-10T21:35:00.99Z  
2135.3506   77721   43.2233  -70.3809  223.0    8.9    15.719     31.447     1009.2        390.528974    369.100140    nd            nd            20.900000     2008-06-10T21:35:21.04Z  
2135.6832   77741   43.2221  -70.3824  221.0    8.9    15.619     31.435     1009.2        391.303231    369.871993    nd            nd            20.900000     2008-06-10T21:35:40.99Z  
2136.0173   77761   43.2209  -70.3838  222.0    8.9    15.472     31.414     1009.2        391.269619    369.899198    nd            nd            20.900000     2008-06-10T21:36:01.04Z  
2136.3499   77781   43.2197  -70.3853  219.0    9.0    15.318     31.389     1009.2        390.061929    368.811620    nd            nd            20.900000     2008-06-10T21:36:20.99Z  
2136.6840   77801   43.2185  -70.3867  222.0    9.0    15.266     31.365     1009.2        387.780687    366.669150    nd            nd            20.900000     2008-06-10T21:36:41.04Z  
2137.0166   77821   43.2173  -70.3883  223.0    8.9    15.345     31.331     1009.2        385.440014    364.424728    nd            nd            20.900000     2008-06-10T21:37:01.00Z  
2137.3493   77841   43.2161  -70.3897  219.0    8.9    15.418     31.337     1009.2        383.526397    362.585870    nd            nd            20.900000     2008-06-10T21:37:20.96Z  
2137.6834   77861   43.2148  -70.3911  220.0    8.9    15.392     31.380     1009.2        382.693546    361.806895    nd            nd            20.900000     2008-06-10T21:37:41.00Z  
2138.0160   77881   43.2137  -70.3926  224.0    8.9    15.311     31.409     1009.2        382.487472    361.645792    nd            nd            20.900000     2008-06-10T21:38:00.96Z  
2138.3501   77901   43.2125  -70.3941  223.0    8.9    15.192     31.424     1009.2        382.778700    361.968054    nd            nd            20.900000     2008-06-10T21:38:21.01Z  
2138.6827   77921   43.2113  -70.3956  220.0    8.9    15.047     31.411     1009.2        382.908127    362.143906    nd            nd            20.900000     2008-06-10T21:38:40.96Z  
2139.0168   77941   43.2101  -70.3970  221.0    8.9    14.957     31.410     1009.2        382.280047    361.577206    nd            nd            20.900000     2008-06-10T21:39:01.01Z  
2139.3494   77961   43.2089  -70.3985  223.0    8.9    15.060     31.439     1009.1        381.226968    360.538436    nd            nd            20.900000     2008-06-10T21:39:20.96Z  
2139.6835   77981   43.2077  -70.4000  222.0    8.9    15.271     31.436     1009.1        381.070348    360.309236    nd            nd            20.900000     2008-06-10T21:39:41.01Z  
2140.0162   78001   43.2065  -70.4015  222.0    8.9    15.232     31.408     1009.1        382.292660    361.479130    nd            nd            20.900000     2008-06-10T21:40:00.97Z  
2140.3502   78021   43.2053  -70.4030  222.0    8.9    14.939     31.394     1009.1        383.320487    362.561414    nd            nd            20.900000     2008-06-10T21:40:21.01Z  
2140.6829   78041   43.2042  -70.4045  222.0    8.9    14.939     31.449     1009.1        382.279149    361.575896    nd            nd            20.900000     2008-06-10T21:40:40.97Z  
2141.0170   78061   43.2030  -70.4060  223.0    8.9    15.011     31.450     1009.1        380.797225    360.144576    nd            nd            20.900000     2008-06-10T21:41:01.02Z  
2141.3496   78081   43.2018  -70.4075  224.0    8.9    15.010     31.443     1009.1        380.587919    359.937179    nd            nd            20.900000     2008-06-10T21:41:20.98Z  
2141.6837   78101   43.2007  -70.4090  225.0    8.8    14.871     31.437     1009.1        380.661457    360.062197    nd            nd            20.900000     2008-06-10T21:41:41.02Z  
2142.0163   78121   43.1996  -70.4106  225.0    9.0    14.690     31.435     1009.1        379.926809    359.434051    nd            nd            20.900000     2008-06-10T21:42:00.98Z  
2142.3504   78141   43.1984  -70.4121  223.0    8.9    14.583     31.438     1009.1        378.153312    357.791090    nd            nd            20.900000     2008-06-10T21:42:21.02Z  
2142.6830   78161   43.1972  -70.4136  221.0    8.9    14.455     31.445     1009.1        376.085192    355.878068    nd            nd            20.900000     2008-06-10T21:42:40.98Z  
2143.0171   78181   43.1960  -70.4151  224.0    8.9    14.418     31.453     1009.1        373.966698    353.883214    nd            nd            20.900000     2008-06-10T21:43:01.03Z  
2143.3498   78201   43.1949  -70.4167  224.0    8.9    14.502     31.467     1009.1        372.143055    352.123454    nd            nd            20.900000     2008-06-10T21:43:20.99Z  
2143.6838   78221   43.1937  -70.4182  221.0    9.0    14.643     31.479     1009.0        371.355016    351.320187    nd            nd            20.900000     2008-06-10T21:43:41.03Z  
2144.0165   78241   43.1925  -70.4196  222.0    8.9    14.787     31.489     1009.0        371.649319    351.539177    nd            nd            20.900000     2008-06-10T21:44:00.99Z  
2144.3506   78261   43.1913  -70.4211  222.0    8.9    14.826     31.479     1009.0        373.144949    352.942234    nd            nd            20.900000     2008-06-10T21:44:21.04Z  
2144.6832   78281   43.1901  -70.4226  220.0    8.9    14.864     31.464     1009.0        374.457951    354.163419    nd            nd            20.900000     2008-06-10T21:44:40.99Z  
2145.0173   78301   43.1889  -70.4241  223.0    8.9    14.891     31.472     1009.0        375.533869    355.174149    nd            nd            20.900000     2008-06-10T21:45:01.04Z  
2145.3499   78321   43.1877  -70.4256  222.0    8.9    15.037     31.479     1009.0        376.387768    355.922775    nd            nd            20.900000     2008-06-10T21:45:20.99Z  
2145.6840   78341   43.1865  -70.4270  222.0    8.9    15.216     31.444     1009.0        377.952024    357.330524    nd            nd            20.900000     2008-06-10T21:45:41.04Z  
2146.0166   78361   43.1853  -70.4285  222.0    8.9    15.160     31.425     1009.0        380.532487    359.786589    nd            nd            20.900000     2008-06-10T21:46:01.00Z  
2146.3507   78381   43.1841  -70.4300  222.0    9.0    14.947     31.443     1009.0        382.607824    361.827285    nd            nd            20.900000     2008-06-10T21:46:21.04Z  
2146.6834   78401   43.1829  -70.4315  221.0    9.0    14.759     31.481     1009.0        382.834716    362.109977    nd            nd            20.900000     2008-06-10T21:46:41.00Z  
2147.0160   78421   43.1818  -70.4330  225.0    9.0    14.694     31.488     1009.0        381.685206    361.046370    nd            nd            20.900000     2008-06-10T21:47:00.96Z  
2147.3501   78441   43.1806  -70.4346  224.0    9.0    14.747     31.485     1008.9        380.303057    359.713412    nd            nd            20.900000     2008-06-10T21:47:21.01Z  
2147.6827   78461   43.1795  -70.4362  226.0    9.0    14.805     31.487     1009.0        379.715787    359.138727    nd            nd            20.900000     2008-06-10T21:47:40.96Z  
2148.0168   78481   43.1783  -70.4378  224.0    9.0    14.864     31.474     1009.0        379.607059    359.019771    nd            nd            20.900000     2008-06-10T21:48:01.01Z  
2148.3494   78501   43.1771  -70.4393  222.0    9.0    14.834     31.458     1009.0        380.174783    359.568932    nd            nd            20.900000     2008-06-10T21:48:20.96Z  
2148.6835   78521   43.1760  -70.4408  224.0    9.0    14.634     31.439     1009.0        380.690199    360.135810    nd            nd            20.900000     2008-06-10T21:48:41.01Z  
2149.0162   78541   43.1748  -70.4424  224.0    9.0    14.569     31.410     1009.0        380.124372    359.622092    nd            nd            20.900000     2008-06-10T21:49:00.97Z  
2149.3502   78561   43.1736  -70.4439  224.0    8.9    14.521     31.391     1009.0        379.061571    358.634628    nd            nd            20.900000     2008-06-10T21:49:21.01Z  
2149.6829   78581   43.1724  -70.4454  221.0    9.0    14.525     31.340     1009.0        378.170078    357.785636    nd            nd            20.900000     2008-06-10T21:49:40.97Z  
2150.0170   78601   43.1712  -70.4469  221.0    8.9    14.551     31.241     1009.0        377.262951    356.913641    nd            nd            20.900000     2008-06-10T21:50:01.02Z  
2150.3496   78621   43.1700  -70.4483  220.0    8.9    14.677     31.152     1009.0        376.525038    356.168157    nd            nd            20.900000     2008-06-10T21:50:20.98Z  
2150.6837   78641   43.1688  -70.4497  221.0    8.9    14.690     31.118     1008.9        376.084101    355.741745    nd            nd            20.900000     2008-06-10T21:50:41.02Z  
2151.0163   78661   43.1676  -70.4512  221.0    8.9    14.730     31.074     1008.9        375.524277    355.189560    nd            nd            20.900000     2008-06-10T21:51:00.98Z  
2151.3504   78681   43.1664  -70.4527  222.0    9.0    14.858     31.026     1008.9        374.676029    354.332663    nd            nd            20.900000     2008-06-10T21:51:21.02Z  
2151.6830   78701   43.1652  -70.4542  222.0    8.9    14.909     30.999     1008.9        374.154886    353.818178    nd            nd            20.900000     2008-06-10T21:51:40.98Z  
2152.0171   78721   43.1640  -70.4557  222.0    8.9    14.922     30.992     1008.9        373.943494    353.612148    nd            nd            20.900000     2008-06-10T21:52:01.03Z  
2152.3498   78741   43.1628  -70.4572  222.0    8.9    14.812     30.997     1008.9        373.683122    353.402723    nd            nd            20.900000     2008-06-10T21:52:20.99Z  
2152.6838   78761   43.1616  -70.4586  221.0    8.9    14.738     30.988     1008.9        372.953777    352.738557    nd            nd            20.900000     2008-06-10T21:52:41.03Z  
2153.0165   78781   43.1604  -70.4600  221.0    8.8    14.782     30.952     1008.9        371.758604    351.591733    nd            nd            20.900000     2008-06-10T21:53:00.99Z  
2153.3506   78801   43.1592  -70.4615  223.0    8.8    14.799     30.944     1008.9        370.717662    350.597035    nd            nd            20.900000     2008-06-10T21:53:21.04Z  
2153.6832   78821   43.1581  -70.4630  221.0    8.8    14.771     30.942     1008.8        369.984829    349.909287    nd            nd            20.900000     2008-06-10T21:53:40.99Z  
2154.0173   78841   43.1569  -70.4644  222.0    8.8    14.870     30.909     1008.8        369.051526    348.989283    nd            nd            20.900000     2008-06-10T21:54:01.04Z  
2154.3499   78861   43.1557  -70.4659  222.0    8.8    14.916     30.890     1008.8        368.368259    348.325521    nd            nd            20.900000     2008-06-10T21:54:20.99Z  
2154.6840   78881   43.1545  -70.4673  221.0    8.8    14.907     30.868     1008.8        368.090051    348.066967    nd            nd            20.900000     2008-06-10T21:54:41.04Z  
2155.0166   78901   43.1533  -70.4687  220.0    8.8    14.976     30.842     1008.8        367.548156    347.527098    nd            nd            20.900000     2008-06-10T21:55:01.00Z  
2155.3507   78921   43.1521  -70.4702  222.0    8.8    15.015     30.820     1008.8        367.253708    347.235361    nd            nd            20.900000     2008-06-10T21:55:21.04Z  
2155.6834   78941   43.1510  -70.4717  224.0    8.8    14.894     30.826     1008.9        367.253192    347.282658    nd            nd            20.900000     2008-06-10T21:55:41.00Z  
2156.0160   78961   43.1499  -70.4732  225.0    8.8    14.556     30.857     1008.8        366.934134    347.098001    nd            nd            20.900000     2008-06-10T21:56:00.96Z  
2156.3501   78981   43.1487  -70.4747  222.0    8.9    14.246     30.882     1008.8        365.520076    345.873637    nd            nd            20.900000     2008-06-10T21:56:21.01Z  
2156.6827   79001   43.1475  -70.4762  224.0    8.9    14.179     30.906     1008.8        362.440712    342.983270    nd            nd            20.900000     2008-06-10T21:56:40.96Z  
2157.0168   79021   43.1464  -70.4777  224.0    8.8    14.184     30.930     1008.8        359.737270    340.420639    nd            nd            20.900000     2008-06-10T21:57:01.01Z  
2157.3494   79041   43.1453  -70.4792  222.0    8.9    14.291     30.930     1008.8        358.051038    338.789616    nd            nd            20.900000     2008-06-10T21:57:20.96Z  
2157.6835   79061   43.1441  -70.4807  223.0    8.9    14.449     30.916     1008.8        357.710880    338.414278    nd            nd            20.900000     2008-06-10T21:57:41.01Z  
2158.0162   79081   43.1429  -70.4822  221.0    9.0    14.450     30.916     1008.8        358.326662    338.988425    nd            nd            20.900000     2008-06-10T21:58:00.97Z  
2158.3502   79101   43.1417  -70.4837  222.0    9.0    14.415     30.920     1008.8        358.759317    339.401946    nd            nd            20.900000     2008-06-10T21:58:21.01Z  
2158.6829   79121   43.1405  -70.4851  222.0    9.0    14.446     30.916     1008.8        358.861794    339.478445    nd            nd            20.900000     2008-06-10T21:58:40.97Z  
2159.0170   79141   43.1393  -70.4867  224.0    8.9    14.565     30.906     1008.7        358.991056    339.552690    nd            nd            20.900000     2008-06-10T21:59:01.02Z  
2159.3496   79161   43.1382  -70.4882  223.0    9.0    14.670     30.891     1008.8        359.762771    340.248017    nd            nd            20.900000     2008-06-10T21:59:20.98Z  
2159.6837   79181   43.1370  -70.4897  223.0    8.9    14.744     30.884     1008.8        360.753101    341.160736    nd            nd            20.900000     2008-06-10T21:59:41.02Z  
2200.0163   79201   43.1358  -70.4913  223.0    8.9    14.767     30.884     1008.8        361.685562    342.032433    nd            nd            20.900000     2008-06-10T22:00:00.98Z  
2200.3504   79221   43.1347  -70.4927  224.0    8.7    14.601     30.891     1008.8        362.438490    342.804000    nd            nd            nd            2008-06-10T22:00:21.02Z  
2200.6830   79241   43.1335  -70.4942  222.0    8.9    14.522     30.914     1008.7        362.751410    343.121384    nd            nd            nd            2008-06-10T22:00:40.98Z  
2201.0171   79261   43.1324  -70.4957  222.0    8.8    14.573     30.905     1008.7        362.385805    342.748709    nd            nd            nd            2008-06-10T22:01:01.03Z  
2201.3498   79281   43.1312  -70.4971  223.0    8.8    14.765     30.879     1008.7        361.858074    342.171437    nd            nd            nd            2008-06-10T22:01:20.99Z  
2201.6838   79301   43.1300  -70.4986  222.0    8.8    14.835     30.873     1008.7        361.799185    342.081695    nd            nd            nd            2008-06-10T22:01:41.03Z  
2202.0165   79321   43.1289  -70.5000  221.0    8.8    14.585     30.894     1008.6        362.658420    342.976194    nd            nd            nd            2008-06-10T22:02:00.99Z  
2202.3506   79341   43.1276  -70.5014  219.0    8.8    14.329     30.925     1008.6        362.755063    343.145247    nd            nd            nd            2008-06-10T22:02:21.04Z  
2202.6832   79361   43.1264  -70.5029  221.0    8.9    14.271     30.954     1008.6        361.449640    341.923356    nd            nd            nd            2008-06-10T22:02:40.99Z  
2203.0173   79381   43.1253  -70.5043  221.0    8.8    14.687     30.915     1008.6        360.277843    340.664280    nd            nd            nd            2008-06-10T22:03:01.04Z  
2203.3499   79401   43.1240  -70.5057  218.0    8.9    15.376     30.834     1008.5        361.076035    341.157694    nd            nd            nd            2008-06-10T22:03:20.99Z  
2203.6840   79421   43.1228  -70.5071  219.0    8.9    15.724     30.784     1008.5        365.430043    345.131774    nd            nd            nd            2008-06-10T22:03:41.04Z  
2204.0166   79441   43.1215  -70.5085  220.0    9.0    16.078     30.748     1008.5        371.250161    350.479691    nd            nd            nd            2008-06-10T22:04:01.00Z  
2204.3493   79461   43.1203  -70.5099  221.0    9.0    16.472     30.735     1008.5        377.140005    355.868386    nd            nd            nd            2008-06-10T22:04:20.96Z  
2204.6834   79481   43.1191  -70.5114  222.0    9.0    16.829     30.723     1008.5        383.395293    361.609747    nd            nd            nd            2008-06-10T22:04:41.00Z  
2205.0160   79501   43.1179  -70.5130  226.0    9.1    17.118     30.669     1008.4        389.764261    367.481262    nd            nd            nd            2008-06-10T22:05:00.96Z  
2205.3501   79521   43.1167  -70.5145  222.0    9.1    17.303     30.699     1008.4        396.113089    373.373566    nd            nd            nd            2008-06-10T22:05:21.01Z  
2205.6827   79541   43.1155  -70.5161  223.0    9.2    17.388     30.677     1008.4        401.753316    378.645388    nd            nd            nd            2008-06-10T22:05:40.96Z  
2206.0168   79561   43.1144  -70.5177  225.0    9.3    17.411     30.722     1008.4        405.929737    382.563121    nd            nd            nd            2008-06-10T22:06:01.01Z  
2206.3494   79581   43.1132  -70.5194  227.0    9.2    17.408     30.716     1008.4        409.043872    385.499216    nd            nd            nd            2008-06-10T22:06:20.96Z  
2206.6835   79601   43.1121  -70.5210  226.0    9.2    17.444     30.712     1008.4        411.173562    387.486445    nd            nd            nd            2008-06-10T22:06:41.01Z  
2207.0162   79621   43.1109  -70.5226  224.0    9.1    17.396     30.708     1008.4        412.921205    389.150110    nd            nd            nd            2008-06-10T22:07:00.97Z  
2207.3502   79641   43.1097  -70.5242  222.0    9.3    17.260     30.700     1008.3        413.939376    390.162983    nd            nd            nd            2008-06-10T22:07:21.01Z  
2207.6829   79661   43.1085  -70.5257  222.0    9.3    17.072     30.711     1008.3        413.646753    389.982864    nd            nd            nd            2008-06-10T22:07:40.97Z  
2208.0170   79681   43.1072  -70.5273  222.0    9.4    17.059     30.670     1008.3        412.427901    388.832811    nd            nd            nd            2008-06-10T22:08:01.02Z  
2208.3496   79701   43.1060  -70.5289  225.0    9.3    17.209     30.671     1008.4        411.417917    387.821448    nd            nd            nd            2008-06-10T22:08:20.98Z  
2208.6837   79721   43.1049  -70.5305  226.0    9.2    17.267     30.651     1008.3        411.304371    387.683715    nd            nd            nd            2008-06-10T22:08:41.02Z  
2209.0163   79741   43.1037  -70.5321  225.0    9.2    17.187     30.604     1008.4        411.402756    387.815070    nd            nd            nd            2008-06-10T22:09:00.98Z  
2209.3504   79761   43.1025  -70.5337  223.0    9.3    17.025     30.583     1008.3        410.584819    387.119709    nd            nd            nd            2008-06-10T22:09:21.02Z  
2209.6830   79781   43.1013  -70.5352  219.0    9.3    16.890     30.570     1008.3        408.820985    385.518847    nd            nd            nd            2008-06-10T22:09:40.98Z  
2210.0171   79801   43.1000  -70.5366  218.0    9.2    16.804     30.560     1008.3        406.192883    383.078665    nd            nd            nd            2008-06-10T22:10:01.03Z  
2210.3498   79821   43.0987  -70.5381  219.0    9.2    16.688     30.561     1008.3        403.864311    380.930335    nd            nd            nd            2008-06-10T22:10:20.99Z  
2210.6838   79841   43.0974  -70.5396  222.0    9.2    16.590     30.568     1008.3        401.616437    378.852698    nd            nd            nd            2008-06-10T22:10:41.03Z  
2211.0165   79861   43.0962  -70.5411  222.0    9.3    16.485     30.577     1008.3        399.660455    377.057325    nd            nd            nd            2008-06-10T22:11:00.99Z  
2211.3506   79881   43.0949  -70.5426  221.0    9.2    16.453     30.606     1008.3        398.067662    375.565143    nd            nd            nd            2008-06-10T22:11:21.04Z  
2211.6832   79901   43.0937  -70.5441  220.0    9.3    16.401     30.611     1008.3        396.797299    374.386974    nd            nd            nd            2008-06-10T22:11:40.99Z  
2212.0173   79921   43.0924  -70.5456  222.0    9.3    16.338     30.613     1008.3        395.726209    373.409757    nd            nd            nd            2008-06-10T22:12:01.04Z  
2212.3499   79941   43.0912  -70.5472  221.0    9.3    16.228     30.617     1008.3        394.864557    372.645533    nd            nd            nd            2008-06-10T22:12:20.99Z  
2212.6840   79961   43.0899  -70.5487  222.0    9.2    16.080     30.641     1008.3        394.035605    371.925340    nd            nd            nd            2008-06-10T22:12:41.04Z  
2213.0166   79981   43.0887  -70.5502  222.0    9.2    16.065     30.669     1008.3        392.825042    370.784945    nd            nd            nd            2008-06-10T22:13:01.00Z  
2213.3493   80001   43.0875  -70.5518  222.0    9.1    15.824     30.672     1008.3        391.890196    370.006493    nd            nd            nd            2008-06-10T22:13:20.96Z  
2213.6834   80021   43.0863  -70.5533  222.0    9.2    15.667     30.637     1008.3        390.894088    369.129348    nd            nd            nd            2008-06-10T22:13:41.00Z  
2214.0160   80041   43.0851  -70.5548  222.0    9.1    15.633     30.680     1008.3        389.032748    367.381158    nd            nd            nd            2008-06-10T22:14:00.96Z  
2214.3501   80061   43.0839  -70.5563  224.0    9.1    15.751     30.709     1008.3        387.309061    365.705640    nd            nd            nd            2008-06-10T22:14:21.01Z  
2214.6827   80081   43.0827  -70.5579  224.0    9.1    15.920     30.689     1008.3        386.616288    364.976307    nd            nd            nd            2008-06-10T22:14:40.96Z  
2215.0168   80101   43.0816  -70.5595  227.0    9.0    16.006     30.668     1008.3        386.979588    365.285266    nd            nd            nd            2008-06-10T22:15:01.01Z  
2215.3494   80121   43.0804  -70.5611  226.0    9.1    15.996     30.661     1008.3        387.641947    365.909557    nd            nd            nd            2008-06-10T22:15:20.96Z  
2215.6835   80141   43.0794  -70.5627  228.0    9.0    15.938     30.678     1008.3        388.295233    366.554343    nd            nd            nd            2008-06-10T22:15:41.01Z  
2216.0162   80161   43.0782  -70.5643  224.0    9.1    15.917     30.670     1008.3        388.788772    367.025371    nd            nd            nd            2008-06-10T22:16:00.97Z  
2216.3502   80181   43.0770  -70.5659  223.0    9.1    15.908     30.653     1008.3        389.020383    367.250903    nd            nd            nd            2008-06-10T22:16:21.01Z  
2216.6829   80201   43.0759  -70.5675  229.0    9.1    15.886     30.656     1008.3        388.474430    366.749430    nd            nd            nd            2008-06-10T22:16:40.97Z  
2217.0170   80221   43.0749  -70.5692  228.0    9.1    15.845     30.663     1008.3        387.916215    366.239863    nd            nd            nd            2008-06-10T22:17:01.02Z  
2217.3496   80241   43.0737  -70.5709  225.0    9.1    15.853     30.662     1008.3        387.128783    365.483674    nd            nd            nd            2008-06-10T22:17:20.98Z  
2217.6837   80261   43.0726  -70.5724  224.0    9.1    15.984     30.664     1008.3        386.686317    365.010881    nd            nd            nd            2008-06-10T22:17:41.02Z  
2218.0163   80281   43.0714  -70.5739  221.0    9.1    16.103     30.664     1008.3        386.908064    365.168774    nd            nd            nd            2008-06-10T22:18:00.98Z  
2218.3504   80301   43.0701  -70.5754  219.0    9.1    16.278     30.649     1008.3        388.134417    366.248760    nd            nd            nd            2008-06-10T22:18:21.02Z  
2218.6830   80321   43.0689  -70.5768  221.0    9.1    16.294     30.671     1008.3        390.162839    368.152137    nd            nd            nd            2008-06-10T22:18:40.98Z  
2219.0171   80341   43.0677  -70.5784  224.0    9.2    16.236     30.689     1008.2        392.288359    370.179190    nd            nd            nd            2008-06-10T22:19:01.03Z  
2219.3498   80361   43.0666  -70.5800  228.0    9.2    16.107     30.704     1008.2        393.841912    371.697624    nd            nd            nd            2008-06-10T22:19:20.99Z  
2219.6838   80381   43.0655  -70.5817  230.0    9.1    16.087     30.694     1008.2        394.402439    372.236280    nd            nd            nd            2008-06-10T22:19:41.03Z  
2220.0165   80401   43.0646  -70.5835  240.0    9.1    16.110     30.687     1008.2        394.574901    372.383468    nd            nd            nd            2008-06-10T22:20:00.99Z  
2220.3506   80421   43.0640  -70.5856  252.0    9.2    16.071     30.706     1008.2        394.733186    372.545708    nd            nd            nd            2008-06-10T22:20:21.04Z  
2220.6832   80441   43.0635  -70.5878  250.0    9.1    16.001     30.734     1008.2        394.820159    372.666635    nd            nd            nd            2008-06-10T22:20:40.99Z  
2221.0173   80461   43.0628  -70.5898  245.0    9.2    15.976     30.742     1008.2        395.135232    372.977963    nd            nd            nd            2008-06-10T22:21:01.04Z  
2221.3499   80481   43.0621  -70.5919  246.0    9.3    15.985     30.747     1008.2        395.384590    373.205076    nd            nd            nd            2008-06-10T22:21:20.99Z  
2221.6840   80501   43.0615  -70.5940  247.0    9.1    15.967     30.763     1008.2        395.625440    373.438652    nd            nd            nd            2008-06-10T22:21:41.04Z  
2222.0166   80521   43.0608  -70.5961  250.0    9.3    16.035     30.766     1008.2        396.058110    373.811106    nd            nd            nd            2008-06-10T22:22:01.00Z  
2222.3493   80541   43.0604  -70.5983  257.0    9.1    16.085     30.771     1008.2        396.785902    374.486675    nd            nd            nd            2008-06-10T22:22:20.96Z  
2222.6834   80561   43.0601  -70.6005  255.0    9.2    16.148     30.770     1008.2        397.870722    375.484589    nd            nd            nd            2008-06-10T22:22:41.00Z  
2223.0160   80581   43.0597  -70.6027  258.0    9.4    16.110     30.768     1008.2        399.375484    376.910520    nd            nd            nd            2008-06-10T22:23:00.96Z  
2223.3501   80601   43.0594  -70.6050  261.0    9.2    16.101     30.772     1008.2        400.295243    377.782887    nd            nd            nd            2008-06-10T22:23:21.01Z  
2223.6827   80621   43.0592  -70.6072  261.0    9.3    16.235     30.766     1008.2        400.582349    377.990962    nd            nd            nd            2008-06-10T22:23:40.96Z  
2224.0168   80641   43.0589  -70.6095  257.0    9.5    16.379     30.758     1008.2        401.161794    378.483253    nd            nd            nd            2008-06-10T22:24:01.01Z  
2224.3494   80661   43.0585  -70.6118  257.0    9.4    16.619     30.765     1008.3        402.190628    379.357872    nd            nd            nd            2008-06-10T22:24:20.96Z  
2224.6835   80681   43.0582  -70.6140  259.0    9.3    16.863     30.796     1008.3        404.511696    381.433301    nd            nd            nd            2008-06-10T22:24:41.01Z  
2225.0162   80701   43.0579  -70.6162  258.0    9.3    17.166     30.800     1008.2        407.996206    384.567625    nd            nd            nd            2008-06-10T22:25:00.97Z  
2225.3502   80721   43.0576  -70.6185  261.0    9.2    17.369     30.770     1008.2        412.328243    388.552672    nd            nd            nd            2008-06-10T22:25:21.01Z  
2225.6829   80741   43.0574  -70.6207  261.0    9.2    17.314     30.764     1008.2        416.975371    392.960922    nd            nd            nd            2008-06-10T22:25:40.97Z  
2226.0170   80761   43.0570  -70.6229  257.0    9.3    17.080     30.768     1008.2        419.777175    395.708860    nd            nd            nd            2008-06-10T22:26:01.02Z  
2226.3496   80781   43.0567  -70.6251  259.0    9.1    16.898     30.777     1008.2        420.138004    396.142438    nd            nd            nd            2008-06-10T22:26:20.98Z